Date StartTime U_cm/s V_cm/s W_cm/s Ustd_cm/s Vstd_cm/s Wstd_cm/s Uvar_(cm/s)^2 Vvar_(cm/s)^2 Wvar_(cm/s)^2 KE_(m/s)^2 TurbulentKE_(m/s)^2 HorizWindSpeed_cm/s FrictionSpeec_cm/s DragCoef SpeedOfSound_m/s SonicTemperature_C Pressure_mb 
12/29/2013  00:00:00      -56.388      -29.532       -5.464       19.183       12.186       12.273      367.972      148.488      150.637        0.237        0.033       63.654        8.774        0.019      331.143       -1.033      869.867
12/29/2013  00:01:00      -83.878      -33.818      -12.386       10.769       16.082        8.430      115.966      258.640       71.057        0.439        0.022       90.439        6.041        0.004      331.168       -0.990      869.876
12/29/2013  00:02:00     -108.468        2.026      -19.238       11.107        9.895        8.945      123.359       97.908       80.011        0.622        0.015      108.487        2.867        0.001      331.070       -1.153      869.882
12/29/2013  00:03:00      -98.332       17.837      -14.323       11.639       17.256        9.849      135.456      297.756       97.008        0.536        0.027       99.936        3.332        0.001      331.175       -0.979      869.865
12/29/2013  00:04:00      -78.606       48.626      -17.759       19.155       30.463       13.486      366.911      928.021      181.864        0.517        0.074       92.430       16.421        0.032      331.335       -0.717      869.846
12/29/2013  00:05:00     -101.583       67.064      -22.351       17.532       18.595       14.609      307.368      345.767      213.436        0.809        0.043      121.723       10.226        0.007      331.408       -0.595      869.824
12/29/2013  00:06:00      -93.650       58.515      -18.365       29.316       32.675       16.726      859.399     1067.668      279.767        0.737        0.110      110.428       13.880        0.016      331.376       -0.648      869.818
12/29/2013  00:07:00      -68.009       18.802      -14.304       21.545       29.493       17.206      464.196      869.838      296.050        0.341        0.082       70.561        6.885        0.010      331.348       -0.695      869.820
12/29/2013  00:08:00      -49.104        8.929       -9.163       29.749       35.665       18.049      884.990     1271.976      325.759        0.253        0.124       49.909       17.571        0.124      331.381       -0.640      869.826
12/29/2013  00:09:00      -44.456       18.451      -12.470       35.484       30.782       21.476     1259.088      947.549      461.234        0.257        0.133       48.133       20.598        0.183      331.600       -0.280      869.818
12/29/2013  00:10:00      -58.342       75.881      -12.773       22.079       45.376       21.310      487.496     2059.008      454.103        0.616        0.150       95.717       24.660        0.066      331.736       -0.056      869.810
12/29/2013  00:11:00      -47.762       28.757       -6.851       18.111       33.466       20.195      328.025     1119.941      407.845        0.251        0.093       55.751       18.018        0.104      331.588       -0.301      869.786
12/29/2013  00:12:00      -42.734       46.305      -10.680       23.636       44.511       15.885      558.648     1981.270      252.338        0.344        0.140       63.011       17.116        0.074      331.652       -0.194      869.766
12/29/2013  00:13:00      -38.493       57.388      -12.054       22.375       34.531       11.989      500.639     1192.379      143.726        0.338        0.092       69.102       10.046        0.021      332.051        0.462      869.760
12/29/2013  00:14:00      -78.181      -10.148      -14.171       15.425       24.564       15.225      237.925      603.392      231.810        0.374        0.054       78.837        4.769        0.004      331.414       -0.586      869.732
12/29/2013  00:15:00        8.908        7.374        5.066       43.695       45.183       22.931     1909.256     2041.515      525.837        0.232        0.224       11.565       15.953        1.903      331.345       -0.700      869.734
12/29/2013  00:16:00       -4.276       22.527        1.123       27.865       32.806       17.735      776.468     1076.253      314.543        0.135        0.108       22.930       19.992        0.760      331.550       -0.362      869.736
12/29/2013  00:17:00      -24.356      -30.631       -2.170       14.964       16.139       14.935      223.919      260.466      223.058        0.112        0.035       39.134       10.446        0.071      331.434       -0.555      869.741
12/29/2013  00:18:00        3.072      -29.771       -1.059       14.553       12.603       10.742      211.786      158.826      115.400        0.069        0.024       29.929        5.460        0.033      331.576       -0.321      869.746
12/29/2013  00:19:00      -58.832      -25.841       -6.459       35.633        9.788       12.381     1269.688       95.808      153.289        0.284        0.076       64.257       17.072        0.071      331.238       -0.875      869.758
12/29/2013  00:20:00      -45.980      -30.762       -7.303       26.337       11.833        8.877      693.650      140.013       78.800        0.201        0.046       55.322        7.930        0.021      331.130       -1.053      869.745
12/29/2013  00:21:00      -51.001      -16.719       -4.124       18.886        9.062        8.804      356.691       82.127       77.515        0.171        0.026       53.671        7.157        0.018      331.202       -0.935      869.733
12/29/2013  00:22:00      -63.366      -26.636      -11.752       14.136       10.439        6.210      199.820      108.967       38.570        0.261        0.017       68.737        2.463        0.001      331.278       -0.811      869.714
12/29/2013  00:23:00      -63.873      -28.620       -4.832        6.600        6.043        6.321       43.562       36.522       39.953        0.252        0.006       69.991        1.951        0.001      331.169       -0.989      869.700
12/29/2013  00:24:00      -54.289      -32.701        3.627       19.265       11.226       11.912      371.153      126.027      141.903        0.233        0.032       63.377       12.201        0.037      331.192       -0.952      869.693
12/29/2013  00:25:00      -58.141      -37.013       -4.026       22.903       14.954       11.818      524.563      223.629      139.659        0.283        0.044       68.923        7.210        0.011      331.160       -1.006      869.681
12/29/2013  00:26:00      -64.363      -45.326       -3.651       23.939       22.589       14.237      573.058      510.246      202.695        0.375        0.064       78.722       12.488        0.025      331.087       -1.124      869.669
12/29/2013  00:27:00      -44.813      -36.898        3.518       28.724       17.803       15.489      825.066      316.947      239.920        0.238        0.069       58.049       16.512        0.081      331.146       -1.027      869.653
12/29/2013  00:28:00      -71.818      -40.706        0.854       23.287       27.635       14.669      542.282      763.708      215.181        0.417        0.076       82.552        9.988        0.015      331.122       -1.067      869.639
12/29/2013  00:29:00      -68.769      -46.001        1.880       31.298       20.771       11.669      979.577      431.417      136.163        0.420        0.077       82.736        9.994        0.015      331.123       -1.065      869.631
12/29/2013  00:30:00      -47.725      -47.163        3.190       31.120       25.709       18.210      968.424      660.969      331.621        0.324        0.098       67.097       17.976        0.072      331.099       -1.105      869.624
12/29/2013  00:31:00      -68.788      -42.930        0.384       34.448       27.687       16.932     1186.631      766.596      286.700        0.441        0.112       81.085       11.973        0.022      331.090       -1.120      869.608
12/29/2013  00:32:00     -109.686      -36.513       -4.279       30.408       20.085       12.664      924.636      403.425      160.378        0.744        0.074      115.604       12.943        0.013      330.966       -1.324      869.597
12/29/2013  00:33:00      -45.842      -29.658        2.796       45.942       19.073       16.321     2110.692      363.795      266.381        0.286        0.137       54.599       11.347        0.043      330.993       -1.278      869.593
12/29/2013  00:34:00      -54.125      -15.504      -10.243       29.629       17.905       11.546      877.887      320.579      133.303        0.230        0.067       56.302       12.610        0.050      331.032       -1.214      869.589
12/29/2013  00:35:00      -90.755      -14.406      -15.930       14.457       11.905        7.974      208.995      141.720       63.580        0.456        0.021       91.891        5.934        0.004      331.003       -1.265      869.568
12/29/2013  00:36:00     -101.129      -31.068      -11.768       14.686       12.478       11.011      215.683      155.697      121.240        0.591        0.025      105.793        8.442        0.006      331.058       -1.172      869.535
12/29/2013  00:37:00      -79.958      -43.120        1.104       25.910       18.227       14.202      671.321      332.214      201.704        0.473        0.060       90.844       14.480        0.025      331.020       -1.235      869.501
12/29/2013  00:38:00      -84.786      -27.518       -3.730       24.260       26.895       16.822      588.544      723.341      282.991        0.478        0.080       89.140       14.605        0.027      330.976       -1.308      869.481
12/29/2013  00:39:00      -97.952      -17.767      -11.118       29.391       19.680       13.768      863.804      387.316      189.561        0.574        0.072       99.550       13.583        0.019      330.927       -1.385      869.464
12/29/2013  00:40:00     -117.062       -6.275      -11.803       32.958       17.403       14.028     1086.252      302.861      196.783        0.773        0.079      117.230       17.460        0.022      330.874       -1.473      869.441
12/29/2013  00:41:00     -129.917       -4.874       -9.120       20.444       17.773       17.428      417.963      315.872      303.746        0.901        0.052      130.008       12.135        0.009      330.842       -1.526      869.421
12/29/2013  00:42:00     -120.000      -42.335      -10.062       18.583       27.006       12.918      345.324      729.337      166.872        0.877        0.062      127.249       10.027        0.006      330.842       -1.526      869.406
12/29/2013  00:43:00      -85.853      -58.032       -6.937       31.441       20.236       18.198      988.529      409.481      331.163        0.626        0.086      103.627       16.642        0.026      330.875       -1.473      869.389
12/29/2013  00:44:00      -15.282      -13.079        2.790       22.571       19.046       13.961      509.458      362.768      194.896        0.074        0.053       20.115        2.087        0.011      330.813       -1.573      869.384
12/29/2013  00:45:00      -52.750      -32.392        2.954       43.326       28.985       20.569     1877.120      840.121      423.086        0.349        0.157       61.902       25.586        0.171      330.787       -1.617      869.386
12/29/2013  00:46:00     -103.020      -50.588      -14.597       23.414       19.476       13.680      548.220      379.325      187.156        0.725        0.056      114.771       10.176        0.008      330.806       -1.586      869.382
12/29/2013  00:47:00     -132.883      -26.763      -14.111       20.668       20.110       11.585      427.170      404.400      134.211        0.977        0.048      135.551        7.164        0.003      330.783       -1.624      869.364
12/29/2013  00:48:00     -115.976      -37.148      -14.717       24.396       29.180       17.173      595.146      851.477      294.924        0.839        0.087      121.780       16.974        0.019      330.744       -1.686      869.344
12/29/2013  00:49:00      -85.548      -44.130        1.481       28.520       25.299       19.792      813.410      640.059      391.718        0.556        0.092       96.260       17.204        0.032      330.749       -1.678      869.328
12/29/2013  00:50:00      -74.138      -12.048       -6.552       47.315       31.585       18.048     2238.732      997.617      325.743        0.462        0.178       75.111       14.945        0.040      330.757       -1.666      869.327
12/29/2013  00:51:00      -81.984       14.412       -8.288       32.894       34.338       25.906     1082.034     1179.082      671.113        0.496        0.147       83.241       18.407        0.049      330.840       -1.531      869.317
12/29/2013  00:52:00     -123.262       16.710      -13.666       51.323       44.781       26.757     2634.022     2005.305      715.935        1.051        0.268      124.389       22.821        0.034      330.881       -1.464      869.295
12/29/2013  00:53:00      -96.593       13.845       -5.166       41.908       33.012       21.020     1756.299     1089.817      441.821        0.642        0.164       97.581       18.433        0.036      330.844       -1.523      869.269
12/29/2013  00:54:00      -57.189        2.533       -9.692       45.385       21.939       18.652     2059.758      481.305      347.883        0.313        0.144       57.245       21.202        0.137      330.832       -1.541      869.242
12/29/2013  00:55:00      -53.128       -0.691       -5.151       22.097       18.719       16.986      488.298      350.391      288.519        0.199        0.056       53.133       16.024        0.091      330.868       -1.483      869.236
12/29/2013  00:56:00      -28.487      -18.357      -12.755       26.690       13.997        9.885      712.363      195.926       97.717        0.116        0.050       33.889        9.540        0.079      330.926       -1.388      869.256
12/29/2013  00:57:00      -22.309      -28.998      -10.237       18.780       16.410       12.594      352.707      269.274      158.599        0.111        0.039       36.587        7.763        0.045      331.135       -1.045      869.261
12/29/2013  00:58:00      -43.303       -5.757        2.588       20.022       18.846       10.470      400.864      355.181      109.629        0.139        0.043       43.684        7.620        0.030      331.044       -1.195      869.257
12/29/2013  00:59:00      -48.741       47.060       -7.654       18.119       20.785       16.886      328.290      432.009      285.142        0.285        0.052       67.752       11.171        0.027      331.530       -0.395      869.269
12/29/2013  01:00:00      -32.760       32.292       -5.748       18.367       30.651       13.369      337.356      939.487      178.726        0.180        0.073       46.000       14.254        0.096      331.441       -0.543      869.296
12/29/2013  01:01:00      -56.297      -15.160      -10.507       11.708       13.573        7.694      137.081      184.215       59.205        0.194        0.019       58.303        6.326        0.012      330.934       -1.375      869.323
12/29/2013  01:02:00      -65.197       -0.263      -15.127       10.041        9.891        7.209      100.819       97.823       51.968        0.237        0.013       65.198        5.341        0.007      330.794       -1.605      869.336
12/29/2013  01:03:00      -48.076       -3.310       -9.116       10.847       11.950        8.525      117.655      142.794       72.679        0.137        0.017       48.190        3.552        0.005      330.823       -1.558      869.331
12/29/2013  01:04:00      -49.056        0.976      -14.859       18.476       16.940        9.069      341.346      286.974       82.250        0.167        0.036       49.066        5.934        0.015      331.026       -1.224      869.312
12/29/2013  01:05:00      -53.735       -1.362      -12.412       11.334       10.114        9.923      128.463      102.294       98.473        0.169        0.016       53.752        5.639        0.011      330.877       -1.470      869.300
12/29/2013  01:06:00      -39.143        8.054      -10.696       16.080       24.929       11.775      258.551      621.454      138.647        0.136        0.051       39.963       11.898        0.089      331.100       -1.103      869.293
12/29/2013  01:07:00      -27.915       48.262       -3.434       21.371       42.874       17.048      456.735     1838.201      290.628        0.285        0.129       55.754       17.016        0.093      331.639       -0.215      869.281
12/29/2013  01:08:00      -40.823       81.001       -8.624       27.141       38.396       16.943      736.628     1474.217      287.063        0.540        0.125       90.706       15.368        0.029      331.904        0.222      869.263
12/29/2013  01:09:00        0.889       67.158       -2.205       31.599       37.397       16.699      998.499     1398.534      278.852        0.360        0.134       67.164       12.101        0.032      332.065        0.487      869.258
12/29/2013  01:10:00      -10.561       12.716        0.876       23.081       28.816       12.424      532.749      830.375      154.366        0.090        0.076       16.530       11.722        0.503      331.610       -0.263      869.257
12/29/2013  01:11:00      -42.687      -13.627        3.054       19.180       20.025       12.165      367.860      401.011      147.979        0.147        0.046       44.809       11.849        0.070      331.106       -1.093      869.249
12/29/2013  01:12:00      -52.826      -20.258       -7.624       14.719       12.466       13.774      216.639      155.390      189.712        0.191        0.028       56.578        7.454        0.017      331.017       -1.240      869.252
12/29/2013  01:13:00      -41.477        8.553      -10.885       19.039       27.901       11.690      362.468      778.451      136.655        0.159        0.064       42.350        5.571        0.017      331.258       -0.843      869.256
12/29/2013  01:14:00        6.373       50.467       -8.824       40.493       35.736       13.205     1639.683     1277.069      174.383        0.288        0.155       50.867       16.153        0.101      331.790        0.032      869.265
12/29/2013  01:15:00        9.356       39.720        6.874       16.322       28.590       17.357      266.409      817.388      301.253        0.155        0.069       40.807       12.402        0.092      331.733       -0.060      869.269
12/29/2013  01:16:00        7.121       81.550       -8.434        9.990       13.030        6.816       99.805      169.786       46.461        0.354        0.016       81.860        5.826        0.005      331.915        0.239      869.267
12/29/2013  01:17:00        6.578       75.280       -9.502        9.543       11.699        8.595       91.061      136.860       73.882        0.305        0.015       75.567        7.170        0.009      331.816        0.075      869.264
12/29/2013  01:18:00        6.839       72.524       -5.051       18.008       12.326        7.888      324.272      151.924       62.213        0.294        0.027       72.846        8.272        0.013      331.754       -0.028      869.282
12/29/2013  01:19:00       -1.084       77.095       -5.994       20.500       22.515       14.163      420.256      506.919      200.577        0.355        0.056       77.102       13.168        0.029      331.764       -0.010      869.308
12/29/2013  01:20:00       -3.491       62.812       -2.541       25.598       37.126       19.274      655.278     1378.343      371.470        0.318        0.120       62.909       21.710        0.119      331.795        0.041      869.324
12/29/2013  01:21:00       -1.930       52.860       -0.619       23.216       36.764       14.291      538.966     1351.584      204.223        0.245        0.105       52.895       19.194        0.132      331.802        0.051      869.338
12/29/2013  01:22:00        0.043      104.744      -10.507       21.135       16.936        9.593      446.682      286.844       92.028        0.595        0.041      104.744        9.791        0.009      331.975        0.337      869.350
12/29/2013  01:23:00        0.529       93.644      -12.803       15.439       12.213        7.001      238.352      149.168       49.007        0.468        0.022       93.646        2.566        0.001      331.912        0.232      869.351
12/29/2013  01:24:00        4.651       83.153      -12.930       10.693       16.686        7.476      114.344      278.408       55.890        0.378        0.022       83.283        7.582        0.008      331.883        0.186      869.340
12/29/2013  01:25:00       18.409       73.802      -12.814       20.826       23.202       12.192      433.739      538.321      148.638        0.354        0.056       76.063       12.384        0.027      331.897        0.208      869.325
12/29/2013  01:26:00       24.208       15.291        1.761        9.763       20.231       11.805       95.324      409.284      139.357        0.073        0.032       28.632       10.895        0.145      331.727       -0.072      869.325
12/29/2013  01:27:00       10.950       19.052       -1.320        9.385       23.331       12.655       88.082      544.351      160.156        0.064        0.040       21.975       14.217        0.419      331.739       -0.053      869.336
12/29/2013  01:28:00       -2.041       -1.312        1.943        9.652       11.547       11.604       93.152      133.339      134.642        0.019        0.018        2.426        7.556        9.701      331.573       -0.323      869.343
12/29/2013  01:29:00       -2.313       23.847       -1.576       17.021       18.983       10.110      289.707      360.373      102.219        0.066        0.038       23.959        6.237        0.068      331.611       -0.263      869.355
12/29/2013  01:30:00      -33.400      -15.414       -6.315       13.075       10.544        6.571      170.965      111.166       43.183        0.086        0.016       36.785        5.814        0.025      331.079       -1.139      869.364
12/29/2013  01:31:00      -42.879      -22.052       -6.020        8.746        4.846        4.238       76.501       23.483       17.957        0.124        0.006       48.217        3.104        0.004      331.093       -1.114      869.378
12/29/2013  01:32:00      -53.770      -26.556       -8.001        6.632       10.109        6.940       43.988      102.200       48.168        0.193        0.010       59.970        3.950        0.004      331.047       -1.191      869.389
12/29/2013  01:33:00      -56.352      -30.659       -3.402        9.707        8.529        8.154       94.217       72.738       66.485        0.218        0.012       64.152        3.814        0.004      331.006       -1.257      869.412
12/29/2013  01:34:00      -48.479      -24.350       -5.669       11.104        6.381        7.213      123.300       40.711       52.024        0.160        0.011       54.251        5.729        0.011      330.985       -1.291      869.423
12/29/2013  01:35:00      -59.759      -45.794       -3.007       26.704       20.456       13.380      713.116      418.437      179.034        0.349        0.066       75.288       10.025        0.018      330.820       -1.563      869.426
12/29/2013  01:36:00      -34.798      -35.208        1.734       29.234       16.737       15.444      854.603      280.126      238.511        0.191        0.069       49.502       14.440        0.085      330.781       -1.625      869.420
12/29/2013  01:37:00      -65.198      -30.853       -4.620       17.243       21.647       11.756      297.311      468.586      138.200        0.306        0.045       72.129        5.734        0.006      330.963       -1.328      869.430
12/29/2013  01:38:00      -62.780      -29.474        0.160       25.574       23.390       16.076      654.022      547.111      258.452        0.313        0.073       69.355        9.606        0.019      330.801       -1.593      869.446
12/29/2013  01:39:00      -65.580      -13.210       -2.133       25.011       16.555       18.710      625.552      274.065      350.048        0.286        0.062       66.897        7.826        0.014      330.783       -1.623      869.459
12/29/2013  01:40:00     -106.774       -9.678      -10.870       33.062       25.452       19.633     1093.098      647.823      385.440        0.687        0.106      107.211       10.637        0.010      330.741       -1.693      869.471
12/29/2013  01:41:00      -76.490      -30.257        5.976       44.892       34.633       23.897     2015.257     1199.413      571.063        0.529        0.189       82.257        9.263        0.013      330.599       -1.925      869.465
12/29/2013  01:42:00     -114.491      -52.376       -1.575       50.431       38.631       26.525     2543.312     1492.389      703.562        1.030        0.237      125.903       18.706        0.022      330.531       -2.037      869.473
12/29/2013  01:43:00     -121.995      -63.637       -5.992       28.719       24.292       20.943      824.794      590.124      438.607        1.041        0.093      137.596       13.414        0.010      330.485       -2.112      869.494
12/29/2013  01:44:00      -61.063      -27.600       -4.082       30.880       26.004       15.063      953.572      676.208      226.902        0.318        0.093       67.011       17.025        0.065      330.432       -2.198      869.518
12/29/2013  01:45:00      -61.821      -25.123       -8.089       19.349       13.909       10.963      374.365      193.460      120.182        0.260        0.034       66.731        9.658        0.021      330.529       -2.039      869.527
12/29/2013  01:46:00      -76.424      -29.049       -8.850       14.142       11.583        8.037      199.998      134.155       64.588        0.358        0.020       81.758        5.321        0.004      330.533       -2.033      869.530
12/29/2013  01:47:00      -68.803      -32.450      -10.940       12.475       10.790        7.458      155.615      116.415       55.620        0.312        0.016       76.071        3.012        0.002      330.620       -1.890      869.529
12/29/2013  01:48:00      -81.566      -42.602      -13.391        9.227       10.545        6.959       85.145      111.193       48.429        0.445        0.012       92.021        2.945        0.001      330.603       -1.918      869.508
12/29/2013  01:49:00      -77.249      -43.906      -10.683       18.894       13.767       10.414      356.983      189.536      108.446        0.433        0.033       88.855        8.095        0.008      330.626       -1.882      869.501
12/29/2013  01:50:00      -64.051      -37.347       -6.024       30.113       18.137       11.204      906.770      328.950      125.538        0.345        0.068       74.143        8.487        0.013      330.599       -1.926      869.487
12/29/2013  01:51:00      -81.666      -17.878       -9.414       13.707       13.374        8.629      187.892      178.865       74.463        0.376        0.022       83.600        6.093        0.005      330.585       -1.950      869.478
12/29/2013  01:52:00      -85.810      -27.431      -11.306       13.156       15.834       13.140      173.085      250.717      172.672        0.442        0.030       90.088        8.352        0.009      330.531       -2.036      869.471
12/29/2013  01:53:00      -99.785      -21.371      -15.416       13.028       15.014        8.508      169.722      225.429       72.393        0.556        0.023      102.048        6.054        0.004      330.553       -2.001      869.473
12/29/2013  01:54:00     -110.407      -21.697      -16.131       12.095       15.924        9.241      146.288      253.584       85.402        0.670        0.024      112.519        7.531        0.004      330.545       -2.013      869.494
12/29/2013  01:55:00     -131.661      -19.916      -19.709        9.710       10.808       10.331       94.279      116.814      106.730        0.922        0.016      133.158        5.794        0.002      330.479       -2.123      869.519
12/29/2013  01:56:00     -130.487      -40.047      -15.888       26.884       21.257       14.185      722.765      451.873      201.201        1.013        0.069      136.494       14.445        0.011      330.430       -2.201      869.539
12/29/2013  01:57:00     -121.300      -33.693      -10.046       15.363       18.056       14.198      236.021      326.011      201.583        0.836        0.038      125.893        8.786        0.005      330.456       -2.159      869.564
12/29/2013  01:58:00      -95.168      -28.951       -2.913       23.782       22.224       16.623      565.577      493.889      276.314        0.562        0.067       99.474       11.084        0.012      330.467       -2.142      869.579
12/29/2013  01:59:00      -45.874       -5.095        2.902       30.701       28.918       16.816      942.575      836.240      282.767        0.210        0.103       46.156       19.357        0.176      330.540       -2.023      869.584
12/29/2013  02:00:00      -55.833       -4.063       -1.578       27.400       23.659       19.023      750.762      559.729      361.882        0.240        0.084       55.980       20.057        0.128      330.549       -2.006      869.563
12/29/2013  02:01:00      -62.627      -28.086       -2.581       31.628       29.836       14.129     1000.357      890.202      199.625        0.340        0.105       68.636       11.190        0.027      330.504       -2.080      869.551
12/29/2013  02:02:00      -65.492      -35.974        1.681       29.539       28.247       15.993      872.534      797.914      255.791        0.376        0.096       74.722       14.544        0.038      330.534       -2.032      869.547
12/29/2013  02:03:00      -53.539      -39.523       -3.625       28.290       18.778       15.895      800.340      352.630      252.660        0.292        0.070       66.547       15.691        0.056      330.483       -2.115      869.559
12/29/2013  02:04:00      -49.934      -41.140       -4.275       26.617       15.827       14.241      708.449      250.499      202.815        0.268        0.058       64.699       11.465        0.031      330.470       -2.137      869.563
12/29/2013  02:05:00      -52.709      -44.340       -4.993       26.876       27.277       19.131      722.317      744.036      365.978        0.330        0.092       68.879       14.783        0.046      330.459       -2.153      869.572
12/29/2013  02:06:00      -59.899      -25.911      -11.163       25.879       16.075       16.400      669.716      258.416      268.974        0.279        0.060       65.263       16.597        0.065      330.415       -2.228      869.572
12/29/2013  02:07:00      -61.413      -24.902       -6.933       22.070       22.669       24.051      487.098      513.900      578.428        0.301        0.079       66.269       17.793        0.072      330.444       -2.180      869.567
12/29/2013  02:08:00      -57.067       -3.997      -10.411       18.613       17.404       11.633      346.430      302.914      135.324        0.208        0.039       57.207       11.256        0.039      330.442       -2.184      869.565
12/29/2013  02:09:00      -37.236      -17.483      -19.270       22.813       24.682        9.547      520.426      609.182       91.148        0.164        0.061       41.136        5.505        0.018      330.596       -1.931      869.582
12/29/2013  02:10:00      -46.338      -30.694      -10.149       20.223        9.800       10.958      408.960       96.046      120.086        0.191        0.031       55.582        7.104        0.016      330.583       -1.951      869.606
12/29/2013  02:11:00      -66.740       -1.404      -14.163       14.720        9.136        7.940      216.675       83.468       63.050        0.251        0.018       66.755        6.614        0.010      330.523       -2.049      869.630
12/29/2013  02:12:00      -41.753      -22.855       -7.366       10.683       13.791        5.613      114.130      190.194       31.502        0.133        0.017       47.599        3.980        0.007      330.908       -1.418      869.650
12/29/2013  02:13:00      -54.567       -5.183      -11.673       12.504       16.908        7.383      156.348      285.889       54.503        0.182        0.025       54.812        5.046        0.008      330.700       -1.759      869.656
12/29/2013  02:14:00      -54.401       12.840      -19.378        8.000       10.465        8.730       64.006      109.522       76.214        0.187        0.012       55.896        3.729        0.004      330.636       -1.865      869.670
12/29/2013  02:15:00      -70.043       -7.837      -14.533       10.657       10.369        9.206      113.567      107.511       84.755        0.274        0.015       70.480        5.797        0.007      330.455       -2.161      869.691
12/29/2013  02:16:00      -69.720       -7.739      -13.465       19.664       12.548       10.739      386.665      157.463      115.335        0.288        0.033       70.148        9.794        0.019      330.436       -2.193      869.694
12/29/2013  02:17:00      -60.311      -21.201      -10.388       14.998       18.728       13.353      224.933      350.724      178.315        0.247        0.038       63.929       10.315        0.026      330.391       -2.268      869.684
12/29/2013  02:18:00      -78.387      -16.066      -12.414       12.882       13.532        9.241      165.935      183.103       85.404        0.350        0.022       80.016        5.526        0.005      330.401       -2.250      869.675
12/29/2013  02:19:00      -89.385       -4.026      -12.760       21.168       22.141        9.909      448.079      490.240       98.195        0.460        0.052       89.475       10.426        0.014      330.414       -2.229      869.687
12/29/2013  02:20:00     -106.243       -7.710      -15.984       18.199       16.149       13.416      331.195      260.793      179.992        0.619        0.039      106.522       10.538        0.010      330.453       -2.165      869.684
12/29/2013  02:21:00     -101.958       -6.070      -13.910       16.092       18.817       11.184      258.962      354.064      125.087        0.568        0.037      102.138        9.991        0.010      330.402       -2.248      869.669
12/29/2013  02:22:00      -66.632      -13.658      -11.629       19.072       17.473        9.825      363.728      305.300       96.530        0.276        0.038       68.017        6.683        0.010      330.429       -2.203      869.654
12/29/2013  02:23:00      -84.186       -8.280      -14.876       11.852       15.307       13.960      140.480      234.290      194.895        0.397        0.028       84.592       11.883        0.020      330.494       -2.097      869.637
12/29/2013  02:24:00      -64.560      -20.082      -10.614       10.985       17.398       10.074      120.679      302.690      101.479        0.260        0.026       67.611        8.869        0.017      330.489       -2.104      869.632
12/29/2013  02:25:00      -49.048      -14.991       -8.332       18.135       12.449       12.591      328.870      154.989      158.542        0.167        0.032       51.287       12.144        0.056      330.451       -2.169      869.639
12/29/2013  02:26:00      -47.677      -16.682      -12.059       14.970       11.787        8.619      224.105      138.928       74.287        0.157        0.022       50.511        4.416        0.008      330.513       -2.067      869.648
12/29/2013  02:27:00      -52.340      -21.762      -12.286       20.001       15.958        9.647      400.029      254.671       93.068        0.206        0.037       56.684        7.765        0.019      330.567       -1.978      869.655
12/29/2013  02:28:00      -79.161      -15.058      -16.772        9.301       12.586        7.179       86.500      158.405       51.532        0.354        0.015       80.580        3.860        0.002      330.426       -2.209      869.660
12/29/2013  02:29:00      -85.812      -17.720      -15.213       14.158       11.076        9.561      200.449      122.670       91.416        0.416        0.021       87.622        4.654        0.003      330.456       -2.160      869.648
12/29/2013  02:30:00      -78.262      -15.337       -8.737       16.908       14.266       16.232      285.897      203.506      263.475        0.359        0.038       79.751       13.946        0.031      330.420       -2.219      869.631
12/29/2013  02:31:00     -111.316      -14.805      -18.395       18.730       15.817       12.256      350.814      250.193      150.220        0.685        0.038      112.296        9.469        0.007      330.364       -2.311      869.623
12/29/2013  02:32:00      -89.581      -13.673      -14.132       16.839       13.963       13.224      283.561      194.967      174.876        0.453        0.033       90.619       10.117        0.012      330.377       -2.289      869.623
12/29/2013  02:33:00      -68.328      -24.463      -10.492       16.635        9.713        9.437      276.736       94.333       89.066        0.292        0.023       72.575        7.275        0.010      330.492       -2.100      869.628
12/29/2013  02:34:00      -76.572      -20.697      -15.266        9.826       10.439        7.660       96.542      108.978       58.670        0.339        0.013       79.320        3.674        0.002      330.492       -2.101      869.642
12/29/2013  02:35:00      -80.583      -36.267      -14.288       10.036        9.685        8.147      100.725       93.801       66.372        0.414        0.013       88.368        3.994        0.002      330.552       -2.001      869.641
12/29/2013  02:36:00      -84.796      -47.124      -11.211       12.130       13.278        9.977      147.131      176.312       99.531        0.498        0.021       97.010        9.275        0.009      330.570       -1.972      869.644
12/29/2013  02:37:00      -55.698      -42.300        3.751       40.599       30.954       24.213     1648.270      958.175      586.291        0.405        0.160       69.940       22.945        0.108      330.479       -2.122      869.656
12/29/2013  02:38:00      -82.447      -58.406       -4.390       36.068       27.644       18.653     1300.879      764.170      347.920        0.632        0.121      101.039       15.460        0.023      330.497       -2.094      869.675
12/29/2013  02:39:00     -134.600      -66.606      -13.956       42.466       58.576       25.948     1803.355     3431.092      673.284        1.433        0.295      150.178       23.385        0.024      330.310       -2.400      869.713
12/29/2013  02:40:00     -143.658      -84.579      -20.248       42.565       40.062       20.923     1811.816     1604.986      437.789        1.603        0.193      166.707       12.977        0.006      330.233       -2.525      869.764
12/29/2013  02:41:00     -108.535      -75.963       -5.465       50.191       35.284       27.889     2519.098     1244.932      777.778        1.106        0.227      132.478       23.469        0.031      330.195       -2.589      869.795
12/29/2013  02:42:00     -125.458      -57.001       -8.031       34.125       38.028       20.864     1164.505     1446.095      435.322        1.105        0.152      137.800       14.908        0.012      330.217       -2.552      869.812
12/29/2013  02:43:00     -103.102      -69.204      -15.292       28.296       25.263       16.989      800.660      638.200      288.629        0.869        0.086      124.174       12.036        0.009      330.210       -2.563      869.822
12/29/2013  02:44:00     -112.784      -55.590      -13.182       28.389       22.876       16.646      805.926      523.292      277.092        0.879        0.080      125.739       11.249        0.008      330.177       -2.618      869.816
12/29/2013  02:45:00     -116.528      -59.965       -9.281       20.684       21.297       13.517      427.842      453.544      182.715        0.916        0.053      131.052        6.954        0.003      330.184       -2.607      869.810
12/29/2013  02:46:00     -121.266      -54.446       -1.765       34.496       26.808       17.877     1189.979      718.683      319.582        0.995        0.111      132.927       16.557        0.016      330.187       -2.600      869.802
12/29/2013  02:47:00     -115.938      -67.029      -11.007       26.385       29.718       18.019      696.151      883.181      324.690        0.998        0.095      133.920       10.748        0.006      330.187       -2.601      869.801
12/29/2013  02:48:00     -119.677      -58.939       -5.480       27.609       22.997       15.176      762.246      528.841      230.319        0.967        0.076      133.403       13.307        0.010      330.248       -2.502      869.813
12/29/2013  02:49:00     -140.554      -33.774       -9.593       24.883       29.469       18.635      619.188      868.396      347.279        1.141        0.092      144.555       12.582        0.008      330.290       -2.432      869.813
12/29/2013  02:50:00     -110.796       -5.045      -16.610       20.450       13.762       13.139      418.215      189.402      172.632        0.668        0.039      110.911        3.572        0.001      330.280       -2.447      869.820
12/29/2013  02:51:00      -98.120       -9.004      -10.819       13.185       14.901       11.188      173.837      222.040      125.166        0.517        0.026       98.532        5.765        0.003      330.241       -2.514      869.832
12/29/2013  02:52:00     -111.547      -17.211      -18.561       18.239        9.782        8.802      332.671       95.678       77.471        0.679        0.025      112.867        6.293        0.003      330.273       -2.460      869.855
12/29/2013  02:53:00      -80.914       -2.652      -14.301       28.702       13.020        8.284      823.823      169.510       68.622        0.391        0.053       80.958        8.836        0.012      330.298       -2.418      869.855
12/29/2013  02:54:00     -116.069       -2.932      -17.512       16.660       10.527       12.949      277.554      110.813      167.671        0.717        0.028      116.106        5.530        0.002      330.349       -2.334      869.857
12/29/2013  02:55:00      -88.174        1.562      -16.889       15.510       11.002        8.129      240.561      121.043       66.085        0.424        0.021       88.188        5.659        0.004      330.526       -2.045      869.849
12/29/2013  02:56:00      -81.309       -2.912       -9.841       12.062       18.066       12.880      145.500      326.394      165.891        0.368        0.032       81.362        9.056        0.012      330.413       -2.230      869.850
12/29/2013  02:57:00      -53.554       -3.858       -9.483       11.256       12.931        7.922      126.695      167.216       62.756        0.166        0.018       53.692        5.544        0.011      330.387       -2.275      869.854
12/29/2013  02:58:00      -53.014      -17.150      -12.724       14.713        9.767        8.774      216.470       95.399       76.980        0.183        0.019       55.719        5.898        0.011      330.322       -2.379      869.872
12/29/2013  02:59:00      -50.864       -4.648      -12.942        8.694       10.157        8.027       75.584      103.173       64.439        0.151        0.012       51.076        4.259        0.007      330.236       -2.520      869.874
12/29/2013  03:00:00      -45.502       -5.270      -16.481       16.246       12.561        7.827      263.948      157.774       61.267        0.143        0.024       45.806        6.348        0.019      330.316       -2.390      869.880
12/29/2013  03:01:00      -20.727       37.319      -16.017       37.925       28.828       16.056     1438.323      831.026      257.785        0.230        0.126       42.689       10.906        0.065      331.046       -1.192      869.889
12/29/2013  03:02:00       15.748      107.220      -19.423       34.379       31.654       15.420     1181.947     1002.002      237.780        0.727        0.121      108.370       19.794        0.033      331.439       -0.546      869.908
12/29/2013  03:03:00        3.274       81.361       -8.828       25.118       37.333       15.869      630.890     1393.752      251.823        0.449        0.114       81.427       16.673        0.042      331.516       -0.417      869.923
12/29/2013  03:04:00       23.234       95.126       -3.509       24.499       38.129       30.069      600.220     1453.809      904.142        0.628        0.148       97.923       26.987        0.076      331.426       -0.567      869.934
12/29/2013  03:05:00       22.187      103.073       -6.202       22.895       38.242       26.608      524.198     1462.484      707.997        0.692        0.135      105.434       24.340        0.053      331.390       -0.626      869.930
12/29/2013  03:06:00       20.826      100.553      -11.519       14.987       21.670       15.482      224.617      469.572      239.702        0.581        0.047      102.687       13.375        0.017      331.407       -0.600      869.923
12/29/2013  03:07:00       21.146       66.601       -3.678       20.864       28.281       19.413      435.291      799.823      376.875        0.325        0.081       69.877       17.986        0.066      331.398       -0.613      869.912
12/29/2013  03:08:00       21.946       83.805       -3.200       24.712       40.056       22.099      610.699     1604.476      488.366        0.511        0.135       86.631       21.488        0.062      331.436       -0.550      869.902
12/29/2013  03:09:00        7.848       34.092       -8.627       16.314       36.385       14.996      266.143     1323.903      224.879        0.156        0.091       34.984       14.965        0.183      331.332       -0.720      869.888
12/29/2013  03:10:00       -9.274       17.396       -2.539       11.531        9.517       10.729      132.955       90.570      115.102        0.037        0.017       19.714        6.934        0.124      331.352       -0.689      869.880
12/29/2013  03:11:00      -60.276        4.101       -7.906       22.059       10.022        9.956      486.582      100.439       99.125        0.220        0.034       60.415       12.191        0.041      330.590       -1.939      869.872
12/29/2013  03:12:00      -63.253       -3.504      -15.292       17.811       11.303        8.432      317.230      127.755       71.103        0.238        0.026       63.350        6.343        0.010      330.465       -2.146      869.865
12/29/2013  03:13:00      -62.971      -12.341       -7.015        7.988       10.215        8.368       63.801      104.348       70.029        0.220        0.012       64.169        6.582        0.011      330.515       -2.064      869.866
12/29/2013  03:14:00      -75.533       -7.971      -13.437       22.189       10.637        9.345      492.339      113.143       87.321        0.332        0.035       75.952        9.495        0.016      330.372       -2.298      869.879
12/29/2013  03:15:00      -76.711      -12.173      -17.520       15.675       16.270        9.106      245.712      264.728       82.928        0.347        0.030       77.671        3.294        0.002      330.294       -2.425      869.883
12/29/2013  03:16:00      -80.549      -13.465      -16.995       13.959       14.722       12.616      194.852      216.731      159.176        0.376        0.029       81.667        4.431        0.003      330.217       -2.551      869.896
12/29/2013  03:17:00      -53.541      -20.074      -14.294       14.805       15.325        9.615      219.177      234.869       92.449        0.201        0.027       57.181        7.043        0.015      330.358       -2.321      869.899
12/29/2013  03:18:00      -61.221      -19.814       -8.088       14.715       19.680        8.930      216.541      387.301       79.745        0.244        0.034       64.347        5.711        0.008      330.369       -2.301      869.906
12/29/2013  03:19:00      -79.779      -26.431       -8.608       23.102       17.620       10.664      533.709      310.462      113.714        0.405        0.048       84.043        8.639        0.011      330.375       -2.292      869.919
12/29/2013  03:20:00      -73.268      -32.352      -19.757       10.599        6.482        6.267      112.335       42.011       39.277        0.350        0.010       80.093        4.677        0.003      330.378       -2.288      869.933
12/29/2013  03:21:00      -89.305      -27.493      -12.520        7.192        8.358        5.890       51.721       69.858       34.687        0.452        0.008       93.441        5.335        0.003      330.549       -2.007      869.954
12/29/2013  03:22:00      -47.714      -38.087       -5.036       10.929       11.037        7.014      119.450      121.812       49.203        0.202        0.015       61.051        4.906        0.006      330.457       -2.158      869.971
12/29/2013  03:23:00      -47.467      -29.744       -6.223       14.494        6.606        9.137      210.070       43.634       83.490        0.176        0.017       56.016        7.802        0.019      330.454       -2.163      869.977
12/29/2013  03:24:00      -39.339      -19.864       -6.893       14.617        9.917        9.141      213.662       98.352       83.561        0.119        0.020       44.069        5.323        0.015      330.954       -1.342      869.980
12/29/2013  03:25:00      -64.454      -29.293       -7.132       18.066        8.638        6.824      326.374       74.615       46.570        0.276        0.022       70.799        5.523        0.006      330.598       -1.927      869.995
12/29/2013  03:26:00      -91.312      -24.764      -15.549       10.261       10.527        9.943      105.279      110.824       98.871        0.475        0.016       94.611        7.089        0.006      330.187       -2.602      870.014
12/29/2013  03:27:00      -99.537      -32.093      -15.932       14.130       18.575        8.705      199.643      345.019       75.769        0.591        0.031      104.583        5.885        0.003      330.134       -2.689      870.021
12/29/2013  03:28:00     -110.452      -63.944       -4.911       17.057       17.567       14.100      290.944      308.607      198.806        0.856        0.040      127.626        7.018        0.003      330.119       -2.713      870.021
12/29/2013  03:29:00      -76.218      -58.450       -4.206       24.995       22.000       18.086      624.758      484.019      327.121        0.534        0.072       96.050       12.046        0.016      330.114       -2.722      870.009
12/29/2013  03:30:00      -86.375      -42.279       -7.197       31.701       15.320       14.184     1004.970      234.709      201.197        0.537        0.072       96.168       12.803        0.018      330.087       -2.766      869.998
12/29/2013  03:31:00     -111.372      -44.055      -21.019        6.829        9.370        7.301       46.638       87.802       53.300        0.749        0.009      119.769        4.961        0.002      330.040       -2.840      870.001
12/29/2013  03:32:00      -97.042      -46.257      -17.940       14.038       11.226        7.102      197.077      126.021       50.442        0.613        0.019      107.503        6.666        0.004      330.171       -2.627      869.998
12/29/2013  03:33:00      -77.970      -45.414       -8.741       14.758       15.702       10.990      217.792      246.555      120.772        0.440        0.029       90.231        8.121        0.008      330.270       -2.466      869.998
12/29/2013  03:34:00      -77.608      -62.184      -12.047       25.966       15.063       12.527      674.226      226.884      156.918        0.555        0.053       99.448        7.712        0.006      330.262       -2.479      870.002
12/29/2013  03:35:00      -93.347      -60.170       -8.818       30.947       17.864       13.676      957.686      319.137      187.020        0.694        0.073      111.059        8.897        0.006      330.180       -2.612      869.992
12/29/2013  03:36:00      -92.272      -50.073      -10.868       44.695       21.041       21.533     1997.647      442.706      463.673        0.702        0.145      104.983       22.627        0.046      330.029       -2.860      869.983
12/29/2013  03:37:00     -102.250      -54.616       -1.548       39.302       27.444       18.223     1544.611      753.153      332.094        0.803        0.131      115.922       19.005        0.027      330.137       -2.683      869.968
12/29/2013  03:38:00     -119.880      -63.995       -5.934       35.174       25.534       16.964     1237.220      651.993      287.761        1.034        0.109      135.892       17.200        0.016      330.214       -2.557      869.939
12/29/2013  03:39:00     -112.146      -61.730       -5.314       39.423       23.506       19.315     1554.178      552.537      373.078        0.945        0.124      128.013       17.740        0.019      330.123       -2.705      869.913
12/29/2013  03:40:00      -76.838      -43.601        0.561       34.324       24.057       19.560     1178.146      578.742      382.608        0.497        0.107       88.346       19.653        0.049      330.130       -2.695      869.896
12/29/2013  03:41:00      -18.168      -27.743        7.622       26.897       16.470       15.361      723.472      271.263      235.958        0.119        0.062       33.162       13.512        0.166      330.274       -2.458      869.897
12/29/2013  03:42:00      -75.588      -49.649        3.023       53.023       32.310       20.754     2811.390     1043.948      430.721        0.624        0.214       90.435       26.641        0.087      330.339       -2.351      869.905
12/29/2013  03:43:00     -130.030      -58.997       -6.114       27.208       28.613       17.292      740.261      818.699      299.018        1.114        0.093      142.788        8.351        0.003      330.196       -2.586      869.923
12/29/2013  03:44:00      -92.124      -70.205        5.493       47.578       42.891       27.406     2263.673     1839.675      751.069        0.915        0.243      115.825       26.480        0.052      330.132       -2.692      869.929
12/29/2013  03:45:00     -138.825      -88.881       -3.474       47.748       32.709       26.779     2279.864     1069.903      717.107        1.562        0.203      164.840       25.453        0.024      330.084       -2.770      869.923
12/29/2013  03:46:00     -117.180      -94.810        1.382       46.606       30.166       26.637     2172.113      909.964      709.506        1.326        0.190      150.732       19.798        0.017      330.195       -2.587      869.911
12/29/2013  03:47:00      -73.775      -81.485        0.807       66.411       49.563       29.286     4410.363     2456.460      857.647        0.990        0.386      109.921       26.372        0.058      330.283       -2.444      869.906
12/29/2013  03:48:00      -91.598      -89.176       -1.861       57.765       46.514       27.064     3336.826     2163.568      732.452        1.129        0.312      127.838       24.587        0.037      330.277       -2.453      869.919
12/29/2013  03:49:00     -118.625      -82.127        0.978       42.691       30.185       27.772     1822.537      911.133      771.270        1.216        0.175      144.280       16.361        0.013      330.242       -2.511      869.923
12/29/2013  03:50:00      -80.423      -90.011        6.648       75.469       53.204       33.709     5695.542     2830.618     1136.327        1.214        0.483      120.706       39.479        0.107      330.113       -2.723      869.907
12/29/2013  03:51:00     -124.131     -125.451      -10.218       42.485       51.058       29.817     1804.957     2606.876      889.082        1.827        0.265      176.483       18.737        0.011      330.138       -2.683      869.892
12/29/2013  03:52:00     -145.984     -113.462       -5.246       62.682       59.374       40.490     3929.065     3525.258     1639.425        2.165        0.455      184.892       27.814        0.023      330.168       -2.634      869.880
12/29/2013  03:53:00     -120.498     -113.664        4.099       81.622       60.558       39.061     6662.181     3667.248     1525.737        1.965        0.593      165.649       42.884        0.067      330.001       -2.908      869.876
12/29/2013  03:54:00     -132.515      -98.550       -0.610       62.693       49.744       32.494     3930.395     2474.438     1055.833        1.737        0.373      165.143       27.729        0.028      330.016       -2.881      869.891
12/29/2013  03:55:00     -150.501      -94.355       -0.299       51.455       43.157       28.812     2647.593     1862.545      830.146        1.845        0.267      177.633       21.715        0.015      330.009       -2.894      869.912
12/29/2013  03:56:00     -189.378      -66.884       -1.201       41.973       35.006       27.732     1761.717     1225.441      769.076        2.205        0.188      200.842       25.372        0.016      329.967       -2.962      869.929
12/29/2013  03:57:00     -177.766      -73.474        0.789       53.322       47.028       32.852     2843.252     2211.644     1079.269        2.157        0.307      192.352       35.875        0.035      329.921       -3.040      869.948
12/29/2013  03:58:00     -166.714     -106.265       -1.171       51.139       43.281       29.920     2615.205     1873.209      895.199        2.223        0.269      197.701       28.058        0.020      330.025       -2.868      869.979
12/29/2013  03:59:00     -147.496     -117.751       -3.598       46.035       36.925       25.906     2119.252     1363.441      671.110        1.989        0.208      188.734       23.226        0.015      330.128       -2.699      870.008
12/29/2013  04:00:00     -118.823      -86.516       -1.976       38.229       39.136       23.469     1461.447     1531.642      550.806        1.258        0.177      146.983       18.648        0.016      330.162       -2.642      870.012
12/29/2013  04:01:00      -95.001      -99.027       -3.331       67.366       43.936       34.033     4538.173     1930.355     1158.246        1.323        0.381      137.228       38.908        0.080      330.147       -2.666      869.987
12/29/2013  04:02:00     -126.012     -103.422       -6.841       37.196       38.404       29.400     1383.565     1474.890      864.344        1.517        0.186      163.019       19.425        0.014      330.134       -2.688      869.942
12/29/2013  04:03:00     -114.998     -103.776        1.606       52.509       52.004       33.203     2757.181     2704.405     1102.407        1.528        0.328      154.900       28.474        0.034      330.111       -2.727      869.909
12/29/2013  04:04:00     -103.585      -88.464        4.477       47.378       44.029       31.048     2244.654     1938.511      963.984        1.186        0.257      136.220       30.616        0.051      330.135       -2.686      869.874
12/29/2013  04:05:00     -100.216      -89.418        4.669       40.522       42.050       28.127     1642.022     1768.194      791.113        1.113        0.210      134.309       25.313        0.036      330.153       -2.657      869.832
12/29/2013  04:06:00     -112.658      -76.006      -10.409       45.153       36.313       21.385     2038.831     1318.646      457.304        1.120        0.191      135.900       14.597        0.012      330.088       -2.763      869.798
12/29/2013  04:07:00     -155.949     -105.645      -13.051       25.828       36.423       21.085      667.091     1326.646      444.565        1.904        0.122      188.364       13.442        0.005      330.043       -2.836      869.789
12/29/2013  04:08:00     -137.825      -84.562       -3.716       33.316       27.646       21.769     1109.928      764.326      473.886        1.425        0.117      161.698       20.739        0.016      329.920       -3.039      869.785
12/29/2013  04:09:00     -124.451      -61.333       -8.101       26.226       22.872       18.972      687.799      523.142      359.953        1.044        0.079      138.743        9.411        0.005      329.922       -3.034      869.789
12/29/2013  04:10:00     -126.626      -47.710       -8.962       26.690       20.510       15.209      712.355      420.643      231.325        0.988        0.068      135.316       10.621        0.006      330.163       -2.640      869.801
12/29/2013  04:11:00     -108.058      -30.312       -4.043       33.082       22.444       14.369     1094.413      503.723      206.472        0.721        0.090      112.229       11.682        0.011      330.016       -2.881      869.794
12/29/2013  04:12:00     -130.945      -37.242      -13.978       12.471       14.823       14.156      155.520      219.723      200.400        0.965        0.029      136.138        5.664        0.002      329.934       -3.015      869.773
12/29/2013  04:13:00     -119.979      -22.944      -12.237       15.438       20.481       14.356      238.343      419.486      206.086        0.797        0.043      122.153        7.698        0.004      329.955       -2.982      869.776
12/29/2013  04:14:00     -110.071      -20.796      -12.022       22.310       19.026       15.054      497.733      361.988      226.616        0.689        0.054      112.018       12.013        0.012      329.895       -3.080      869.800
12/29/2013  04:15:00     -113.116      -57.828       -6.762       23.670       21.901       14.106      560.291      479.640      198.981        0.871        0.062      127.041       11.521        0.008      329.870       -3.121      869.806
12/29/2013  04:16:00     -108.145      -36.960       -4.230       35.200       22.576       17.243     1239.073      509.679      297.324        0.756        0.102      114.286       15.899        0.019      329.938       -3.010      869.824
12/29/2013  04:17:00      -90.253      -23.186       -6.722       24.089       17.562       13.385      580.283      308.433      179.155        0.490        0.053       93.184       13.873        0.022      329.909       -3.056      869.839
12/29/2013  04:18:00     -113.750      -33.528      -13.373       24.943       20.720       16.130      622.178      429.331      260.178        0.778        0.066      118.589       11.849        0.010      329.923       -3.034      869.835
12/29/2013  04:19:00     -102.928      -41.092       -7.081       37.965       29.040       20.026     1441.368      843.326      401.057        0.751        0.134      110.828       16.337        0.022      329.822       -3.198      869.825
12/29/2013  04:20:00      -95.848      -30.915       -7.343       30.548       30.366       19.146      933.159      922.106      366.555        0.621        0.111      100.710       16.322        0.026      329.834       -3.178      869.833
12/29/2013  04:21:00     -105.629        3.851      -11.700       30.619       26.681       18.420      937.534      711.874      339.305        0.665        0.099      105.699        9.705        0.008      330.063       -2.802      869.841
12/29/2013  04:22:00     -123.396       10.170       -8.754       32.337       33.162       20.140     1045.711     1099.706      405.631        0.898        0.128      123.814       15.412        0.015      330.198       -2.583      869.842
12/29/2013  04:23:00     -125.083       -8.072      -16.740       30.662       29.213       20.447      940.183      853.419      418.094        0.910        0.111      125.343       14.693        0.014      330.210       -2.563      869.836
12/29/2013  04:24:00     -146.857       30.753      -11.324       49.562       25.984       20.874     2456.372      675.145      435.707        1.310        0.178      150.043       19.526        0.017      330.240       -2.512      869.825
12/29/2013  04:25:00     -176.836       25.830      -12.719       38.568       37.302       21.294     1487.458     1391.447      453.423        1.772        0.167      178.713       14.794        0.007      330.302       -2.413      869.818
12/29/2013  04:26:00     -172.399       37.902      -13.746       38.150       32.334       23.433     1455.428     1045.456      549.115        1.720        0.152      176.516       17.550        0.010      330.434       -2.195      869.789
12/29/2013  04:27:00     -150.198       18.177      -12.042       26.258       20.103       16.591      689.472      404.113      275.257        1.220        0.068      151.294       11.870        0.006      330.378       -2.287      869.752
12/29/2013  04:28:00     -134.065       10.380       -9.514       32.067       30.025       15.776     1028.270      901.478      248.882        1.017        0.109      134.466       15.834        0.014      330.422       -2.216      869.728
12/29/2013  04:29:00     -154.809        8.113      -14.501       26.991       26.792       15.116      728.503      717.831      228.501        1.296        0.084      155.022       15.806        0.010      330.453       -2.164      869.718
12/29/2013  04:30:00     -188.352       23.761      -14.647       30.789       29.686       19.951      947.944      881.260      398.036        1.924        0.111      189.845       12.612        0.004      330.510       -2.073      869.718
12/29/2013  04:31:00     -171.501       32.509      -10.160       40.536       28.484       18.575     1643.142      811.350      345.033        1.669        0.140      174.555       17.376        0.010      330.697       -1.764      869.716
12/29/2013  04:32:00     -148.407       33.685      -14.768       33.122       24.971       15.864     1097.064      623.532      251.652        1.267        0.099      152.181        8.759        0.003      330.597       -1.928      869.720
12/29/2013  04:33:00     -149.214       33.256      -13.936       32.405       25.725       16.492     1050.081      661.785      271.973        1.277        0.099      152.875       11.867        0.006      330.563       -1.985      869.715
12/29/2013  04:34:00     -172.241       19.645      -16.362       22.413       24.315       15.836      502.349      591.225      250.770        1.583        0.067      173.357        9.595        0.003      330.485       -2.112      869.696
12/29/2013  04:35:00     -129.928        9.574       -8.466       43.083       31.033       21.957     1856.144      963.024      482.124        1.017        0.165      130.280       19.758        0.023      330.423       -2.215      869.696
12/29/2013  04:36:00     -111.120      -15.952      -17.197       28.214       31.440       19.067      796.024      988.451      363.550        0.752        0.107      112.260       10.151        0.008      330.313       -2.394      869.697
12/29/2013  04:37:00      -86.536      -44.365       -2.227       39.476       31.280       21.742     1558.389      978.432      472.731        0.624        0.150       97.246       15.664        0.026      330.221       -2.544      869.701
12/29/2013  04:38:00      -71.266      -35.245       -3.659       27.463       15.023        9.646      754.223      225.699       93.052        0.370        0.054       79.505        8.733        0.012      330.246       -2.504      869.693
12/29/2013  04:39:00      -38.681      -25.293       -3.832       19.811       12.512        9.657      392.463      156.551       93.254        0.140        0.032       46.216       10.398        0.051      330.209       -2.565      869.670
12/29/2013  04:40:00      -41.347      -26.843       -1.369       17.536        8.582        9.309      307.526       73.650       86.652        0.145        0.023       49.296        9.800        0.040      330.259       -2.483      869.635
12/29/2013  04:41:00      -15.430      -22.203       -0.523       18.899        9.819        9.804      357.171       96.419       96.113        0.064        0.027       27.038        5.378        0.040      330.402       -2.246      869.591
12/29/2013  04:42:00      -20.339      -29.315        4.645       17.538       15.207        9.158      307.569      231.243       83.877        0.096        0.031       35.680        9.594        0.072      330.440       -2.184      869.556
12/29/2013  04:43:00       -5.373      -31.655        5.372       11.636       18.436       14.513      135.389      339.873      210.631        0.087        0.034       32.108        8.412        0.069      330.544       -2.016      869.543
12/29/2013  04:44:00      -15.437      -22.658       -1.788        9.016       20.034        9.327       81.281      401.362       86.999        0.066        0.028       27.417        9.811        0.128      330.312       -2.394      869.543
12/29/2013  04:45:00      -49.948      -20.525       -1.606       13.132       16.394       11.438      172.443      268.778      130.837        0.175        0.029       54.001        6.069        0.013      330.069       -2.794      869.542
12/29/2013  04:46:00      -77.660      -27.351       -6.915       18.791       12.665       11.674      353.109      160.401      136.271        0.374        0.032       82.335        6.768        0.007      330.098       -2.748      869.535
12/29/2013  04:47:00      -77.554      -40.742       -4.163       27.120       20.130       13.759      735.500      405.203      189.313        0.451        0.067       87.604        6.537        0.006      329.927       -3.027      869.529
12/29/2013  04:48:00      -48.754      -38.676       -6.122       38.498       14.619       12.367     1482.128      213.701      152.932        0.288        0.092       62.232        6.628        0.011      329.929       -3.022      869.531
12/29/2013  04:49:00      -24.471      -28.791        4.688       23.688       18.268       12.661      561.119      333.737      160.308        0.125        0.053       37.786       13.059        0.119      329.981       -2.939      869.524
12/29/2013  04:50:00      -37.966      -28.274       -0.689       20.328       13.856       10.273      413.245      191.982      105.526        0.148        0.036       47.338        7.428        0.025      329.923       -3.034      869.507
12/29/2013  04:51:00      -26.262      -36.385       -1.654       22.642       14.479       13.932      512.682      209.646      194.108        0.147        0.046       44.872        5.980        0.018      329.900       -3.071      869.486
12/29/2013  04:52:00      -28.879      -32.420        4.428       27.788       24.531       16.530      772.160      601.750      273.244        0.178        0.082       43.417       14.620        0.113      329.873       -3.116      869.472
12/29/2013  04:53:00      -54.724      -46.543        2.950       41.568       42.472       21.406     1727.858     1803.865      458.214        0.458        0.199       71.840       12.652        0.031      329.848       -3.156      869.463
12/29/2013  04:54:00      -42.873      -57.954        6.239       41.696       41.643       26.478     1738.538     1734.129      701.104        0.470        0.209       72.088       17.396        0.058      329.689       -3.418      869.465
12/29/2013  04:55:00      -11.287      -21.748       13.003       40.437       32.529       27.186     1635.170     1058.130      739.067        0.210        0.172       24.503       17.271        0.497      329.589       -3.579      869.473
12/29/2013  04:56:00      -15.400      -40.134       -3.413       40.043       33.512       22.647     1603.458     1123.065      512.875        0.255        0.162       42.987       14.660        0.116      329.590       -3.578      869.487
12/29/2013  04:57:00      -51.402      -32.591        6.275       71.142       35.111       25.289     5061.223     1232.768      639.546        0.534        0.347       60.864       27.728        0.208      329.479       -3.760      869.500
12/29/2013  04:58:00     -106.767      -85.578        8.421       84.205       50.011       37.533     7090.442     2501.086     1408.742        1.490        0.550      136.831       38.629        0.080      329.332       -4.000      869.512
12/29/2013  04:59:00      -88.425      -64.800       -0.323       46.439       39.884       29.822     2156.567     1590.719      889.357        0.833        0.232      109.627       25.427        0.054      329.289       -4.072      869.529
12/29/2013  05:00:00      -71.107      -71.705       -2.070       41.231       28.603       24.725     1700.031      818.118      611.311        0.667        0.156      100.984       18.131        0.032      329.385       -3.914      869.541
12/29/2013  05:01:00      -27.336      -26.594        5.353       21.474       19.777       16.642      461.144      391.132      276.966        0.131        0.056       38.138       13.765        0.130      329.463       -3.785      869.566
12/29/2013  05:02:00      -24.718        0.553        3.057       14.456       12.393        6.278      208.984      153.576       39.412        0.051        0.020       24.724        7.309        0.087      329.439       -3.825      869.589
12/29/2013  05:03:00       -6.110        8.341        2.886        9.541        7.282        8.740       91.039       53.032       76.382        0.017        0.011       10.339        3.136        0.092      329.476       -3.766      869.611
12/29/2013  05:04:00       20.492       29.812        9.215       16.682       20.201       12.492      278.278      408.064      156.054        0.112        0.042       36.175       12.237        0.114      329.520       -3.692      869.623
12/29/2013  05:05:00       30.521       18.623        8.919       29.469       17.603       17.088      868.440      309.862      292.009        0.141        0.074       35.754       15.133        0.179      329.515       -3.701      869.635
12/29/2013  05:06:00       46.985       24.809       -0.414       21.921       21.251       21.327      480.539      451.588      454.858        0.210        0.069       53.132       17.892        0.113      329.465       -3.782      869.634
12/29/2013  05:07:00       65.717       39.107        1.210       15.546       16.140       14.967      241.687      260.507      224.007        0.329        0.036       76.473        9.316        0.015      329.484       -3.752      869.630
12/29/2013  05:08:00       39.302       33.112       -0.424       19.874       15.968       11.521      394.968      254.991      132.728        0.171        0.039       51.391        6.883        0.018      329.468       -3.780      869.618
12/29/2013  05:09:00       23.166       18.504       -1.086       17.251       11.187       12.266      297.599      125.146      150.444        0.073        0.029       29.649       10.567        0.127      329.454       -3.801      869.610
12/29/2013  05:10:00       17.598       34.200       -4.888       11.357       10.046        7.381      128.974      100.918       54.474        0.089        0.014       38.462        7.205        0.035      329.494       -3.733      869.616
12/29/2013  05:11:00       31.169       31.487       -4.162       11.642       10.553        8.936      135.525      111.367       79.843        0.115        0.016       44.305        6.514        0.022      329.525       -3.685      869.633
12/29/2013  05:12:00       35.614       42.466        1.549       17.336       15.215       11.755      300.543      231.481      138.185        0.187        0.034       55.423       10.716        0.037      329.452       -3.804      869.660
12/29/2013  05:13:00       32.799       44.212       -4.849       22.358       20.505       17.518      499.871      420.456      306.875        0.214        0.061       55.050       13.176        0.057      329.439       -3.826      869.678
12/29/2013  05:14:00       59.162       47.878       -0.559       26.286       23.143       12.505      690.970      535.576      156.363        0.359        0.069       76.108       14.455        0.036      329.505       -3.717      869.690
12/29/2013  05:15:00       78.718       42.787        0.548       22.462       20.265       16.094      504.542      410.661      259.028        0.460        0.059       89.595       11.407        0.016      329.511       -3.707      869.694
12/29/2013  05:16:00       74.502       38.989        4.848       34.923       22.515       22.710     1219.609      506.925      515.761        0.467        0.112       84.087       18.076        0.046      329.424       -3.850      869.688
12/29/2013  05:17:00       62.603       41.409        4.894       23.705       17.646       15.133      561.908      311.374      229.012        0.338        0.055       75.059        7.474        0.010      329.281       -4.083      869.688
12/29/2013  05:18:00       59.130       42.884        9.868       15.048       18.156       14.642      226.434      329.647      214.382        0.310        0.039       73.044        9.271        0.016      329.233       -4.162      869.699
12/29/2013  05:19:00       58.367       34.533        8.085       13.792       14.553       14.448      190.224      211.780      208.754        0.264        0.031       67.818       11.437        0.028      329.232       -4.163      869.711
12/29/2013  05:20:00       33.730       42.626        2.593       21.679       15.931       12.962      469.968      253.783      168.017        0.193        0.045       54.357        9.068        0.028      329.284       -4.078      869.719
12/29/2013  05:21:00       42.362       43.893       -0.567       24.588       15.882       13.869      604.561      252.249      192.353        0.239        0.052       61.001       10.922        0.032      329.297       -4.058      869.732
12/29/2013  05:22:00       17.665       31.162        1.921       19.520       20.356       15.279      381.049      414.368      233.448        0.116        0.051       35.820       13.003        0.132      329.378       -3.926      869.736
12/29/2013  05:23:00       23.382       35.423       -4.805       12.031       15.879       11.645      144.748      252.130      135.609        0.118        0.027       42.444        8.914        0.044      329.490       -3.741      869.750
12/29/2013  05:24:00        4.166       19.472       -6.335        7.752       13.653        7.444       60.094      186.417       55.419        0.037        0.015       19.913        5.716        0.082      329.572       -3.608      869.766
12/29/2013  05:25:00       11.623       44.888       -6.571        7.961        8.451        5.865       63.379       71.414       34.395        0.118        0.008       46.368        4.216        0.008      329.649       -3.478      869.784
12/29/2013  05:26:00      -19.981       49.423       -6.663       33.280       24.357       13.369     1107.574      593.272      178.733        0.238        0.094       53.309       10.554        0.039      329.473       -3.770      869.804
12/29/2013  05:27:00      -37.090        4.020      -10.994       21.242       21.577        9.351      451.237      465.586       87.433        0.126        0.050       37.307       10.841        0.084      329.519       -3.693      869.823
12/29/2013  05:28:00      -61.097        2.746       -7.317       15.732       18.115       13.129      247.505      328.171      172.380        0.227        0.037       61.159       10.502        0.029      329.521       -3.690      869.833
12/29/2013  05:29:00      -66.150        9.801       -5.892       13.919       13.196       15.119      193.752      174.139      228.573        0.255        0.030       66.872       11.800        0.031      329.547       -3.649      869.847
12/29/2013  05:30:00      -46.245        4.533       -7.083       35.745       16.851       12.513     1277.676      283.943      156.575        0.196        0.086       46.466       14.926        0.103      329.629       -3.513      869.862
12/29/2013  05:31:00      -44.635      -14.900       -2.490       19.174       16.354       10.512      367.642      267.441      110.494        0.148        0.037       47.056        9.070        0.037      329.543       -3.656      869.877
12/29/2013  05:32:00      -92.039      -12.242      -12.710       33.640       14.572       12.834     1131.671      212.353      164.701        0.515        0.075       92.850       12.697        0.019      329.585       -3.586      869.885
12/29/2013  05:33:00     -123.901      -28.377      -12.628       17.880       28.065       15.622      319.694      787.638      244.039        0.883        0.068      127.109       13.882        0.012      329.588       -3.582      869.863
12/29/2013  05:34:00      -50.849      -42.439        2.555       43.690       21.606       16.351     1908.822      466.836      267.360        0.352        0.132       66.232       20.959        0.100      329.611       -3.544      869.849
12/29/2013  05:35:00      -42.754      -40.595        5.269       36.593       18.485       19.028     1339.082      341.696      362.062        0.277        0.102       58.957       17.698        0.090      329.565       -3.619      869.844
12/29/2013  05:36:00      -59.879      -51.267        0.526       45.249       33.229       27.516     2047.466     1104.174      757.148        0.506        0.195       78.828       27.433        0.121      329.606       -3.552      869.835
12/29/2013  05:37:00      -61.582      -44.317        9.991       52.991       36.884       24.427     2808.027     1360.455      596.690        0.531        0.238       75.870       20.714        0.075      329.652       -3.477      869.840
12/29/2013  05:38:00      -94.915      -65.689        4.128       44.688       39.130       25.068     1997.019     1531.192      628.384        0.875        0.208      115.429       18.284        0.025      329.607       -3.551      869.846
12/29/2013  05:39:00     -102.711      -65.202       -0.095       41.459       45.777       28.995     1718.837     2095.541      840.696        0.973        0.233      121.659       24.389        0.040      329.620       -3.529      869.858
12/29/2013  05:40:00     -113.642      -77.434       -6.462       29.691       45.649       20.915      881.527     2083.829      437.418        1.118        0.170      137.516       16.444        0.014      329.639       -3.497      869.869
12/29/2013  05:41:00      -44.678      -18.047        7.481       32.003       27.863       18.465     1024.180      776.330      340.953        0.226        0.107       48.185       13.598        0.080      329.592       -3.575      869.882
12/29/2013  05:42:00      -86.615      -33.004        5.639       53.067       22.111       18.202     2816.074      488.902      331.310        0.613        0.182       92.690       17.879        0.037      329.505       -3.717      869.890
12/29/2013  05:43:00      -90.112      -37.980        3.960       30.875       27.223       18.609      953.249      741.107      346.304        0.581        0.102       97.789       14.401        0.022      329.548       -3.646      869.895
12/29/2013  05:44:00      -87.237      -53.643        5.462       57.124       33.949       24.055     3263.103     1152.530      578.632        0.776        0.250      102.411       24.768        0.058      329.593       -3.574      869.899
12/29/2013  05:45:00      -85.923      -57.726        3.309       36.443       25.160       19.517     1328.079      633.047      380.918        0.653        0.117      103.513       12.612        0.015      329.631       -3.511      869.903
12/29/2013  05:46:00      -63.546      -57.787       -0.150       46.529       25.889       22.896     2164.964      670.251      524.242        0.537        0.168       85.892       21.741        0.064      329.668       -3.450      869.896
12/29/2013  05:47:00      -89.627      -78.560        0.091       43.401       25.365       23.782     1883.605      643.363      565.583        0.865        0.155      119.183       26.151        0.048      329.826       -3.193      869.887
12/29/2013  05:48:00     -105.883      -94.446       -6.622       30.221       31.544       20.103      913.318      995.052      404.145        1.124        0.116      141.885       12.939        0.008      329.833       -3.180      869.884
12/29/2013  05:49:00      -99.269      -83.903        0.005       36.914       32.031       17.976     1362.614     1026.015      323.131        0.980        0.136      129.977       11.419        0.008      329.845       -3.161      869.891
12/29/2013  05:50:00      -85.133      -42.379        0.857       46.327       30.270       22.572     2146.153      916.263      509.502        0.631        0.179       95.097       19.728        0.043      329.726       -3.356      869.912
12/29/2013  05:51:00      -84.923      -45.739       -3.071       38.327       23.420       14.107     1468.992      548.501      199.004        0.576        0.111       96.457        9.399        0.009      329.746       -3.321      869.943
12/29/2013  05:52:00     -101.114      -40.631       -9.527       22.174       21.255       15.653      491.681      451.795      245.022        0.658        0.059      108.972        4.950        0.002      329.737       -3.338      869.963
12/29/2013  05:53:00      -93.853      -27.457       -4.197       19.731       20.097       13.542      389.297      403.879      183.380        0.528        0.049       97.787       11.495        0.014      329.645       -3.491      869.961
12/29/2013  05:54:00      -92.142      -43.138       -1.455       26.779       18.926       11.902      717.107      358.199      141.651        0.578        0.061      101.740       10.903        0.011      329.526       -3.684      869.947
12/29/2013  05:55:00      -50.446      -38.602        1.760       46.921       21.066       17.216     2201.564      443.767      296.388        0.349        0.147       63.521       20.625        0.105      329.538       -3.663      869.914
12/29/2013  05:56:00      -43.403      -49.536        9.408       40.160       33.413       22.387     1612.789     1116.460      501.168        0.383        0.162       65.861       20.134        0.093      329.517       -3.698      869.890
12/29/2013  05:57:00      -71.308      -80.788        4.883       46.116       32.104       29.547     2126.685     1030.651      873.010        0.783        0.202      107.757       23.812        0.049      329.564       -3.620      869.870
12/29/2013  05:58:00      -55.947      -71.138        1.092       46.439       37.751       31.601     2156.591     1425.128      998.617        0.639        0.229       90.503       29.937        0.109      329.608       -3.549      869.863
12/29/2013  05:59:00     -112.060      -68.293       -3.442       49.930       38.766       26.749     2492.966     1502.787      715.499        1.097        0.236      131.230       27.164        0.043      329.452       -3.804      869.862
12/29/2013  06:00:00     -140.206      -91.934      -11.159       44.814       42.672       21.963     2008.268     1820.864      482.383        1.627        0.216      167.659       21.099        0.016      329.439       -3.826      869.869
12/29/2013  06:01:00     -163.350     -105.904       -7.428       40.703       36.831       30.798     1656.756     1356.523      948.524        2.096        0.198      194.676       21.365        0.012      329.288       -4.073      869.873
12/29/2013  06:02:00     -134.852     -114.923       -4.158       43.293       34.919       30.738     1874.294     1219.340      944.828        1.772        0.202      177.179       24.299        0.019      329.247       -4.140      869.872
12/29/2013  06:03:00     -103.284     -106.592       -5.796       48.231       43.338       35.568     2326.214     1878.159     1265.090        1.377        0.273      148.423       30.647        0.043      329.180       -4.249      869.859
12/29/2013  06:04:00      -97.194     -103.043       -7.098       31.666       30.662       16.040     1002.735      940.138      257.268        1.116        0.110      141.650       15.284        0.012      329.262       -4.115      869.842
12/29/2013  06:05:00      -79.205      -97.104        1.955       33.629       32.742       26.675     1130.899     1072.015      711.559        0.931        0.146      125.310       28.277        0.051      329.265       -4.110      869.843
12/29/2013  06:06:00      -89.424      -91.633       -8.019       36.417       27.754       19.004     1326.176      770.283      361.155        0.946        0.123      128.036       24.458        0.036      329.207       -4.204      869.846
12/29/2013  06:07:00      -81.019      -94.751       -9.701       21.164       28.712       15.585      447.910      824.373      242.892        0.858        0.076      124.667       13.456        0.012      329.165       -4.272      869.848
12/29/2013  06:08:00      -84.768      -87.077       -4.068       26.707       27.409       19.161      713.269      751.272      367.140        0.831        0.092      121.524       15.111        0.015      329.148       -4.301      869.855
12/29/2013  06:09:00      -56.736      -46.742        4.682       35.214       45.035       21.813     1240.007     2028.194      475.805        0.458        0.187       73.510       21.747        0.088      329.192       -4.229      869.851
12/29/2013  06:10:00      -56.846      -53.680        6.609       40.882       34.675       24.914     1671.311     1202.330      620.700        0.482        0.175       78.185       27.909        0.127      329.183       -4.245      869.845
12/29/2013  06:11:00      -39.597      -34.571        5.557       41.751       29.212       26.131     1743.128      853.315      682.847        0.304        0.164       52.565       19.426        0.137      329.161       -4.280      869.833
12/29/2013  06:12:00      -20.089      -33.573       11.550       32.470       29.766       21.400     1054.327      886.023      457.953        0.203        0.120       39.124       19.599        0.251      329.177       -4.255      869.840
12/29/2013  06:13:00      -51.683      -35.091        9.893       43.016       27.732       21.351     1850.345      769.046      455.871        0.354        0.154       62.470       21.248        0.116      329.121       -4.345      869.848
12/29/2013  06:14:00      -82.254      -46.706        4.129       49.939       32.670       21.396     2493.929     1067.320      457.789        0.649        0.201       94.589       22.100        0.055      329.087       -4.401      869.844
12/29/2013  06:15:00      -86.891      -55.527        2.919       63.317       41.228       27.816     4009.020     1699.756      773.751        0.856        0.324      103.118       34.254        0.110      329.059       -4.447      869.844
12/29/2013  06:16:00      -86.932      -65.380        3.192       37.006       30.327       23.449     1369.446      919.724      549.879        0.734        0.142      108.774       14.457        0.018      329.062       -4.441      869.853
12/29/2013  06:17:00      -79.389      -41.589        0.504       35.324       47.466       19.688     1247.768     2252.983      387.605        0.596        0.194       89.622       21.129        0.056      329.058       -4.447      869.868
12/29/2013  06:18:00      -65.691      -57.599        1.747       47.185       30.450       26.088     2226.380      927.176      680.600        0.573        0.192       87.367       25.781        0.087      329.088       -4.398      869.883
12/29/2013  06:19:00      -73.893      -29.015       -0.037       43.996       32.476       25.049     1935.675     1054.692      627.440        0.496        0.181       79.385       19.753        0.062      329.172       -4.262      869.886
12/29/2013  06:20:00     -105.397      -33.074       -2.106       48.456       31.097       20.155     2347.983      967.052      406.234        0.796        0.186      110.465       16.968        0.024      329.096       -4.385      869.867
12/29/2013  06:21:00     -133.253      -23.698      -14.884       26.469       24.340       20.996      700.594      592.442      440.827        1.014        0.087      135.344       16.069        0.014      329.060       -4.444      869.834
12/29/2013  06:22:00     -152.598      -44.306       -8.210       23.286       19.169       16.990      542.255      367.450      288.644        1.326        0.060      158.900       12.792        0.006      329.074       -4.421      869.812
12/29/2013  06:23:00      -98.254      -61.057        1.839       37.021       23.761       18.310     1370.584      564.593      335.271        0.783        0.114      115.680       19.495        0.028      329.086       -4.403      869.811
12/29/2013  06:24:00      -90.238      -39.892       -3.120       30.902       23.034       19.454      954.946      530.575      378.455        0.580        0.093       98.663       18.592        0.036      329.126       -4.337      869.811
12/29/2013  06:25:00      -59.261      -28.537        2.029       35.618       20.310       14.351     1268.610      412.496      205.943        0.311        0.094       65.774       17.487        0.071      329.115       -4.354      869.804
12/29/2013  06:26:00      -27.476      -15.327        0.861       28.507       16.189       15.078      812.646      262.072      227.359        0.115        0.065       31.462       14.628        0.216      329.173       -4.260      869.798
12/29/2013  06:27:00      -35.280      -28.049        2.880       28.442       17.454       13.594      808.956      304.643      184.784        0.167        0.065       45.072       10.637        0.056      329.207       -4.205      869.801
12/29/2013  06:28:00      -60.346      -30.804       -1.631       18.701       14.830        8.723      349.719      219.934       76.087        0.262        0.032       67.754        8.374        0.015      329.208       -4.203      869.808
12/29/2013  06:29:00       -4.138      -15.873       10.767       24.975       18.637       10.486      623.770      347.353      109.961        0.073        0.054       16.404        9.489        0.335      329.284       -4.078      869.828
12/29/2013  06:30:00      -23.418      -19.015        8.317       34.881       17.201       11.389     1216.661      295.885      129.718        0.131        0.082       30.166       12.432        0.170      329.237       -4.155      869.852
12/29/2013  06:31:00      -23.481      -17.660        3.792       25.322       19.304       14.136      641.224      372.655      199.841        0.105        0.061       29.381       13.051        0.197      329.243       -4.146      869.872
12/29/2013  06:32:00      -51.522      -27.019        5.663       29.106       19.526       17.663      847.150      381.264      311.971        0.248        0.077       58.177       14.584        0.063      329.080       -4.411      869.897
12/29/2013  06:33:00      -83.426      -13.853       -6.428       14.133       15.226       10.495      199.745      231.845      110.142        0.387        0.027       84.568        8.446        0.010      329.078       -4.413      869.917
12/29/2013  06:34:00      -78.638        1.368       -8.116        9.334        9.565       11.812       87.124       91.488      139.528        0.328        0.016       78.650        3.463        0.002      329.071       -4.427      869.929
12/29/2013  06:35:00      -61.569       -8.390       -8.738        8.488        9.382        8.295       72.052       88.031       68.800        0.208        0.011       62.138        3.470        0.003      329.050       -4.462      869.937
12/29/2013  06:36:00      -62.204      -25.002      -12.670        9.125       12.464        8.316       83.264      155.358       69.154        0.248        0.015       67.040        1.615        0.001      329.040       -4.477      869.932
12/29/2013  06:37:00      -44.830      -13.047      -10.486        9.809        8.626        8.240       96.223       74.407       67.905        0.126        0.012       46.690        2.225        0.002      329.077       -4.418      869.931
12/29/2013  06:38:00      -27.190       -6.326       -5.721        9.324        6.687        7.882       86.928       44.722       62.122        0.050        0.010       27.916        7.379        0.070      329.178       -4.253      869.921
12/29/2013  06:39:00       -3.838      -17.952        2.395       10.223        7.130        7.128      104.509       50.842       50.803        0.027        0.010       18.357        3.870        0.044      329.276       -4.091      869.905
12/29/2013  06:40:00      -30.715      -16.281       -4.745       13.795        8.678        8.605      190.306       75.312       74.050        0.079        0.017       34.763        8.614        0.061      329.217       -4.188      869.904
12/29/2013  06:41:00      -43.933      -22.331       -2.148       17.023        9.997       11.737      289.769       99.945      137.769        0.148        0.026       49.282        4.307        0.008      329.085       -4.403      869.921
12/29/2013  06:42:00      -51.864       -8.786       -4.375        7.220        9.407       10.536       52.129       88.495      111.007        0.152        0.013       52.603        6.603        0.016      329.022       -4.505      869.956
12/29/2013  06:43:00      -41.836       -7.179       -4.764       10.481        9.264        9.447      109.848       85.822       89.238        0.105        0.014       42.448        6.014        0.020      329.012       -4.521      869.993
12/29/2013  06:44:00      -82.328        1.380      -11.999       13.950        9.969        8.707      194.611       99.388       75.803        0.365        0.018       82.340        4.859        0.003      329.033       -4.488      870.014
12/29/2013  06:45:00      -77.522        4.675      -13.353       14.508       10.842        9.099      210.477      117.556       82.783        0.331        0.021       77.662        8.089        0.011      329.065       -4.436      870.038
12/29/2013  06:46:00      -64.713       18.999      -17.439        9.698        9.941        8.046       94.055       98.824       64.742        0.256        0.013       67.444        4.387        0.004      329.085       -4.404      870.049
12/29/2013  06:47:00      -12.016       31.230        1.725       26.144       24.056       15.166      683.484      578.709      230.008        0.131        0.075       33.462       15.120        0.204      329.228       -4.170      870.061
12/29/2013  06:48:00       14.810       21.076        7.733       17.275       27.407       13.327      298.428      751.170      177.603        0.098        0.061       25.759       14.926        0.336      329.369       -3.940      870.083
12/29/2013  06:49:00      -31.889       31.576       -0.656       21.602       16.812       14.588      466.630      282.655      212.801        0.149        0.048       44.877       14.318        0.102      329.374       -3.935      870.102
12/29/2013  06:50:00      -23.129       -7.425       -2.766        8.248        9.821       10.729       68.037       96.450      115.101        0.044        0.014       24.292        7.682        0.100      329.235       -4.159      870.115
12/29/2013  06:51:00      -33.091      -13.142       -4.041       13.347        9.401        9.375      178.152       88.386       87.886        0.082        0.018       35.605        4.502        0.016      329.184       -4.245      870.118
12/29/2013  06:52:00      -43.650      -21.840      -10.807       11.297        8.864        7.339      127.618       78.568       53.856        0.138        0.013       48.809        4.847        0.010      329.052       -4.458      870.126
12/29/2013  06:53:00      -55.866       -2.945       -9.279        7.599       10.019        7.327       57.752      100.380       53.679        0.171        0.011       55.944        4.706        0.007      328.974       -4.585      870.124
12/29/2013  06:54:00      -37.933        9.916       -3.753       17.520       21.444       11.369      306.947      459.834      129.263        0.122        0.045       39.208       10.256        0.068      329.239       -4.152      870.134
12/29/2013  06:55:00        7.299       39.094       -5.576       19.136       16.228       11.475      366.188      263.353      131.677        0.119        0.038       39.770       11.169        0.079      329.484       -3.753      870.135
12/29/2013  06:56:00       12.261       34.562       -3.964       10.712        8.214        7.366      114.739       67.467       54.253        0.080        0.012       36.673        5.441        0.022      329.528       -3.681      870.156
12/29/2013  06:57:00       15.149       20.329       -2.304       13.844       10.057        6.549      191.644      101.149       42.889        0.049        0.017       25.353        5.161        0.041      329.537       -3.663      870.182
12/29/2013  06:58:00       10.129       23.153       -4.864        7.048        7.698        4.194       49.673       59.253       17.589        0.039        0.006       25.272        3.439        0.019      329.581       -3.593      870.202
12/29/2013  06:59:00       -1.321       26.816       -8.144       13.292       11.601        5.525      176.690      134.585       30.524        0.056        0.017       26.849        6.628        0.061      329.660       -3.464      870.210
12/29/2013  07:00:00      -11.169       16.143       -2.427       11.902       20.218        9.153      141.654      408.754       83.775        0.051        0.032       19.630        8.726        0.198      329.544       -3.653      870.211
12/29/2013  07:01:00      -17.051       -0.461        7.130        8.655        8.957        7.987       74.907       80.227       63.788        0.028        0.011       17.058        2.598        0.023      329.288       -4.073      870.215
12/29/2013  07:02:00       -5.254      -17.143        2.162       18.834       14.472        7.303      354.724      209.429       53.339        0.047        0.031       17.930        6.597        0.135      329.349       -3.972      870.217
12/29/2013  07:03:00       12.645        7.671       11.816       11.903       11.795        9.868      141.673      139.124       97.378        0.037        0.019       14.790        8.264        0.312      329.532       -3.673      870.211
12/29/2013  07:04:00       -3.586        1.938        9.832        3.882        6.521        5.527       15.070       42.526       30.543        0.010        0.004        4.076        1.244        0.093      329.465       -3.784      870.194
12/29/2013  07:05:00      -17.793       -6.763        7.365       14.466        9.207        7.187      209.265       84.772       51.657        0.038        0.017       19.035        8.372        0.193      329.376       -3.929      870.186
12/29/2013  07:06:00      -34.907       -5.807       -2.541        8.102        7.319        5.853       65.649       53.568       34.260        0.071        0.008       35.387        4.010        0.013      329.217       -4.187      870.193
12/29/2013  07:07:00      -53.133      -13.434       -8.500       10.709        6.272        5.912      114.684       39.339       34.951        0.163        0.009       54.805        3.809        0.005      329.160       -4.282      870.199
12/29/2013  07:08:00      -69.837      -22.900       -7.675        8.447        9.816        6.516       71.351       96.361       42.465        0.284        0.011       73.496        3.882        0.003      329.082       -4.410      870.200
12/29/2013  07:09:00      -65.836      -21.742       -6.488       10.029       11.274        7.755      100.576      127.107       60.144        0.257        0.014       69.333        5.487        0.006      329.058       -4.448      870.199
12/29/2013  07:10:00      -56.876      -28.337       -6.654       11.509        9.307        8.020      132.465       86.617       64.313        0.218        0.014       63.545        6.161        0.009      329.145       -4.306      870.190
12/29/2013  07:11:00      -50.976      -16.512       -3.257       11.205        9.279        7.775      125.550       86.092       60.451        0.158        0.014       53.584        6.977        0.017      329.126       -4.336      870.188
12/29/2013  07:12:00      -47.772      -16.124       -4.304       10.530       13.138       10.379      110.884      172.599      107.734        0.148        0.020       50.420        8.568        0.029      329.146       -4.305      870.193
12/29/2013  07:13:00      -56.967      -32.538       -9.915        8.196        6.444        6.354       67.180       41.528       40.378        0.228        0.007       65.604        1.478        0.001      329.219       -4.184      870.203
12/29/2013  07:14:00      -44.574      -17.181       -3.944       13.202        7.170        7.825      174.304       51.405       61.233        0.129        0.014       47.771        6.089        0.016      329.117       -4.352      870.223
12/29/2013  07:15:00      -11.415      -13.231       -2.564       11.630        5.633        5.410      135.249       31.727       29.265        0.025        0.010       17.475        4.703        0.072      329.175       -4.259      870.247
12/29/2013  07:16:00       -4.769      -27.387        2.228        6.328        8.284        7.424       40.049       68.616       55.115        0.047        0.008       27.799        2.791        0.010      329.422       -3.855      870.262
12/29/2013  07:17:00      -13.128      -16.363        5.295        8.323       10.525        8.121       69.278      110.782       65.947        0.036        0.012       20.979        7.677        0.134      329.351       -3.969      870.279
12/29/2013  07:18:00      -31.671      -16.264        2.593       11.932        5.827        8.985      142.374       33.956       80.735        0.077        0.013       35.603        4.250        0.014      329.420       -3.855      870.293
12/29/2013  07:19:00      -25.257      -21.284        4.403       12.608       11.247        8.979      158.956      126.498       80.630        0.074        0.018       33.029        8.134        0.061      329.410       -3.874      870.305
12/29/2013  07:20:00      -16.518       -6.219        6.994       12.271       12.048        9.294      150.588      145.148       86.382        0.037        0.019       17.650        7.856        0.198      329.348       -3.974      870.318
12/29/2013  07:21:00       -4.622        4.515       23.328        7.481       16.628        8.198       55.961      276.497       67.210        0.049        0.020        6.461        3.616        0.313      329.365       -3.946      870.325
12/29/2013  07:22:00      -11.263        6.492       15.607        8.546        9.597        7.473       73.033       92.096       55.852        0.032        0.011       13.000        5.684        0.191      329.292       -4.066      870.330
12/29/2013  07:23:00      -34.203       -6.029        4.586       13.118       12.137       12.940      172.073      147.299      167.450        0.086        0.024       34.730       12.609        0.132      329.159       -4.284      870.334
12/29/2013  07:24:00      -62.318      -19.630       -7.939       19.342       15.868       10.394      374.115      251.791      108.034        0.253        0.037       65.337        8.907        0.019      329.031       -4.492      870.325
12/29/2013  07:25:00      -63.898      -45.552       -0.503       28.273       20.213       17.011      799.355      408.584      289.364        0.383        0.075       78.473        9.732        0.015      328.998       -4.546      870.292
12/29/2013  07:26:00      -83.546      -58.507       -0.592       44.688       32.294       20.033     1997.051     1042.899      401.331        0.692        0.172      101.995       20.442        0.040      329.091       -4.392      870.250
12/29/2013  07:27:00     -107.304      -63.804        0.531       54.074       41.572       28.115     2923.947     1728.272      790.465        1.051        0.272      124.840       20.588        0.027      329.006       -4.533      870.211
12/29/2013  07:28:00     -103.401      -68.448        6.244       54.129       37.710       34.096     2929.937     1422.018     1162.567        1.046        0.276      124.003       31.094        0.063      328.952       -4.620      870.194
12/29/2013  07:29:00     -136.281      -98.245       -4.550       41.925       28.818       23.867     1757.700      830.467      569.652        1.570        0.158      168.002       23.119        0.019      328.908       -4.694      870.181
12/29/2013  07:30:00      -98.727      -94.791       -3.510       38.401       35.169       21.566     1474.650     1236.858      465.101        1.096        0.159      136.866       16.913        0.015      328.947       -4.628      870.178
12/29/2013  07:31:00      -77.549      -81.147       -2.078       42.793       37.812       21.779     1831.236     1429.723      474.316        0.817        0.187      112.244       18.685        0.028      328.964       -4.602      870.187
12/29/2013  07:32:00      -75.386      -57.584       -2.182       41.070       34.476       19.393     1686.714     1188.598      376.084        0.613        0.163       94.863       23.260        0.060      328.936       -4.646      870.206
12/29/2013  07:33:00      -41.934      -38.059       12.226       33.532       19.818       16.698     1124.414      392.764      278.810        0.258        0.090       56.630       16.772        0.088      328.982       -4.571      870.224
12/29/2013  07:34:00      -33.934      -26.101        4.006       25.327       14.718       16.085      641.464      216.617      258.717        0.148        0.056       42.811       16.503        0.149      328.983       -4.571      870.245
12/29/2013  07:35:00      -75.056       -4.955       -6.240       28.291       12.296       12.367      800.398      151.187      152.950        0.340        0.055       75.220       14.692        0.038      328.918       -4.677      870.266
12/29/2013  07:36:00      -92.483       -6.086      -11.227       19.769       16.042       13.327      390.833      257.361      177.621        0.477        0.041       92.683       12.033        0.017      328.896       -4.713      870.295
12/29/2013  07:37:00     -107.738      -16.433       -8.349       26.507       23.716       15.638      702.615      562.436      244.548        0.673        0.075      108.984       13.988        0.016      328.879       -4.739      870.323
12/29/2013  07:38:00     -133.721      -32.255      -10.536       18.261       21.251       12.430      333.449      451.616      154.496        0.999        0.047      137.556        6.750        0.002      328.855       -4.778      870.357
12/29/2013  07:39:00     -119.225      -37.896       -6.952       24.767       24.935       14.513      613.407      621.779      210.640        0.857        0.072      125.103       12.960        0.011      328.932       -4.654      870.392
12/29/2013  07:40:00     -108.762      -18.877      -16.248       27.251       23.147       16.801      742.623      535.778      282.283        0.700        0.078      110.388       12.328        0.012      328.917       -4.677      870.409
12/29/2013  07:41:00      -57.797      -37.285        2.193       24.501       18.621       17.635      600.314      346.737      310.988        0.300        0.063       68.780       13.136        0.036      329.004       -4.536      870.405
12/29/2013  07:42:00      -57.584      -28.279       -0.780       16.966       16.577       15.172      287.858      274.797      230.198        0.245        0.040       64.153       12.058        0.035      329.059       -4.447      870.398
12/29/2013  07:43:00      -54.417      -35.887       -3.460       26.526       21.653       13.511      703.622      468.846      182.555        0.281        0.068       65.185        7.670        0.014      329.092       -4.391      870.403
12/29/2013  07:44:00      -61.193      -22.343       -5.021       12.696       12.234        7.859      161.181      149.667       61.769        0.232        0.019       65.144        4.938        0.006      329.123       -4.342      870.413
12/29/2013  07:45:00      -68.256      -31.300      -10.717       12.887       14.665       10.228      166.079      215.055      104.612        0.312        0.024       75.090        9.475        0.016      329.121       -4.343      870.417
12/29/2013  07:46:00      -82.153      -23.525       -5.373       15.283       21.483       12.863      233.563      461.503      165.466        0.410        0.043       85.455       11.515        0.018      329.125       -4.338      870.399
12/29/2013  07:47:00      -62.981      -30.363       -9.441       13.291       12.294       10.161      176.662      151.133      103.251        0.270        0.022       69.918        7.901        0.013      329.107       -4.367      870.377
12/29/2013  07:48:00      -83.140      -11.560       -5.833       22.599       12.089       10.183      510.708      146.144      103.703        0.392        0.038       83.940       10.516        0.016      329.163       -4.277      870.364
12/29/2013  07:49:00      -78.058      -37.421       -4.896       20.140       15.891       14.155      405.636      252.532      200.367        0.419        0.043       86.564       11.144        0.017      329.134       -4.324      870.351
12/29/2013  07:50:00      -79.664      -28.290       -7.928       10.451       12.700        7.179      109.229      161.282       51.534        0.377        0.016       84.538        5.751        0.005      329.159       -4.284      870.345
12/29/2013  07:51:00      -89.903      -12.575      -12.006        7.210        8.949        6.714       51.986       80.077       45.079        0.428        0.009       90.778        2.894        0.001      329.288       -4.072      870.359
12/29/2013  07:52:00      -76.420      -18.421       -8.980       16.395        8.409        7.539      268.795       70.706       56.830        0.333        0.020       78.609        5.468        0.005      329.402       -3.884      870.362
12/29/2013  07:53:00      -52.989      -14.594       -2.267        8.450        7.334        5.885       71.410       53.789       34.632        0.159        0.008       54.962        3.052        0.003      329.461       -3.788      870.357
12/29/2013  07:54:00      -56.343      -12.028       -7.889        6.867        6.403        3.875       47.160       41.000       15.016        0.174        0.005       57.613        3.008        0.003      329.552       -3.639      870.356
12/29/2013  07:55:00      -56.512      -11.887       -7.694        7.624        6.683        5.336       58.118       44.659       28.477        0.176        0.007       57.748        3.911        0.005      329.577       -3.600      870.346
12/29/2013  07:56:00      -56.492      -22.927      -10.817        5.711        5.441        5.853       32.613       29.609       34.258        0.197        0.005       60.968        2.550        0.002      329.573       -3.605      870.342
12/29/2013  07:57:00      -58.046      -29.848       -6.544        7.189        7.429        5.712       51.686       55.194       32.627        0.222        0.007       65.271        3.774        0.003      329.588       -3.580      870.320
12/29/2013  07:58:00      -49.839      -30.394       -7.221        6.212        4.619        4.083       38.595       21.334       16.669        0.177        0.004       58.376        1.438        0.001      329.694       -3.409      870.285
12/29/2013  07:59:00      -45.018      -26.136       -5.056        5.957        5.325        4.008       35.486       28.355       16.063        0.141        0.004       52.055        2.475        0.002      329.757       -3.304      870.254
12/29/2013  08:00:00      -33.645      -17.001       -5.918        7.262        6.969        3.714       52.735       48.564       13.791        0.079        0.006       37.696        2.314        0.004      329.808       -3.221      870.237
12/29/2013  08:01:00      -21.768      -16.487       -0.852        5.843        3.478        3.720       34.146       12.100       13.836        0.040        0.003       27.307        3.157        0.013      329.940       -3.004      870.234
12/29/2013  08:02:00       -1.772        1.051        7.830        5.916        5.537        7.776       35.004       30.661       60.465        0.010        0.006        2.060        5.340        6.717      330.334       -2.360      870.244
12/29/2013  08:03:00       20.647       15.329       13.430       12.387        8.323        8.354      153.448       69.269       69.796        0.057        0.015       25.715        7.414        0.083      330.235       -2.524      870.270
12/29/2013  08:04:00       -4.293        7.373       18.235        5.926        8.466        7.202       35.123       71.673       51.868        0.028        0.008        8.532        5.464        0.410      330.524       -2.049      870.297
12/29/2013  08:05:00      -24.827       -3.745       13.006        9.763       12.473        8.062       95.312      155.575       64.991        0.056        0.016       25.108        8.385        0.112      330.070       -2.793      870.308
12/29/2013  08:06:00      -35.530      -10.275       -3.451        9.923        7.095        5.488       98.458       50.346       30.116        0.078        0.009       36.986        5.414        0.021      329.807       -3.222      870.297
12/29/2013  08:07:00      -46.115       -1.190       -5.843       11.312        6.320        5.406      127.971       39.947       29.226        0.118        0.010       46.131        3.273        0.005      329.611       -3.545      870.280
12/29/2013  08:08:00      -62.286       -3.589      -11.639       14.136       11.979       10.132      199.821      143.498      102.662        0.224        0.022       62.389        7.822        0.016      329.722       -3.363      870.262
12/29/2013  08:09:00      -52.242       -0.388        1.004       25.172       11.591       11.454      633.615      134.341      131.186        0.181        0.045       52.243       14.057        0.072      329.761       -3.297      870.263
12/29/2013  08:10:00      -65.985      -11.402       -4.086       19.982       15.933       10.442      399.280      253.857      109.042        0.263        0.038       66.963       11.513        0.030      329.763       -3.295      870.256
12/29/2013  08:11:00      -61.957      -15.217       -6.389       11.946       13.595        7.194      142.700      184.817       51.757        0.225        0.019       63.798        4.271        0.004      329.851       -3.151      870.237
12/29/2013  08:12:00      -38.949      -12.795       -5.104       10.141        9.035        7.295      102.847       81.631       53.213        0.097        0.012       40.997        5.711        0.019      329.942       -3.002      870.219
12/29/2013  08:13:00      -17.089       -4.239       -2.678       10.938        5.869        4.402      119.645       34.447       19.376        0.025        0.009       17.607        2.426        0.019      330.051       -2.823      870.213
12/29/2013  08:14:00      -10.740        4.579       12.335        9.047        6.377        9.225       81.846       40.663       85.109        0.025        0.010       11.675        3.243        0.077      330.388       -2.269      870.222
12/29/2013  08:15:00       -6.904        7.328       22.208        6.179        9.066        8.123       38.175       82.184       65.981        0.039        0.009       10.068        7.335        0.531      330.569       -1.973      870.229
12/29/2013  08:16:00        4.602       20.686       31.659       10.639       15.153        5.275      113.187      229.617       27.830        0.091        0.019       21.191        5.967        0.079      330.535       -2.030      870.227
12/29/2013  08:17:00      -10.482        4.168       21.569        8.283        7.687        7.658       68.606       59.091       58.639        0.039        0.009       11.280        5.030        0.199      330.665       -1.817      870.218
12/29/2013  08:18:00       -5.236        9.795       28.410        5.304       10.875        6.536       28.135      118.264       42.716        0.056        0.009       11.107        5.641        0.258      330.753       -1.673      870.207
12/29/2013  08:19:00       -6.053       23.373       36.717       11.268       14.229        7.086      126.966      202.471       50.218        0.116        0.019       24.144        5.960        0.061      330.563       -1.984      870.194
12/29/2013  08:20:00      -10.623       12.979       30.174        7.884       11.399       11.361       62.159      129.934      129.069        0.076        0.016       16.772        8.748        0.272      330.674       -1.802      870.188
12/29/2013  08:21:00       -5.280       -2.913       10.601        7.384        7.815       12.830       54.522       61.073      164.598        0.021        0.014        6.030        7.928        1.729      330.706       -1.750      870.182
12/29/2013  08:22:00       -9.097        4.824       23.018        9.427       11.936       12.980       88.876      142.473      168.478        0.052        0.020       10.297        8.646        0.705      330.804       -1.587      870.186
12/29/2013  08:23:00      -13.471        5.506       18.076       10.851       10.962       12.266      117.742      120.165      150.455        0.046        0.019       14.553        8.016        0.303      330.619       -1.893      870.178
12/29/2013  08:24:00      -27.735        9.050        7.185        8.944        9.410       10.666       79.994       88.540      113.769        0.059        0.014       29.175        7.905        0.073      330.383       -2.279      870.163
12/29/2013  08:25:00      -15.099        4.364        2.839        9.822        6.367        9.302       96.481       40.535       86.524        0.024        0.011       15.717        5.675        0.130      330.496       -2.094      870.132
12/29/2013  08:26:00      -41.568       -7.900       -4.164       10.213        9.472        6.980      104.303       89.716       48.717        0.103        0.012       42.312        4.078        0.009      330.196       -2.585      870.106
12/29/2013  08:27:00      -28.314       -0.215       -1.268        9.136       11.193        7.214       83.465      125.289       52.039        0.053        0.013       28.314        4.799        0.029      330.213       -2.559      870.098
12/29/2013  08:28:00      -28.028        0.178       -2.881       12.622       10.893       13.803      159.310      118.649      190.518        0.063        0.023       28.028        5.299        0.036      330.273       -2.460      870.090
12/29/2013  08:29:00      -12.481        9.212        4.762       15.900       10.171       13.261      252.813      103.442      175.850        0.040        0.027       15.512       10.882        0.492      330.533       -2.033      870.095
12/29/2013  08:30:00      -14.928       17.789       11.319       18.853        9.808       17.463      355.443       96.202      304.960        0.071        0.038       23.223       11.606        0.250      330.616       -1.897      870.098
12/29/2013  08:31:00      -17.281        1.755       -2.588       18.260       17.351       14.842      333.423      301.069      220.289        0.058        0.043       17.370        9.580        0.304      330.488       -2.107      870.110
12/29/2013  08:32:00      -47.108       -4.231       10.834       23.175       13.783       16.879      537.063      189.967      284.901        0.168        0.051       47.297       11.791        0.062      330.282       -2.446      870.124
12/29/2013  08:33:00      -56.015      -35.640        1.626       18.456       27.831       14.170      340.609      774.565      200.801        0.286        0.066       66.392       13.332        0.040      330.243       -2.508      870.141
12/29/2013  08:34:00      -65.530      -32.779       -2.491       23.051       19.095       14.123      531.356      364.618      199.469        0.323        0.055       73.271       11.579        0.025      330.251       -2.495      870.169
12/29/2013  08:35:00      -51.873      -23.402       -1.869       19.551       21.189       12.870      382.226      448.987      165.633        0.212        0.050       56.907        8.267        0.021      330.256       -2.487      870.208
12/29/2013  08:36:00      -25.289        1.435        2.288       23.961       12.712       10.578      574.108      161.589      111.902        0.075        0.042       25.329        8.646        0.117      330.490       -2.105      870.243
12/29/2013  08:37:00      -18.117        0.341        5.066       11.160        8.503       14.514      124.556       72.296      210.659        0.038        0.020       18.121       10.570        0.340      330.669       -1.811      870.273
12/29/2013  08:38:00      -24.897        5.207        1.906        6.323        4.491        6.499       39.974       20.173       42.241        0.038        0.005       25.435        3.476        0.019      330.388       -2.273      870.302
12/29/2013  08:39:00      -15.553       -1.010       -4.039       11.172        9.799        5.720      124.803       96.024       32.723        0.026        0.013       15.586        5.191        0.111      330.569       -1.976      870.323
12/29/2013  08:40:00      -12.823       -6.507        2.612        8.921        9.140        8.954       79.578       83.541       80.165        0.023        0.012       14.379        6.934        0.233      330.627       -1.880      870.341
12/29/2013  08:41:00      -35.511      -12.105       -5.566       12.779       10.503        8.478      163.295      110.321       71.883        0.089        0.017       37.517        7.126        0.036      330.495       -2.095      870.368
12/29/2013  08:42:00      -41.719      -12.401       -4.532        9.586        7.900        5.352       91.889       62.412       28.642        0.105        0.009       43.523        4.100        0.009      330.494       -2.096      870.388
12/29/2013  08:43:00      -29.209      -12.280       -2.639        8.630        6.067        6.656       74.476       36.812       44.303        0.058        0.008       31.685        3.927        0.015      330.560       -1.989      870.410
12/29/2013  08:44:00      -22.793      -11.095       -4.013       11.999        8.488        4.272      143.977       72.054       18.246        0.045        0.012       25.349        4.716        0.035      330.627       -1.879      870.427
12/29/2013  08:45:00       -0.409        4.872        5.003        6.469        5.567        9.925       41.842       30.996       98.512        0.011        0.009        4.890        4.761        0.948      331.086       -1.124      870.418
12/29/2013  08:46:00        5.204       24.878       37.644       13.969       17.042       12.865      195.134      290.414      165.504        0.136        0.033       25.416        9.117        0.129      331.253       -0.851      870.406
12/29/2013  08:47:00        8.670       24.570       35.176       12.565       13.329        7.682      157.876      177.661       59.008        0.116        0.020       26.055        4.444        0.029      331.262       -0.835      870.386
12/29/2013  08:48:00        1.663        5.313       41.634       13.219       21.096       12.083      174.746      445.048      146.002        0.126        0.038        5.567       10.929        3.855      331.552       -0.359      870.368
12/29/2013  08:49:00        4.776       10.574       48.112       18.621       42.235       27.386      346.735     1783.830      749.995        0.266        0.144       11.602       25.876        4.974      331.421       -0.574      870.360
12/29/2013  08:50:00       -6.639       55.952       71.361       18.320       31.543       15.901      335.625      994.949      252.836        0.492        0.079       56.345       17.818        0.100      331.177       -0.975      870.378
12/29/2013  08:51:00        0.355       63.891       70.953       22.065       29.712       19.174      486.866      882.791      367.651        0.543        0.087       63.892       13.626        0.045      331.079       -1.139      870.398
12/29/2013  08:52:00       38.569       45.933       53.436       31.339       23.107       21.568      982.115      533.929      465.190        0.422        0.099       59.978       17.183        0.082      331.030       -1.219      870.424
12/29/2013  08:53:00       51.881       51.354       29.300       30.998       20.524       29.302      960.894      421.248      858.618        0.421        0.112       72.999       17.991        0.061      330.835       -1.537      870.443
12/29/2013  08:54:00       58.723       57.605       47.250       39.546       30.036       25.990     1563.910      902.162      675.462        0.607        0.157       82.260       18.842        0.052      331.018       -1.238      870.463
12/29/2013  08:55:00       -2.476       46.884       60.184       27.182       33.646       29.679      738.885     1132.068      880.863        0.429        0.138       46.949       26.132        0.310      331.285       -0.798      870.488
12/29/2013  08:56:00       85.632       82.393       12.178       40.407       25.668       26.894     1632.747      658.838      723.280        0.864        0.151      118.833       27.026        0.052      330.955       -1.340      870.508
12/29/2013  08:57:00       67.418       70.439      -12.604       24.905       20.880       23.623      620.265      435.991      558.043        0.564        0.081       97.503       12.802        0.017      330.873       -1.475      870.513
12/29/2013  08:58:00       59.743       44.137       24.966       32.975       28.054       27.114     1087.351      787.033      735.147        0.437        0.130       74.279        9.521        0.016      331.128       -1.057      870.517
12/29/2013  08:59:00       28.718       30.031       36.956       26.898       24.910       22.069      723.480      620.514      487.035        0.246        0.092       41.552       13.249        0.102      331.335       -0.716      870.514
12/29/2013  09:00:00       52.890       58.089       38.453       28.001       23.367       26.393      784.036      546.019      696.613        0.484        0.101       78.560       14.387        0.034      331.066       -1.158      870.526
12/29/2013  09:01:00       34.951       44.765       13.899       23.219       13.499       20.496      539.133      182.215      420.104        0.228        0.057       56.794       13.431        0.056      330.843       -1.525      870.541
12/29/2013  09:02:00       52.433       22.339       21.521       28.393       26.859       30.088      806.147      721.394      905.277        0.307        0.122       56.994       15.680        0.076      331.026       -1.223      870.567
12/29/2013  09:03:00       43.061       44.035       44.678       18.568       26.461       20.730      344.786      700.203      429.739        0.363        0.074       61.590       13.185        0.046      331.099       -1.104      870.593
12/29/2013  09:04:00       23.998       35.011       46.858       39.705       31.627       17.746     1576.508     1000.238      314.908        0.344        0.145       42.446       12.923        0.093      331.562       -0.342      870.614
12/29/2013  09:05:00       -6.294      -10.071       39.793       16.953       40.612       22.938      287.421     1649.296      526.134        0.209        0.123       11.876       23.524        3.924      331.582       -0.310      870.624
12/29/2013  09:06:00       14.718       42.625       52.483       32.819       27.554       23.454     1077.074      759.237      550.108        0.359        0.119       45.094       18.982        0.177      331.426       -0.567      870.627
12/29/2013  09:07:00       44.431       35.004       10.512       30.507       23.366       24.470      930.704      545.974      598.758        0.269        0.104       56.563       18.614        0.108      331.350       -0.691      870.631
12/29/2013  09:08:00       69.233       46.444       -0.660       17.171       17.056       23.921      294.833      290.910      572.211        0.405        0.058       83.368       10.288        0.015      331.226       -0.896      870.630
12/29/2013  09:09:00       44.600       33.351        6.383       24.968       18.210       19.465      623.407      331.597      378.904        0.224        0.067       55.691       15.731        0.080      331.304       -0.767      870.634
12/29/2013  09:10:00       60.221       60.037      -13.362       31.847       22.590       19.698     1014.237      510.310      388.001        0.466        0.096       85.035       12.826        0.023      331.216       -0.911      870.628
12/29/2013  09:11:00       38.688       49.823       -4.628       34.637       28.316       19.943     1199.698      801.811      397.710        0.320        0.120       63.080       19.469        0.095      331.483       -0.473      870.625
12/29/2013  09:12:00       68.254       48.072        5.116       24.857       19.968       24.196      617.848      398.722      585.460        0.430        0.080       83.483       13.616        0.027      331.360       -0.676      870.627
12/29/2013  09:13:00       23.029       43.869        2.532       21.877       24.066       18.056      478.592      579.175      326.023        0.192        0.069       49.546       17.244        0.121      331.490       -0.461      870.630
12/29/2013  09:14:00       16.567       20.935       21.950       22.224       29.818       19.297      493.922      889.112      372.387        0.147        0.088       26.698       16.572        0.385      331.876        0.174      870.643
12/29/2013  09:15:00       31.776      -27.009       19.908       27.783       35.397       18.607      771.919     1252.929      346.205        0.225        0.119       41.703       12.908        0.096      331.743       -0.045      870.665
12/29/2013  09:16:00       30.412        8.672       32.040       24.832       38.668       20.373      616.625     1495.182      415.060        0.228        0.126       31.624       21.754        0.473      331.647       -0.202      870.683
12/29/2013  09:17:00       21.847       11.517       28.871       27.226       15.274       23.409      741.268      233.302      547.976        0.148        0.076       24.697       12.692        0.264      331.915        0.238      870.691
12/29/2013  09:18:00        7.640       14.899       32.410       20.456       21.130       14.061      418.457      446.485      197.713        0.120        0.053       16.743       10.705        0.409      332.074        0.500      870.692
12/29/2013  09:19:00       26.918        6.705       44.262       25.171       23.012       24.051      633.564      529.542      578.470        0.223        0.087       27.741       11.230        0.164      332.082        0.515      870.698
12/29/2013  09:20:00       13.262       49.945       65.090       27.928       39.883       22.314      779.958     1590.618      497.909        0.489        0.143       51.675       20.870        0.163      332.074        0.501      870.714
12/29/2013  09:21:00       12.264       45.296       58.232       26.515       34.190       24.406      703.040     1168.971      595.676        0.403        0.123       46.927       18.183        0.150      332.038        0.441      870.725
12/29/2013  09:22:00        1.011       62.093       83.052       21.458       39.999       20.725      460.433     1599.885      429.525        0.662        0.124       62.101       24.387        0.154      331.990        0.363      870.702
12/29/2013  09:23:00       18.915       89.354       96.022       39.487       41.528       22.435     1559.205     1724.602      503.332        1.067        0.189       91.334       23.669        0.067      331.643       -0.208      870.678
12/29/2013  09:24:00       40.402       47.900       61.815       36.140       45.899       36.287     1306.130     2106.749     1316.763        0.624        0.236       62.663       37.995        0.368      331.623       -0.243      870.668
12/29/2013  09:25:00       32.715       44.396       39.309       26.635       24.637       21.662      709.399      606.976      469.263        0.319        0.089       55.148       14.702        0.071      331.822        0.086      870.667
12/29/2013  09:26:00        8.800       43.530       70.783       27.015       34.370       20.603      729.835     1181.270      424.496        0.466        0.117       44.411       18.547        0.174      332.252        0.793      870.679
12/29/2013  09:27:00       22.000       12.846       47.274       26.214       34.216       21.033      687.189     1170.760      442.399        0.259        0.115       25.476       20.152        0.626      332.038        0.441      870.691
12/29/2013  09:28:00       21.466        6.709       43.759       21.753       24.889       20.606      473.188      619.486      424.591        0.197        0.076       22.490        8.180        0.132      332.295        0.866      870.695
12/29/2013  09:29:00        8.755       49.238       61.791       20.992       38.169       21.521      440.666     1456.908      463.167        0.434        0.118       50.010       16.423        0.108      332.244        0.781      870.700
12/29/2013  09:30:00       64.144       44.009       29.897       32.051       21.354       20.924     1027.252      456.011      437.826        0.443        0.096       77.790       15.606        0.040      331.778        0.013      870.696
12/29/2013  09:31:00       58.867       54.771       -4.597       14.794       13.309       23.243      218.868      177.118      540.231        0.371        0.047       80.406       12.068        0.023      331.557       -0.352      870.689
12/29/2013  09:32:00       39.815       52.171       29.137       20.631       19.551       29.822      425.651      382.248      889.335        0.343        0.085       65.628       16.266        0.061      331.851        0.133      870.694
12/29/2013  09:33:00       36.803       50.022       53.244       45.901       26.146       26.017     2106.858      683.594      676.886        0.508        0.173       62.102       22.016        0.126      331.941        0.280      870.710
12/29/2013  09:34:00       34.660       56.793       56.129       28.994       24.131       27.551      840.642      582.311      759.036        0.488        0.109       66.534       16.937        0.065      331.953        0.300      870.734
12/29/2013  09:35:00       65.723       61.272       39.199       27.609       17.023       24.096      762.273      289.784      580.597        0.562        0.082       89.854       11.961        0.018      331.795        0.040      870.750
12/29/2013  09:36:00       15.417       20.548       23.434       16.847       14.233       19.814      283.824      202.573      392.606        0.104        0.044       25.689        9.142        0.127      332.232        0.762      870.767
12/29/2013  09:37:00      -28.504      -10.796        3.713       21.570       17.808       17.631      465.265      317.124      310.848        0.102        0.055       30.480       15.180        0.248      332.093        0.531      870.769
12/29/2013  09:38:00      -27.266      -14.538        8.734       14.094       12.162       14.565      198.641      147.918      212.145        0.079        0.028       30.899        5.557        0.032      332.103        0.549      870.779
12/29/2013  09:39:00      -40.121      -10.233       -2.573       11.946       10.887        7.423      142.697      118.524       55.107        0.102        0.016       41.406        4.570        0.012      331.922        0.248      870.789
12/29/2013  09:40:00      -16.546        3.986        7.828       10.400       10.709       15.838      108.170      114.677      250.840        0.041        0.024       17.019        9.508        0.312      332.350        0.956      870.803
12/29/2013  09:41:00       -8.591       11.109       47.211       14.708       18.867       13.704      216.320      355.967      187.813        0.159        0.038       14.044       11.355        0.654      332.844        1.771      870.817
12/29/2013  09:42:00       -6.600       22.657       52.203       11.775       25.898       12.770      138.662      670.705      163.076        0.213        0.049       23.599       10.171        0.186      332.417        1.067      870.834
12/29/2013  09:43:00       56.508       53.557       27.307       37.739       22.572       26.455     1424.211      509.512      699.892        0.472        0.132       77.855       24.095        0.096      332.232        0.761      870.844
12/29/2013  09:44:00       69.839       41.327        2.817       26.856       21.696       23.548      721.243      470.736      554.523        0.417        0.087       81.150        6.270        0.006      332.018        0.407      870.876
12/29/2013  09:45:00       30.093       20.812       14.997       27.062       18.057       21.574      732.334      326.067      465.443        0.154        0.076       36.589       12.090        0.109      332.503        1.207      870.902
12/29/2013  09:46:00       65.591       49.767       -7.239       31.282       38.959       21.218      978.551     1517.826      450.215        0.489        0.147       82.335       19.984        0.059      332.285        0.849      870.913
12/29/2013  09:47:00       64.950       52.517        7.163       29.081       28.899       23.717      845.706      835.161      562.499        0.464        0.112       83.526       18.455        0.049      332.297        0.869      870.923
12/29/2013  09:48:00       74.717       53.944       -6.166       17.493       22.121       18.409      305.995      489.341      338.889        0.483        0.057       92.156        6.608        0.005      332.205        0.716      870.921
12/29/2013  09:49:00       60.744       62.492       15.822       39.012       26.269       25.522     1521.965      690.057      651.392        0.535        0.143       87.150       12.344        0.020      332.373        0.993      870.921
12/29/2013  09:50:00       34.377       31.932       15.246       28.578       28.254       20.290      816.678      798.313      411.665        0.223        0.101       46.919       12.803        0.074      332.514        1.227      870.917
12/29/2013  09:51:00      -19.575      -19.149       20.997       29.004       29.741       25.327      841.216      884.538      641.432        0.178        0.118       27.384       19.502        0.507      332.794        1.689      870.910
12/29/2013  09:52:00        2.179       12.642       43.577       16.550       27.332       20.507      273.918      747.063      420.530        0.175        0.072       12.828       16.320        1.619      332.785        1.674      870.906
12/29/2013  09:53:00        6.800       27.648       44.979       21.414       27.636       19.919      458.561      763.733      396.758        0.223        0.081       28.472       15.872        0.311      332.859        1.795      870.912
12/29/2013  09:54:00       27.504       32.111       41.361       32.974       28.539       23.895     1087.314      814.486      570.980        0.299        0.124       42.280        8.695        0.042      332.848        1.778      870.916
12/29/2013  09:55:00       27.018       57.701       35.330       25.511       24.702       32.967      650.821      610.179     1086.803        0.383        0.117       63.714       18.915        0.088      332.602        1.370      870.920
12/29/2013  09:56:00       44.785       55.258       13.021       23.715       21.352       32.004      562.395      455.915     1024.225        0.364        0.102       71.127       20.135        0.080      332.488        1.184      870.920
12/29/2013  09:57:00        2.464       50.360       76.944       24.451       35.224       20.016      597.858     1240.725      400.624        0.535        0.112       50.421       18.047        0.128      332.930        1.913      870.909
12/29/2013  09:58:00       91.275       71.681       22.007       35.545       22.388       33.928     1263.472      501.228     1151.136        0.843        0.146      116.058       17.686        0.023      332.511        1.221      870.909
12/29/2013  09:59:00       85.187       58.238       11.481       28.468       21.904       23.078      810.405      479.795      532.602        0.630        0.091      103.191       17.300        0.028      332.580        1.336      870.911
12/29/2013  10:00:00       74.109       63.233      -10.433       17.970       17.701       19.483      322.936      313.317      379.586        0.531        0.051       97.420       11.201        0.013      332.497        1.198      870.933
12/29/2013  10:01:00       21.513       47.238      -11.982       24.536       24.044       23.299      602.026      578.105      542.862        0.228        0.086       51.906       15.277        0.087      332.552        1.289      870.951
12/29/2013  10:02:00      -27.523       32.150      -12.321       21.939       22.775       21.740      481.302      518.690      472.644        0.171        0.074       42.322       17.279        0.167      332.682        1.504      870.955
12/29/2013  10:03:00      -22.837       -4.232        4.349       17.440       12.733       12.235      304.155      162.124      149.684        0.059        0.031       23.225        8.708        0.141      332.857        1.793      870.947
12/29/2013  10:04:00       79.791       25.712        0.505       44.191       35.671       25.719     1952.832     1272.392      661.475        0.546        0.194       83.831       28.697        0.117      333.011        2.047      870.936
12/29/2013  10:05:00       18.811       24.215        7.798       29.201       46.485       22.794      852.702     2160.844      519.579        0.227        0.177       30.663       21.748        0.503      333.386        2.666      870.937
12/29/2013  10:06:00       24.812       66.076        4.105       32.406       32.449       21.949     1050.122     1052.967      481.780        0.379        0.129       70.581       19.939        0.080      333.173        2.314      870.950
12/29/2013  10:07:00       69.221       35.703       13.873       21.003       29.692       30.554      441.115      881.620      933.562        0.426        0.113       77.886       15.228        0.038      332.834        1.755      870.966
12/29/2013  10:08:00        2.644       62.334       -1.802       31.269       30.031       17.007      977.729      901.859      289.236        0.303        0.108       62.390       18.182        0.085      332.971        1.981      870.990
12/29/2013  10:09:00       -6.317       40.860       23.599       23.110       29.215       30.525      534.060      853.531      931.765        0.229        0.116       41.345       20.623        0.249      333.307        2.536      871.001
12/29/2013  10:10:00       -6.978       25.441       60.689       11.781       24.359       13.881      138.790      593.361      192.676        0.265        0.046       26.381       12.377        0.220      333.516        2.881      871.007
12/29/2013  10:11:00       -6.848        3.491       27.876       18.229       14.988       19.236      332.303      224.650      370.031        0.088        0.046        7.686       14.302        3.462      333.591        3.007      871.001
12/29/2013  10:12:00      -11.809       -1.357       20.708       19.037       16.373       18.970      362.391      268.082      359.874        0.078        0.050       11.887       11.658        0.962      333.549        2.937      870.988
12/29/2013  10:13:00      -25.573       -5.198        5.314       14.116       13.595        8.436      199.276      184.826       71.158        0.058        0.023       26.096        2.542        0.009      333.118        2.224      870.973
12/29/2013  10:14:00      -30.386       -5.428        1.966       12.738       14.519        9.347      162.246      210.809       87.359        0.071        0.023       30.867        6.648        0.046      333.078        2.159      870.970
12/29/2013  10:15:00      -36.540      -42.741       -0.254       39.827       33.509       18.759     1586.209     1122.839      351.889        0.311        0.153       56.231       17.636        0.098      333.051        2.114      870.972
12/29/2013  10:16:00      -47.639      -30.037       -2.079       22.488       17.380       13.198      505.721      302.062      174.186        0.208        0.049       56.318        7.059        0.016      332.981        1.997      870.973
12/29/2013  10:17:00      -66.574      -36.582       -1.453       44.060       30.766       21.470     1941.323      946.555      460.959        0.456        0.167       75.963       20.542        0.073      333.020        2.063      870.957
12/29/2013  10:18:00     -101.504      -38.104      -10.628       25.582       18.334       18.615      654.462      336.124      346.532        0.660        0.067      108.420       11.989        0.012      332.885        1.840      870.962
12/29/2013  10:19:00      -86.879      -48.935       -9.406       29.607       27.361       18.303      876.600      748.601      334.999        0.600        0.098       99.713       10.121        0.010      332.906        1.875      870.966
12/29/2013  10:20:00      -97.887      -45.287      -13.683       14.279       23.586       10.756      203.880      556.298      115.692        0.635        0.044      107.855        5.052        0.002      332.964        1.970      870.977
12/29/2013  10:21:00      -56.473      -42.772      -13.930       13.812       25.807        8.490      190.777      666.019       72.080        0.307        0.046       70.843        9.374        0.018      332.954        1.952      870.990
12/29/2013  10:22:00      -28.822       -9.965       -9.067       10.282        6.347        5.388      105.725       40.284       29.031        0.059        0.009       30.495        3.171        0.011      333.119        2.225      870.998
12/29/2013  10:23:00      -20.193      -10.915      -15.401       18.277       10.134       11.492      334.044      102.707      132.070        0.067        0.028       22.954        5.600        0.060      333.403        2.694      871.000
12/29/2013  10:24:00        5.393       -6.185       -8.334        8.911       11.451       10.528       79.404      131.131      110.836        0.023        0.016        8.206        7.226        0.775      333.691        3.171      870.992
12/29/2013  10:25:00       -1.084       -7.273      -10.993       14.038       15.078       11.790      197.076      227.336      138.993        0.037        0.028        7.353        9.316        1.605      333.548        2.935      870.988
12/29/2013  10:26:00      -35.568      -31.649        3.552       35.594       23.821       15.980     1266.964      567.427      255.355        0.218        0.104       47.610       20.269        0.181      333.635        3.079      870.974
12/29/2013  10:27:00      -47.652      -26.494      -12.174       21.045       18.590        9.170      442.897      345.573       84.096        0.200        0.044       54.522        8.169        0.022      333.290        2.507      870.953
12/29/2013  10:28:00       15.781      -49.714       -0.331       20.532       25.530       18.528      421.583      651.793      343.274        0.207        0.071       52.159        9.776        0.035      333.454        2.780      870.915
12/29/2013  10:29:00       -2.437      -20.085       -0.216       23.009       14.260       13.997      529.424      203.339      195.912        0.067        0.046       20.232       10.563        0.273      333.402        2.693      870.871
12/29/2013  10:30:00      -18.134       -9.986        2.452       15.538       14.633       11.345      241.444      214.115      128.706        0.051        0.029       20.702        7.896        0.145      333.626        3.064      870.839
12/29/2013  10:31:00      -46.467      -85.344       -3.691       21.212       18.704       18.046      449.939      349.835      325.675        0.529        0.056       97.173       13.606        0.020      333.239        2.425      870.829
12/29/2013  10:32:00      -37.590      -39.236       -5.684       14.890       26.818       17.180      221.724      719.193      295.139        0.211        0.062       54.336        8.512        0.025      333.270        2.472      870.817
12/29/2013  10:33:00      -63.791      -40.327        5.359       36.495       38.747       22.781     1331.873     1501.317      518.957        0.454        0.168       75.469       24.817        0.108      333.419        2.722      870.812
12/29/2013  10:34:00      -67.538      -69.088       -5.463       33.762       35.076       18.125     1139.892     1230.328      328.499        0.603        0.135       96.615       19.862        0.042      333.372        2.644      870.822
12/29/2013  10:35:00      -40.641      -69.092       -8.775       20.699       17.908       14.598      428.448      320.709      213.091        0.373        0.048       80.158        8.956        0.012      333.239        2.424      870.831
12/29/2013  10:36:00      -60.128      -65.390       -9.405       21.655       11.298       13.622      468.923      127.641      185.553        0.438        0.039       88.832       12.518        0.020      333.266        2.468      870.828
12/29/2013  10:37:00      -54.223      -47.162      -17.124       13.621       18.005       10.649      185.541      324.185      113.405        0.304        0.031       71.864        9.021        0.016      333.279        2.490      870.819
12/29/2013  10:38:00      -48.539      -41.196       -6.167       16.472       19.282       14.881      271.327      371.783      221.446        0.248        0.043       63.664        9.940        0.024      333.361        2.625      870.807
12/29/2013  10:39:00      -42.113      -32.138        5.008       27.661       18.388       14.122      765.103      338.103      199.417        0.207        0.065       52.975       11.903        0.050      333.485        2.831      870.803
12/29/2013  10:40:00      -32.187      -29.210       -1.752       27.690       27.617       15.282      766.740      762.676      233.545        0.183        0.088       43.465       12.231        0.079      333.653        3.109      870.815
12/29/2013  10:41:00      -37.279      -48.373        1.713       18.173       17.859       16.955      330.263      318.937      287.475        0.233        0.047       61.071       14.295        0.055      333.581        2.990      870.810
12/29/2013  10:42:00      -11.530      -35.324       -2.723       18.038       25.189       17.171      325.361      634.470      294.843        0.132        0.063       37.158       13.195        0.126      333.708        3.199      870.790
12/29/2013  10:43:00      -33.073      -31.785       -2.723       27.931       28.020       18.044      780.127      785.135      325.601        0.200        0.095       45.870       17.321        0.143      333.693        3.176      870.772
12/29/2013  10:44:00      -32.486      -41.792        9.721       43.410       35.915       27.543     1884.461     1289.889      758.605        0.341        0.197       52.933       27.109        0.262      333.682        3.157      870.740
12/29/2013  10:45:00       -2.595      -34.003       17.829       29.575       21.054       22.200      874.705      443.278      492.830        0.165        0.091       34.102       20.901        0.376      333.821        3.387      870.723
12/29/2013  10:46:00       -5.126       -6.544        7.422       21.619       13.473       19.733      467.389      181.532      389.401        0.058        0.052        8.313       12.030        2.094      334.107        3.862      870.715
12/29/2013  10:47:00      -72.047      -36.546       -9.385       25.043       18.389       11.138      627.140      338.154      124.046        0.385        0.054       80.786        9.749        0.015      333.529        2.903      870.699
12/29/2013  10:48:00      -49.784       12.422      -10.418       23.502       18.392       13.092      552.323      338.274      171.398        0.190        0.053       51.311        7.956        0.024      333.624        3.061      870.686
12/29/2013  10:49:00      -32.119       -0.668       -2.948       12.982       23.363       13.098      168.533      545.823      171.554        0.096        0.044       32.126        5.260        0.027      333.730        3.236      870.662
12/29/2013  10:50:00      -35.160      -49.418       -7.345       17.137       17.785       10.552      293.663      316.290      111.343        0.223        0.036       60.650       10.062        0.028      333.573        2.975      870.630
12/29/2013  10:51:00      -27.530       -8.407        0.602       30.739       25.506       21.392      944.857      650.547      457.622        0.144        0.103       28.785       19.253        0.447      334.001        3.686      870.604
12/29/2013  10:52:00      -10.158      -35.827       15.618       70.512       43.527       27.419     4972.004     1894.602      751.807        0.462        0.381       37.239       25.178        0.457      334.085        3.826      870.575
12/29/2013  10:53:00      -15.924      -37.382       -2.857       38.982       33.998       25.157     1519.582     1155.839      632.875        0.248        0.165       40.632       18.228        0.201      333.973        3.640      870.563
12/29/2013  10:54:00       -1.291      -10.390       11.619       34.563       19.456       20.689     1194.614      378.541      428.021        0.112        0.100       10.469       15.000        2.053      334.155        3.943      870.546
12/29/2013  10:55:00       -8.292      -35.784        6.873       50.199       37.819       26.654     2519.916     1430.312      710.426        0.303        0.233       36.732       27.629        0.566      334.082        3.820      870.535
12/29/2013  10:56:00      -19.302      -25.160        6.602       26.421       26.232       22.258      698.087      688.119      495.420        0.147        0.094       31.711       13.552        0.183      334.273        4.137      870.520
12/29/2013  10:57:00      -14.237       -7.700        5.794       21.040       17.212       12.912      442.692      296.247      166.722        0.060        0.045       16.185       10.397        0.413      334.345        4.256      870.516
12/29/2013  10:58:00        4.159       22.202        7.177       49.741       33.062       24.041     2474.126     1093.108      577.987        0.235        0.207       22.588       15.346        0.462      334.331        4.233      870.509
12/29/2013  10:59:00       64.890       60.738       48.997       36.373       33.455       37.116     1323.013     1119.270     1377.623        0.706        0.191       88.880       24.826        0.078      333.873        3.473      870.505
12/29/2013  11:00:00       56.350       47.060       14.852       29.073       29.648       29.798      845.212      879.028      887.899        0.411        0.131       73.416       20.976        0.082      333.960        3.619      870.492
12/29/2013  11:01:00        1.211       50.953       -1.154       27.703       38.816       25.069      767.464     1506.682      628.467        0.275        0.145       50.967       22.069        0.187      334.199        4.014      870.474
12/29/2013  11:02:00       -2.038       38.161       22.088       25.048       42.965       27.817      627.380     1845.952      773.801        0.260        0.162       38.216       25.492        0.445      334.525        4.553      870.472
12/29/2013  11:03:00       10.454        3.844       20.466       21.369       15.258       27.157      456.648      232.816      737.516        0.098        0.071       11.138       15.155        1.851      334.609        4.694      870.463
12/29/2013  11:04:00      -20.537       28.421        9.274       14.545       28.126       19.568      211.559      791.047      382.887        0.135        0.069       35.065       15.956        0.207      334.325        4.222      870.468
12/29/2013  11:05:00        9.902       36.884       69.110       32.157       34.448       19.056     1034.064     1186.652      363.128        0.441        0.129       38.190       24.347        0.406      334.181        3.984      870.458
12/29/2013  11:06:00       97.365       69.340       68.316       51.922       55.286       42.145     2695.945     3056.549     1776.217        1.324        0.376      119.532       34.155        0.082      333.994        3.673      870.458
12/29/2013  11:07:00      108.494       83.189       61.447       30.095       27.664       32.691      905.715      765.271     1068.726        1.260        0.137      136.716       22.548        0.027      333.899        3.516      870.459
12/29/2013  11:08:00       58.692       45.134       56.736       49.027       46.633       34.380     2403.600     2174.654     1182.004        0.723        0.288       74.039       25.399        0.118      334.134        3.908      870.465
12/29/2013  11:09:00       58.205       86.226       88.309       54.222       37.592       34.935     2939.994     1413.192     1220.474        1.210        0.279      104.032       30.429        0.086      334.272        4.135      870.469
12/29/2013  11:10:00       76.276       97.194       75.802       63.287       39.355       36.620     4005.205     1548.840     1341.009        1.395        0.345      123.550       23.998        0.038      334.184        3.989      870.458
12/29/2013  11:11:00       66.011       82.330       70.570       61.231       60.434       41.804     3749.270     3652.245     1747.599        1.263        0.457      105.526       25.834        0.060      334.281        4.148      870.452
12/29/2013  11:12:00       10.943       34.702       62.348       30.612       35.945       26.234      937.114     1292.051      688.244        0.406        0.146       36.386       18.187        0.250      334.458        4.444      870.450
12/29/2013  11:13:00       24.403       33.728       55.462       49.414       37.014       36.483     2441.747     1370.037     1331.007        0.498        0.257       41.631       37.790        0.824      334.489        4.495      870.455
12/29/2013  11:14:00        7.121       -1.395        8.759       41.108       28.865       25.393     1689.884      833.164      644.798        0.165        0.158        7.256       19.679        7.355      334.359        4.280      870.442
12/29/2013  11:15:00       -2.205      -38.137       37.686       34.739       33.767       28.381     1206.831     1140.196      805.469        0.302        0.158       38.201       18.595        0.237      334.670        4.796      870.428
12/29/2013  11:16:00      -20.390      -59.023       12.020       27.467       24.391       21.747      754.431      594.945      472.932        0.293        0.091       62.445       13.388        0.046      334.355        4.273      870.405
12/29/2013  11:17:00      -21.374       -2.811       12.245       17.297       17.913       20.718      299.200      320.875      429.233        0.083        0.052       21.558       17.575        0.665      334.735        4.904      870.372
12/29/2013  11:18:00      -13.297       24.617       14.255       18.710       12.512       19.893      350.053      156.557      395.718        0.094        0.045       27.979       12.737        0.207      334.700        4.846      870.355
12/29/2013  11:19:00        0.961        3.772        9.771       27.296       14.684       13.406      745.061      215.613      179.731        0.063        0.057        3.892       12.835       10.874      334.763        4.950      870.336
12/29/2013  11:20:00        0.928       18.380        0.557       34.080       17.276       21.083     1161.429      298.447      444.485        0.112        0.095       18.403       20.899        1.290      334.533        4.568      870.334
12/29/2013  11:21:00       10.560      -43.385       10.166       39.908       30.606       30.026     1592.634      936.742      901.568        0.276        0.172       44.651       27.061        0.367      334.603        4.685      870.328
12/29/2013  11:22:00       11.207      -17.280       22.890       28.022       32.375       14.506      785.260     1048.132      210.426        0.150        0.102       20.596        7.607        0.136      334.982        5.314      870.308
12/29/2013  11:23:00      -49.253      -10.395        6.260       20.428       19.214       21.584      417.308      369.184      465.860        0.191        0.063       50.338       11.366        0.051      334.717        4.874      870.300
12/29/2013  11:24:00      -47.615      -15.023      -10.140       19.037       22.649       12.142      362.402      512.958      147.420        0.181        0.051       49.928        7.665        0.024      334.481        4.481      870.282
12/29/2013  11:25:00      -64.223      -14.377       -1.290       24.272       25.390       19.668      589.142      644.638      386.840        0.298        0.081       65.812       19.574        0.088      334.158        3.948      870.258
12/29/2013  11:26:00      -27.609       -4.690      -12.840       16.317       17.917       11.133      266.231      321.018      123.951        0.083        0.036       28.005        9.967        0.127      334.316        4.209      870.246
12/29/2013  11:27:00      -20.058      -11.017       -8.643       16.743       24.619       15.921      280.336      606.117      253.467        0.087        0.057       22.884       11.528        0.254      334.312        4.200      870.236
12/29/2013  11:28:00      -20.275        3.530       12.030       14.184       18.172       18.270      201.172      330.212      333.788        0.072        0.043       20.580       13.099        0.405      334.913        5.201      870.222
12/29/2013  11:29:00       69.947       52.880        9.297       47.817       34.479       32.411     2286.475     1188.785     1050.458        0.615        0.226       87.686       31.907        0.132      334.667        4.791      870.224
12/29/2013  11:30:00       54.974       56.681       -4.311       49.821       33.210       25.920     2482.175     1102.890      671.849        0.525        0.213       78.962       11.699        0.022      334.726        4.890      870.204
12/29/2013  11:31:00      -19.392       18.656       11.055       21.243       46.765       18.022      451.280     2186.973      324.803        0.190        0.148       26.909       15.329        0.325      334.950        5.261      870.205
12/29/2013  11:32:00       10.844       27.573       28.114       31.018       35.034       27.099      962.114     1227.347      734.342        0.230        0.146       29.628       18.733        0.400      335.201        5.678      870.183
12/29/2013  11:33:00       63.125       73.936       52.151       48.130       40.135       41.079     2316.475     1610.808     1687.465        0.889        0.281       97.218       32.054        0.109      334.635        4.736      870.155
12/29/2013  11:34:00      103.914       57.019       13.198       49.423       36.394       45.381     2442.607     1324.543     2059.428        1.002        0.291      118.530       37.249        0.099      334.435        4.405      870.138
12/29/2013  11:35:00       72.204       55.757       -9.320       36.006       28.415       25.788     1296.442      807.387      665.014        0.559        0.138       91.227       22.190        0.059      334.317        4.211      870.113
12/29/2013  11:36:00        5.726       70.677        0.818       22.293       40.725       27.180      496.980     1658.503      738.775        0.396        0.145       70.909       24.391        0.118      334.669        4.796      870.100
12/29/2013  11:37:00       59.888       37.180       24.129       24.652       24.822       26.325      607.739      616.156      693.012        0.373        0.096       70.491       17.983        0.065      334.658        4.776      870.063
12/29/2013  11:38:00       25.541       41.933       51.275       52.194       47.882       37.322     2724.196     2292.694     1392.918        0.572        0.320       49.099       32.082        0.427      335.117        5.539      870.033
12/29/2013  11:39:00       -0.330       53.157       76.508       27.018       65.996       34.594      729.957     4355.494     1196.759        0.748        0.314       53.158       38.226        0.517      334.915        5.202      869.995
12/29/2013  11:40:00       37.535       27.887       26.135       44.961       39.841       36.193     2021.517     1587.299     1309.960        0.389        0.246       46.761       26.512        0.321      334.916        5.205      869.985
12/29/2013  11:41:00       24.192       53.892       24.101       44.305       43.064       38.602     1962.903     1854.534     1490.098        0.469        0.265       59.073       27.144        0.211      335.043        5.415      869.959
12/29/2013  11:42:00       64.472       45.910        4.962       38.634       32.376       26.999     1492.562     1048.188      728.948        0.478        0.163       79.148       18.634        0.055      334.380        4.314      869.949
12/29/2013  11:43:00       71.675       80.373        1.184       48.933       47.647       35.721     2394.391     2270.196     1275.988        0.877        0.297      107.690       28.872        0.072      334.476        4.474      869.945
12/29/2013  11:44:00       41.387       62.295        3.439       27.791       42.061       30.376      772.342     1769.097      922.675        0.453        0.173       74.790       28.194        0.142      334.639        4.745      869.937
12/29/2013  11:45:00      131.976       83.581       -0.758       43.577       28.938       29.520     1898.911      837.389      871.420        1.401        0.180      156.216        7.602        0.002      334.572        4.633      869.926
12/29/2013  11:46:00      103.693       69.294       -5.896       24.794       24.413       27.689      614.732      596.018      766.665        0.878        0.099      124.715       16.983        0.019      334.341        4.250      869.913
12/29/2013  11:47:00       19.064       23.643        2.769       41.913       22.171       25.182     1756.672      491.551      634.109        0.191        0.144       30.372       26.838        0.781      334.682        4.816      869.895
12/29/2013  11:48:00       13.092       28.804       19.726       33.886       21.249       28.281     1148.282      451.523      799.792        0.189        0.120       31.639       22.722        0.516      335.017        5.372      869.860
12/29/2013  11:49:00        4.162       30.590       42.328       21.962       27.920       22.377      482.338      779.510      500.736        0.225        0.088       30.872       17.059        0.305      335.397        6.004      869.847
12/29/2013  11:50:00       36.684       41.702       21.647       31.794       23.612       26.974     1010.838      557.542      727.574        0.292        0.115       55.541       18.509        0.111      335.052        5.429      869.832
12/29/2013  11:51:00       20.108       44.510       -8.020       32.922       23.023       20.706     1083.877      530.048      428.740        0.225        0.102       48.841       14.992        0.094      334.822        5.050      869.806
12/29/2013  11:52:00        1.852       11.784       18.470       16.198       17.275       14.428      262.366      298.438      208.167        0.063        0.038       11.929        8.111        0.462      335.342        5.912      869.789
12/29/2013  11:53:00       -1.860       25.155       13.562       39.379       49.021       27.260     1550.724     2403.043      743.133        0.276        0.235       25.223       21.478        0.725      335.278        5.806      869.768
12/29/2013  11:54:00       44.274       94.496       -1.837       37.013       27.767       32.243     1369.994      771.001     1039.629        0.704        0.159      104.354       18.155        0.030      335.035        5.403      869.773
12/29/2013  11:55:00      102.167       74.568        2.227       56.795       33.809       34.299     3225.622     1143.064     1176.419        1.077        0.277      126.485       22.626        0.032      334.858        5.107      869.777
12/29/2013  11:56:00      133.102       90.107       -6.570       37.973       35.202       35.039     1441.918     1239.148     1227.709        1.489        0.195      160.734       14.915        0.009      334.757        4.941      869.782
12/29/2013  11:57:00       33.296       63.033       72.143       56.969       50.798       47.353     3245.482     2580.444     2242.352        0.918        0.403       71.286       44.266        0.386      335.306        5.851      869.778
12/29/2013  11:58:00       77.114       73.487       48.318       59.179       40.586       58.913     3502.154     1647.240     3470.741        1.115        0.431      106.522       50.295        0.223      334.744        4.920      869.771
12/29/2013  11:59:00       60.287       45.412       -1.223       24.730       20.118       16.729      611.574      404.748      279.874        0.350        0.065       75.477       11.029        0.021      334.638        4.743      869.781
12/29/2013  12:00:00       41.199       51.028       -1.165       44.051       39.536       23.761     1940.509     1563.093      564.606        0.418        0.203       65.583       20.900        0.102      335.015        5.369      869.760
12/29/2013  12:01:00       50.697       47.036       30.865       48.231       35.759       35.291     2326.196     1278.687     1245.448        0.529        0.243       69.156       25.366        0.135      335.052        5.430      869.750
12/29/2013  12:02:00       25.498       59.541       59.130       35.106       40.370       41.500     1232.421     1629.773     1722.248        0.614        0.229       64.771       24.235        0.140      335.103        5.515      869.753
12/29/2013  12:03:00       56.763       80.814       88.752       61.385       48.403       33.796     3768.102     2342.837     1142.140        1.244        0.363       98.757       28.307        0.082      335.035        5.400      869.732
12/29/2013  12:04:00      -15.685       11.998       82.779       32.434       92.566       51.901     1051.969     8568.530     2693.683        0.978        0.616       19.747       64.102       10.538      335.145        5.585      869.716
12/29/2013  12:05:00       28.055       23.944       50.955       55.381       77.847       46.794     3067.099     6060.227     2189.645        0.764        0.566       36.884       43.349        1.381      334.896        5.170      869.705
12/29/2013  12:06:00       25.255      -24.350       39.186       44.642       61.504       45.790     1992.889     3782.736     2096.679        0.532        0.394       35.082       38.023        1.175      335.183        5.648      869.670
12/29/2013  12:07:00       32.631       44.871       67.573       45.411       48.143       46.556     2062.171     2317.750     2167.453        0.709        0.327       55.482       38.738        0.487      334.865        5.119      869.663
12/29/2013  12:08:00        8.042       47.218       73.754       29.445       30.492       32.320      867.018      929.771     1044.595        0.529        0.142       47.898       28.578        0.356      335.061        5.445      869.640
12/29/2013  12:09:00       20.444      -36.479       12.347       36.192       44.827       30.122     1309.868     2009.483      907.339        0.306        0.211       41.817       21.218        0.257      335.111        5.529      869.620
12/29/2013  12:10:00       15.826      -35.479       29.718       48.254       44.168       39.592     2328.435     1950.811     1567.498        0.412        0.292       38.849       14.928        0.148      335.120        5.544      869.602
12/29/2013  12:11:00       65.791      -82.633        8.867       38.472       47.834       37.777     1480.071     2288.077     1427.084        0.821        0.260      105.625       24.074        0.052      334.755        4.937      869.582
12/29/2013  12:12:00       18.473      -10.610       30.711       27.282       47.073       29.889      744.328     2215.833      893.327        0.262        0.193       21.303       32.782        2.368      335.082        5.481      869.558
12/29/2013  12:13:00        0.500        0.073       27.860       28.813       50.182       34.887      830.208     2518.228     1217.073        0.267        0.228        0.505       32.830     4219.311      335.131        5.562      869.547
12/29/2013  12:14:00        3.559       15.839       30.617       25.974       25.609       18.036      674.635      655.833      325.312        0.143        0.083       16.234       16.822        1.074      335.240        5.744      869.542
12/29/2013  12:15:00       -8.875        7.787       16.738       29.879       15.319       20.374      892.766      234.677      415.084        0.098        0.077       11.807       14.511        1.511      335.157        5.604      869.539
12/29/2013  12:16:00       60.635       52.662       58.788       60.269       46.521       42.416     3632.394     2164.192     1799.082        0.875        0.380       80.311       35.111        0.191      334.997        5.340      869.535
12/29/2013  12:17:00       59.584       78.532       73.180       46.263       37.938       39.794     2140.247     1439.290     1583.532        1.012        0.258       98.578       31.628        0.103      334.933        5.232      869.517
12/29/2013  12:18:00       66.380       65.481       50.782       79.826       39.562       47.057     6372.203     1565.115     2214.351        1.071        0.508       93.242       47.353        0.258      335.214        5.698      869.499
12/29/2013  12:19:00       13.841       14.244       50.144       44.117       70.157       33.119     1946.279     4922.003     1096.887        0.544        0.398       19.861       18.037        0.825      335.349        5.923      869.480
12/29/2013  12:20:00       21.292       25.639       71.236       32.613       53.914       36.927     1063.634     2906.759     1363.608        0.576        0.267       33.327       37.651        1.276      335.438        6.072      869.462
12/29/2013  12:21:00      106.819       93.833       48.056       49.426       54.061       56.833     2442.894     2922.579     3230.018        1.556        0.430      142.180       53.097        0.139      334.809        5.026      869.442
12/29/2013  12:22:00       64.938       30.502       20.012       49.734       32.421       28.619     2473.470     1051.145      819.074        0.494        0.217       71.744       17.080        0.057      334.889        5.159      869.429
12/29/2013  12:23:00       13.198       20.833       40.379       21.130       18.598       16.895      446.464      345.900      285.455        0.166        0.054       24.662       10.391        0.178      335.343        5.914      869.414
12/29/2013  12:24:00       72.562      -16.671       35.122       71.802       53.942       48.594     5155.463     2909.745     2361.394        0.860        0.521       74.452       54.947        0.545      334.997        5.338      869.380
12/29/2013  12:25:00       79.102       70.293       85.000       47.990       46.410       38.790     2303.069     2153.906     1504.669        1.219        0.298      105.822       29.568        0.078      334.906        5.187      869.356
12/29/2013  12:26:00      109.398       65.071       12.451       61.762       41.957       52.385     3814.498     1760.360     2744.155        1.234        0.416      127.288       21.079        0.027      334.831        5.062      869.348
12/29/2013  12:27:00       47.267       90.661       72.030       60.512       44.483       44.382     3661.662     1978.708     1969.752        1.162        0.381      102.242       35.007        0.117      335.371        5.961      869.335
12/29/2013  12:28:00       89.871       66.988       42.806       74.911       45.158       48.440     5611.711     2039.222     2346.412        1.220        0.500      112.090       22.737        0.041      334.944        5.250      869.323
12/29/2013  12:29:00       83.683       55.845       21.486       39.727       36.590       39.968     1578.262     1338.831     1597.420        0.755        0.226      100.606       22.133        0.048      334.986        5.321      869.299
12/29/2013  12:30:00       71.682       60.810        9.790       67.026       37.888       30.757     4492.508     1435.504      945.983        0.790        0.344       94.001       15.266        0.026      334.985        5.319      869.278
12/29/2013  12:31:00      107.995       74.151       -0.751       26.429       22.026       24.979      698.483      485.146      623.950        0.948        0.090      131.001       16.148        0.015      334.809        5.025      869.262
12/29/2013  12:32:00       23.353       34.529       33.124       39.883       28.451       22.783     1590.685      809.464      519.084        0.288        0.146       41.684       17.185        0.170      335.138        5.573      869.263
12/29/2013  12:33:00        6.593       37.133       21.991       17.725       25.308       23.184      314.161      640.520      537.491        0.170        0.075       37.714       15.813        0.176      335.508        6.189      869.265
12/29/2013  12:34:00       34.301       19.465       14.419       31.263       23.488       27.283      977.372      551.685      744.351        0.202        0.114       39.439       16.033        0.165      335.245        5.753      869.271
12/29/2013  12:35:00       23.518       38.435        8.855       21.508       21.006       20.735      462.574      441.266      429.927        0.172        0.067       45.060       10.185        0.051      334.940        5.245      869.276
12/29/2013  12:36:00       36.383       10.492        3.992       16.687       18.476       14.449      278.445      341.352      208.786        0.114        0.041       37.866        8.517        0.051      334.837        5.072      869.278
12/29/2013  12:37:00       21.814       26.774       14.968       29.587       22.837       18.530      875.414      521.546      343.373        0.158        0.087       34.535       13.130        0.145      335.161        5.612      869.270
12/29/2013  12:38:00       17.021      -11.337       15.435       43.411       44.124       38.701     1884.501     1946.954     1497.794        0.299        0.266       20.451       28.263        1.910      335.415        6.033      869.267
12/29/2013  12:39:00      -28.913       11.634       22.344       30.704       54.702       27.707      942.711     2992.313      767.695        0.309        0.235       31.166       24.356        0.611      335.056        5.437      869.268
12/29/2013  12:40:00      -51.678      -16.354        0.018       48.747       39.397       20.465     2376.301     1552.120      418.820        0.364        0.217       54.204       13.546        0.062      335.120        5.542      869.258
12/29/2013  12:41:00      -40.661      -46.999       -1.381       41.196       48.681       24.935     1697.133     2369.875      621.743        0.428        0.234       62.146       26.126        0.177      335.076        5.470      869.226
12/29/2013  12:42:00      -38.395        6.399       -2.384       47.442       31.913       14.536     2250.754     1018.448      211.291        0.250        0.174       38.924       12.231        0.099      335.166        5.620      869.189
12/29/2013  12:43:00      -25.925        5.828       16.561       49.982       32.083       24.475     2498.176     1029.291      599.029        0.255        0.206       26.572       26.888        1.024      335.604        6.347      869.156
12/29/2013  12:44:00      -36.951        1.326       11.596       29.690       25.621       23.219      881.481      656.427      539.143        0.179        0.104       36.975       20.946        0.321      335.442        6.079      869.134
12/29/2013  12:45:00      -53.128      -35.689       -5.849       25.198       21.664       19.667      634.946      469.328      386.798        0.281        0.075       64.002       13.854        0.047      335.380        5.975      869.111
12/29/2013  12:46:00      -19.077      -36.213       -4.843       35.541       36.561       29.653     1263.168     1336.678      879.273        0.259        0.174       40.931       26.831        0.430      335.621        6.378      869.103
12/29/2013  12:47:00       16.690     -105.973       -1.632       59.901       58.157       39.225     3588.166     3382.192     1538.618        1.001        0.425      107.279       34.434        0.103      335.407        6.020      869.103
12/29/2013  12:48:00        9.784      -26.925       35.850       44.752       56.990       36.805     2002.719     3247.843     1354.638        0.435        0.330       28.648       34.228        1.427      335.555        6.267      869.105
12/29/2013  12:49:00       67.987      -79.776       -9.481       43.695       53.953       35.213     1909.219     2910.924     1239.990        0.857        0.303      104.816       39.335        0.141      335.069        5.459      869.118
12/29/2013  12:50:00       38.311       18.388       34.743       28.728       62.341       35.251      825.309     3886.353     1242.665        0.448        0.298       42.496       41.424        0.950      335.240        5.743      869.132
12/29/2013  12:51:00       25.669       86.153       -6.468       36.277       39.789       29.129     1316.022     1583.179      848.508        0.593        0.187       89.896       27.542        0.094      335.187        5.655      869.114
12/29/2013  12:52:00       -3.909       68.686       -0.901       23.779       34.573       28.096      565.443     1195.263      789.411        0.364        0.128       68.798       21.458        0.097      335.168        5.623      869.107
12/29/2013  12:53:00        1.076       69.378       -4.378       18.784       34.138       26.984      352.847     1165.430      728.150        0.354        0.112       69.386       25.087        0.131      335.189        5.657      869.099
12/29/2013  12:54:00       12.009       19.024        5.896       19.178       34.124       28.619      367.812     1164.457      819.046        0.145        0.118       22.498       23.144        1.058      335.441        6.078      869.077
12/29/2013  12:55:00       11.035       43.107       41.536       30.472       35.936       42.584      928.551     1291.368     1813.398        0.387        0.202       44.497       26.006        0.342      335.396        6.003      869.049
12/29/2013  12:56:00       29.628        2.839       45.430       41.201       57.312       45.952     1697.557     3284.671     2111.601        0.502        0.355       29.764       32.555        1.196      335.463        6.113      869.024
12/29/2013  12:57:00       66.289      -32.117       16.995       40.950       50.494       45.882     1676.886     2549.678     2105.187        0.602        0.317       73.660       39.689        0.290      335.140        5.577      869.018
12/29/2013  12:58:00       39.671      -47.437        5.493       44.884       59.985       36.695     2014.534     3598.171     1346.542        0.541        0.348       61.839       39.159        0.401      335.258        5.772      868.999
12/29/2013  12:59:00       25.266       23.303       48.403       43.298       36.075       26.163     1874.680     1301.381      684.523        0.369        0.193       34.371       23.540        0.469      335.466        6.118      868.980
12/29/2013  13:00:00       46.380      -44.283       10.447       53.909       48.792       40.535     2906.188     2380.692     1643.092        0.557        0.346       64.125       36.816        0.330      335.341        5.910      868.962
12/29/2013  13:01:00       23.327       45.082       85.512       51.652       43.531       35.518     2667.934     1894.967     1261.524        0.786        0.291       50.759       35.324        0.484      335.340        5.908      868.957
12/29/2013  13:02:00       40.188       19.175       41.764       40.648       43.730       26.224     1652.260     1912.320      687.723        0.399        0.213       44.528       22.518        0.256      335.282        5.812      868.947
12/29/2013  13:03:00       12.081        3.199       61.682       53.864       88.205       56.174     2901.326     7780.073     3155.555        0.890        0.692       12.497       58.673       22.043      335.450        6.092      868.939
12/29/2013  13:04:00       38.498      -32.363       -1.061       48.369       59.100       34.120     2339.570     3492.817     1164.151        0.476        0.350       50.294       26.545        0.279      335.309        5.856      868.937
12/29/2013  13:05:00       33.894       11.436       29.537       35.570       43.471       22.635     1265.239     1889.769      512.362        0.291        0.183       35.771       17.115        0.229      335.491        6.159      868.917
12/29/2013  13:06:00       20.223       26.315       39.366       31.485       39.912       24.496      991.312     1592.989      600.074        0.292        0.159       33.188       24.168        0.530      335.611        6.361      868.891
12/29/2013  13:07:00      -18.230      -25.151       35.944       30.269       45.772       33.407      916.214     2095.108     1116.036        0.319        0.206       31.063       12.431        0.160      335.633        6.396      868.859
12/29/2013  13:08:00       10.086       17.451       34.753       26.968       35.362       34.484      727.254     1250.481     1189.120        0.239        0.158       20.156       20.076        0.992      335.660        6.442      868.839
12/29/2013  13:09:00      113.097       83.868       14.695       49.096       29.742       35.983     2410.376      884.563     1294.783        1.231        0.229      140.801       11.999        0.007      335.191        5.662      868.835
12/29/2013  13:10:00       63.852       53.286       13.884       51.776       39.385       33.028     2680.773     1551.148     1090.856        0.622        0.266       83.165       26.918        0.105      335.345        5.917      868.824
12/29/2013  13:11:00      100.404       69.139       12.781       50.263       39.849       32.829     2526.349     1587.904     1077.732        1.011        0.260      121.907       30.597        0.063      335.347        5.921      868.805
12/29/2013  13:12:00      131.830       83.788        1.724       43.449       44.580       32.518     1887.814     1987.359     1057.414        1.467        0.247      156.204       16.618        0.011      335.136        5.570      868.792
12/29/2013  13:13:00       88.317       64.657       38.126       57.409       45.799       38.532     3295.770     2097.535     1484.704        1.015        0.344      109.455       24.929        0.052      335.358        5.937      868.763
12/29/2013  13:14:00      112.391       99.232       48.582       56.695       51.256       51.880     3214.280     2627.222     2691.483        1.668        0.427      149.929       39.474        0.069      335.276        5.801      868.742
12/29/2013  13:15:00       54.202       52.512       -1.128       51.841       22.115       21.339     2687.457      489.077      455.334        0.466        0.182       75.467       18.468        0.060      335.124        5.550      868.725
12/29/2013  13:16:00       -9.066       50.782       -7.834       12.394       16.992       14.351      153.623      288.732      205.952        0.169        0.032       51.585       10.703        0.043      335.279        5.807      868.703
12/29/2013  13:17:00       14.486       27.024       10.491       20.941       20.023       16.832      438.526      400.906      283.327        0.109        0.056       30.662       13.071        0.182      335.452        6.094      868.660
12/29/2013  13:18:00       10.339       33.445       58.794       38.861       40.593       30.096     1510.215     1647.764      905.752        0.437        0.203       35.007       20.428        0.341      335.670        6.459      868.613
12/29/2013  13:19:00       25.216       90.891       89.994       36.157       42.736       21.387     1307.300     1826.407      457.404        1.029        0.180       94.324       21.185        0.050      335.502        6.179      868.552
12/29/2013  13:20:00       60.811       13.109       31.676       45.069       34.813       26.653     2031.234     1211.970      710.357        0.441        0.198       62.208       17.194        0.076      335.287        5.820      868.502
12/29/2013  13:21:00       78.566       57.281       41.952       42.757       33.096       29.118     1828.135     1095.320      847.868        0.749        0.189       97.230       13.897        0.020      335.218        5.706      868.469
12/29/2013  13:22:00       16.090       40.317       15.207       21.864       36.088       21.044      478.034     1302.376      442.834        0.217        0.111       43.409       11.140        0.066      335.416        6.036      868.464
12/29/2013  13:23:00       30.775       18.165        4.835       22.919       21.064       17.295      525.259      443.679      299.130        0.128        0.063       35.736       11.838        0.110      335.515        6.199      868.455
12/29/2013  13:24:00       77.638       65.806        4.642       54.364       57.484       43.650     2955.433     3304.457     1905.364        0.927        0.408      101.775       41.274        0.164      335.267        5.787      868.446
12/29/2013  13:25:00       -5.089       26.127       23.008       22.173       41.859       48.188      491.657     1752.174     2322.118        0.290        0.228       26.618       39.782        2.234      335.468        6.122      868.432
12/29/2013  13:26:00       31.450       38.273       78.468       47.446       69.562       40.859     2251.089     4838.901     1669.451        0.868        0.438       49.537       47.938        0.936      335.551        6.261      868.415
12/29/2013  13:27:00       38.288       17.944       44.073       38.046       68.452       32.022     1447.465     4685.674     1025.391        0.544        0.358       42.284       29.295        0.480      335.605        6.350      868.402
12/29/2013  13:28:00       32.702       47.190       57.938       29.722       26.518       20.300      883.419      703.188      412.106        0.433        0.100       57.414       17.073        0.088      335.567        6.287      868.401
12/29/2013  13:29:00       28.404        1.391       25.203       44.551       44.790       28.725     1984.801     2006.110      825.132        0.313        0.241       28.438       15.387        0.293      335.714        6.532      868.388
12/29/2013  13:30:00       15.689      -55.590       20.141       57.128       59.439       26.873     3263.573     3533.003      722.132        0.563        0.376       57.761       21.058        0.133      335.797        6.670      868.398
12/29/2013  13:31:00       83.970       54.942       57.238       66.668       67.369       54.082     4444.622     4538.637     2924.811        1.262        0.595      100.347       44.668        0.198      335.476        6.133      868.393
12/29/2013  13:32:00       59.019       59.522       62.492       39.318       62.792       32.311     1545.882     3942.817     1043.983        0.873        0.327       83.822       19.478        0.054      335.474        6.133      868.392
12/29/2013  13:33:00       74.359       84.860       74.842       80.128       55.380       66.322     6420.490     3066.959     4398.576        1.611        0.694      112.829       66.354        0.346      335.519        6.206      868.376
12/29/2013  13:34:00       94.146       89.607       72.298       52.175       59.797       40.896     2722.188     3575.657     1672.498        1.504        0.399      129.973       36.639        0.079      335.442        6.077      868.364
12/29/2013  13:35:00       71.212       38.096       33.649       50.824       50.848       42.646     2583.045     2585.510     1818.694        0.732        0.349       80.762       35.430        0.192      335.504        6.181      868.341
12/29/2013  13:36:00       91.957      104.016       90.808       61.840       52.465       46.836     3824.241     2752.625     2193.576        1.814        0.439      138.836       29.652        0.046      335.553        6.262      868.314
12/29/2013  13:37:00       60.302       84.787       95.261       57.479       73.013       48.789     3303.822     5330.838     2380.357        1.546        0.551      104.044       55.023        0.280      335.501        6.177      868.309
12/29/2013  13:38:00       78.566       77.795       73.561       58.731       69.087       45.963     3449.319     4773.069     2112.596        1.398        0.517      110.565       35.818        0.105      335.510        6.191      868.299
12/29/2013  13:39:00      121.667       61.355       30.302       47.348       31.742       29.402     2241.872     1007.561      864.449        1.180        0.206      136.262       19.945        0.021      335.479        6.142      868.285
12/29/2013  13:40:00       99.656       57.082       29.388       77.084       58.210       50.825     5941.952     3388.370     2583.155        1.298        0.596      114.846       45.600        0.158      335.447        6.088      868.266
12/29/2013  13:41:00      135.586       76.121       19.291       55.697       43.818       36.443     3102.125     1920.009     1328.099        1.545        0.318      155.493       19.809        0.016      335.476        6.135      868.260
12/29/2013  13:42:00       98.576       72.811       50.860       52.157       37.686       38.761     2720.325     1420.266     1502.411        1.162        0.282      122.551       20.555        0.028      335.566        6.287      868.248
12/29/2013  13:43:00       98.327       64.896       19.932       40.804       35.621       34.594     1664.990     1268.861     1196.770        0.920        0.207      117.813       15.334        0.017      335.445        6.082      868.238
12/29/2013  13:44:00       43.855       46.818       20.060       32.536       25.639       29.872     1058.619      657.356      892.339        0.356        0.130       64.149       13.851        0.047      335.468        6.120      868.222
12/29/2013  13:45:00      -22.566       18.290        8.317       31.279       25.288       18.280      978.367      639.486      334.152        0.143        0.098       29.048        9.766        0.113      335.808        6.689      868.217
12/29/2013  13:46:00       48.883       25.562        8.056       40.686       26.918       17.544     1655.370      724.560      307.796        0.290        0.134       55.163       17.600        0.102      335.745        6.584      868.208
12/29/2013  13:47:00       60.176       31.710        2.087       43.898       36.614       30.988     1926.992     1340.601      960.284        0.443        0.211       68.020       19.850        0.085      335.565        6.284      868.195
12/29/2013  13:48:00      144.397       79.351       20.543       54.637       40.344       42.550     2985.225     1627.659     1810.511        1.700        0.321      164.763       32.713        0.039      335.476        6.135      868.185
12/29/2013  13:49:00       21.566       46.415        2.221       35.730       34.571       23.901     1276.635     1195.120      571.273        0.283        0.152       51.180       17.735        0.120      335.447        6.086      868.191
12/29/2013  13:50:00       11.193       24.881        7.160       29.882       37.495       17.983      892.919     1405.852      323.379        0.171        0.131       27.282        6.163        0.051      335.606        6.352      868.191
12/29/2013  13:51:00       70.458       13.719        6.507       31.120       48.756       38.531      968.462     2377.138     1484.629        0.501        0.242       71.781       12.371        0.030      335.538        6.239      868.199
12/29/2013  13:52:00       40.997       68.452       13.662       30.376       38.227       28.645      922.717     1461.291      820.524        0.488        0.160       79.789       23.798        0.089      335.441        6.076      868.206
12/29/2013  13:53:00       -9.005       76.879      -20.458       30.188       36.386       19.640      911.338     1323.948      385.741        0.452        0.131       77.404       14.745        0.036      335.437        6.069      868.207
12/29/2013  13:54:00      -18.421       57.322      -14.421       26.679       36.698       22.709      711.781     1346.768      515.698        0.320        0.129       60.209       19.893        0.109      335.739        6.574      868.198
12/29/2013  13:55:00        7.609       63.758       11.057       39.950       57.261       28.053     1596.013     3278.853      786.983        0.495        0.283       64.210       29.037        0.204      335.902        6.845      868.189
12/29/2013  13:56:00       37.489       94.363        1.244       32.687       52.589       42.625     1068.432     2765.575     1816.850        0.798        0.283      101.537       40.262        0.157      335.605        6.350      868.177
12/29/2013  13:57:00       66.894       57.102       13.460       47.767       37.454       33.438     2281.667     1402.818     1118.101        0.636        0.240       87.952       21.475        0.060      335.654        6.432      868.158
12/29/2013  13:58:00       34.832       81.725       -4.694       57.617       36.127       23.863     3319.702     1305.195      569.442        0.655        0.260       88.838       26.358        0.088      335.478        6.139      868.147
12/29/2013  13:59:00       10.535       70.969       -6.421       26.660       45.558       25.579      710.761     2075.546      654.293        0.431        0.172       71.747       29.830        0.173      335.594        6.331      868.123
12/29/2013  14:00:00        9.876       51.351       -3.443       25.698       39.370       21.838      660.396     1549.972      476.909        0.272        0.134       52.292       25.372        0.235      335.733        6.563      868.116
12/29/2013  14:01:00       -3.313       69.310       -2.424       17.933       49.396       18.200      321.588     2439.978      331.256        0.396        0.155       69.390       22.195        0.102      335.786        6.653      868.123
12/29/2013  14:02:00       23.015       24.835       12.460       21.603       22.881       20.223      466.691      523.533      408.955        0.135        0.070       33.860       15.929        0.221      335.823        6.713      868.136
12/29/2013  14:03:00       -8.425       63.199        1.385       22.920       39.073       20.591      525.345     1526.682      423.996        0.327        0.124       63.758       23.260        0.133      335.700        6.509      868.152
12/29/2013  14:04:00       13.357       46.199       -2.163       49.753       27.190       19.905     2475.342      739.308      396.208        0.296        0.181       48.091       13.703        0.081      335.668        6.455      868.165
12/29/2013  14:05:00       86.171       50.605       14.671       30.810       26.610       24.138      949.260      708.107      582.650        0.622        0.112       99.931        7.605        0.006      335.633        6.397      868.152
12/29/2013  14:06:00       40.777       34.993       30.969       44.906       36.282       35.366     2016.579     1316.412     1250.771        0.421        0.229       53.733       15.113        0.079      335.862        6.778      868.149
12/29/2013  14:07:00       22.745       45.003       55.935       44.509       36.769       28.032     1981.068     1351.923      785.791        0.489        0.206       50.424       21.242        0.177      335.832        6.729      868.128
12/29/2013  14:08:00       55.915       67.764       47.840       47.691       30.371       32.516     2274.397      922.405     1057.301        0.713        0.213       87.855       25.857        0.087      335.720        6.542      868.122
12/29/2013  14:09:00      100.146       59.024       26.696       43.572       27.374       29.481     1898.477      749.338      869.125        0.887        0.176      116.246       18.120        0.024      335.553        6.265      868.123
12/29/2013  14:10:00       48.486       26.838       23.057       38.051       41.806       27.295     1447.870     1747.763      745.018        0.377        0.197       55.418       24.550        0.196      335.799        6.672      868.129
12/29/2013  14:11:00       55.995       41.089       12.817       58.735       41.153       40.997     3449.818     1693.577     1680.785        0.590        0.341       69.453       15.344        0.049      335.758        6.606      868.135
12/29/2013  14:12:00       70.247       81.202       84.979       63.226       56.564       47.616     3997.531     3199.473     2267.302        1.411        0.473      107.370       46.060        0.184      335.780        6.641      868.131
12/29/2013  14:13:00      120.666       68.765       19.735       27.186       24.365       29.076      739.084      593.672      845.417        1.093        0.109      138.885       15.470        0.012      335.644        6.415      868.122
12/29/2013  14:14:00       52.550       41.297       15.745       33.068       25.744       30.071     1093.466      662.737      904.260        0.369        0.133       66.835       14.939        0.050      335.654        6.433      868.109
12/29/2013  14:15:00       -6.175       30.626        7.147       23.236       24.766       16.932      539.901      613.332      286.706        0.123        0.072       31.242       13.832        0.196      335.815        6.700      868.087
12/29/2013  14:16:00       17.084       21.958       41.040       36.409       51.649       30.150     1325.633     2667.573      909.042        0.368        0.245       27.821       26.981        0.941      335.977        6.969      868.066
12/29/2013  14:17:00       31.398      -50.407       13.217       32.523       48.821       28.760     1057.767     2383.526      827.156        0.398        0.213       59.386       22.461        0.143      335.938        6.906      868.058
12/29/2013  14:18:00       20.875       24.715       35.077       21.585       30.375       24.060      465.923      922.657      578.901        0.212        0.098       32.351       21.413        0.438      335.916        6.868      868.054
12/29/2013  14:19:00       17.717       29.770       58.012       33.901       65.723       36.188     1149.301     4319.500     1309.604        0.567        0.339       34.644       42.955        1.537      336.006        7.018      868.053
12/29/2013  14:20:00       27.539       -0.236       20.784       27.527       53.739       39.319      757.746     2887.857     1546.009        0.319        0.260       27.540       42.968        2.434      336.025        7.050      868.063
12/29/2013  14:21:00       54.903       38.021       11.534       34.175       23.406       24.812     1167.951      547.818      615.645        0.346        0.117       66.783       14.508        0.047      335.888        6.820      868.075
12/29/2013  14:22:00       56.684       25.274        2.105       29.156       31.736       25.197      850.073     1007.177      634.911        0.317        0.125       62.063       14.632        0.056      335.786        6.654      868.092
12/29/2013  14:23:00       38.116       33.604       -1.633       46.373       43.696       25.905     2150.500     1909.339      671.073        0.366        0.237       50.814       19.279        0.144      335.776        6.635      868.109
12/29/2013  14:24:00       47.992       34.184       15.634       33.698       23.899       21.787     1135.561      571.171      474.689        0.295        0.109       58.922        7.398        0.016      335.766        6.620      868.111
12/29/2013  14:25:00       78.804       54.198       19.825       36.832       23.564       25.997     1356.597      555.278      675.862        0.606        0.129       95.642       16.806        0.031      335.633        6.398      868.110
12/29/2013  14:26:00      120.465       77.120       12.109       45.348       42.201       36.618     2056.478     1780.947     1340.906        1.289        0.259      143.036       25.926        0.033      335.654        6.433      868.101
12/29/2013  14:27:00       62.638       65.672       11.605       51.369       42.298       38.494     2638.824     1789.079     1481.772        0.714        0.295       90.754       33.009        0.132      335.747        6.588      868.093
12/29/2013  14:28:00       81.988       81.938       12.495       37.775       42.405       38.192     1426.939     1798.222     1458.641        0.914        0.234      115.913       27.057        0.054      335.723        6.546      868.085
12/29/2013  14:29:00       40.400       63.916       -4.985       18.236       42.517       23.959      332.540     1807.691      574.035        0.423        0.136       75.614       22.522        0.089      335.685        6.485      868.085
12/29/2013  14:30:00       30.215       30.799       10.062       16.824       21.136       16.748      283.051      446.741      280.481        0.149        0.051       43.145       12.317        0.081      335.736        6.568      868.100
12/29/2013  14:31:00       84.311       56.252       26.662       52.646       33.720       39.564     2771.565     1137.037     1565.341        0.823        0.274      101.354       18.824        0.034      335.766        6.620      868.125
12/29/2013  14:32:00      159.128       97.271       41.226       32.370       25.062       34.149     1047.816      628.121     1166.125        1.966        0.142      186.503       14.785        0.006      335.675        6.466      868.153
12/29/2013  14:33:00       80.744       17.838       29.228       59.947       42.887       35.430     3593.607     1839.283     1255.301        0.719        0.334       82.691       29.316        0.126      335.750        6.592      868.185
12/29/2013  14:34:00       -1.206       63.183       69.842       34.085       32.781       31.045     1161.765     1074.572      963.809        0.604        0.160       63.194       20.123        0.101      335.907        6.852      868.197
12/29/2013  14:35:00      120.805       86.177       21.461       66.145       31.314       36.493     4375.198      980.553     1331.705        1.458        0.334      148.392       27.343        0.034      335.856        6.768      868.207
12/29/2013  14:36:00      121.528       88.806       31.936       28.812       35.078       27.232      830.112     1230.439      741.574        1.324        0.140      150.518       16.917        0.013      335.618        6.372      868.232
12/29/2013  14:37:00       58.939       43.959       29.881       34.110       26.351       20.301     1163.462      694.384      412.137        0.428        0.113       73.527       10.649        0.021      335.727        6.554      868.243
12/29/2013  14:38:00       73.879       45.925       14.275       47.280       36.290       30.499     2235.386     1316.978      930.205        0.613        0.224       86.989       22.768        0.069      335.808        6.689      868.240
12/29/2013  14:39:00       61.491       39.249       10.679       36.693       32.910       30.527     1346.402     1083.046      931.869        0.440        0.168       72.949       18.767        0.066      335.815        6.700      868.230
12/29/2013  14:40:00      101.151       48.059       30.840       42.128       44.433       33.308     1774.784     1974.317     1109.453        0.917        0.243      111.987       21.344        0.036      335.850        6.758      868.216
12/29/2013  14:41:00       43.302       63.295       63.494       48.678       41.469       46.935     2369.595     1719.682     2202.933        0.810        0.315       76.690       35.237        0.211      335.958        6.939      868.203
12/29/2013  14:42:00      129.988       82.617       50.027       40.978       34.776       38.206     1679.234     1209.353     1459.690        1.529        0.217      154.021       24.477        0.025      335.863        6.780      868.193
12/29/2013  14:43:00      108.094       86.170       34.828       46.430       38.641       38.432     2155.773     1493.099     1477.009        1.272        0.256      138.237       20.628        0.022      335.693        6.498      868.184
12/29/2013  14:44:00       92.396       66.604       14.705       37.825       31.865       31.426     1430.713     1015.357      987.614        0.831        0.172      113.900       20.286        0.032      335.792        6.662      868.183
12/29/2013  14:45:00       72.579       50.868       19.197       38.592       22.501       24.851     1489.362      506.285      617.583        0.542        0.131       88.630       18.165        0.042      335.776        6.636      868.180
12/29/2013  14:46:00      112.198       64.015        9.936       30.520       23.796       31.968      931.443      566.247     1021.976        0.965        0.126      129.176       13.113        0.010      335.700        6.509      868.192
12/29/2013  14:47:00       81.937       69.162        7.474       29.695       29.141       21.630      881.789      849.183      467.871        0.688        0.110      107.224       19.089        0.032      335.665        6.451      868.201
12/29/2013  14:48:00       64.881       32.359        6.941       39.817       33.411       30.859     1585.380     1116.297      952.255        0.448        0.183       72.503       20.677        0.081      335.767        6.620      868.203
12/29/2013  14:49:00      102.299       62.541       10.968       29.915       32.610       23.715      894.898     1063.386      562.398        0.851        0.126      119.902       17.432        0.021      335.678        6.473      868.201
12/29/2013  14:50:00       74.546       72.153       12.587       19.961       16.528       19.695      398.435      273.163      387.899        0.599        0.053      103.745        7.814        0.006      335.648        6.422      868.199
12/29/2013  14:51:00       58.937       27.157        6.237       12.567       11.263       11.384      157.936      126.844      129.600        0.233        0.021       64.893        5.663        0.008      335.662        6.443      868.202
12/29/2013  14:52:00       31.881       28.298        5.987       21.610       18.485       14.498      467.012      341.702      210.183        0.144        0.051       42.628        8.193        0.037      335.720        6.543      868.197
12/29/2013  14:53:00       49.326       37.218        0.582       28.777       19.143       15.527      828.089      366.471      241.082        0.263        0.072       61.792        7.653        0.015      335.729        6.558      868.198
12/29/2013  14:54:00       73.426       46.200        7.201       38.533       30.798       22.120     1484.797      948.515      489.304        0.525        0.146       86.752       13.980        0.026      335.775        6.634      868.203
12/29/2013  14:55:00       58.354       29.600       10.785       25.920       34.282       28.974      671.826     1175.254      839.477        0.354        0.134       65.432       16.059        0.060      335.876        6.802      868.210
12/29/2013  14:56:00      100.851       45.612       18.379       34.569       27.602       27.707     1195.034      761.893      767.660        0.766        0.136      110.686       15.134        0.019      335.776        6.635      868.217
12/29/2013  14:57:00       40.190       22.144       -0.072       33.748       21.201       15.482     1138.913      449.461      239.685        0.197        0.091       45.887       12.699        0.077      335.806        6.685      868.208
12/29/2013  14:58:00       35.540       31.059       35.288       28.464       27.853       24.420      810.182      775.805      596.336        0.283        0.109       47.199       14.878        0.099      335.896        6.835      868.197
12/29/2013  14:59:00       30.445       39.359       45.958       36.364       34.050       26.009     1322.362     1159.387      676.478        0.387        0.158       49.759       23.579        0.225      335.873        6.796      868.173
12/29/2013  15:00:00       50.958       26.976        3.006       20.049       25.558       22.872      401.965      653.204      523.139        0.246        0.079       57.658       12.833        0.050      335.805        6.684      868.156
12/29/2013  15:01:00       30.380       39.668       -6.533       16.586       21.519       15.858      275.088      463.078      251.482        0.176        0.049       49.965        8.664        0.030      335.781        6.645      868.139
12/29/2013  15:02:00       66.856       40.814       -1.231       19.209       18.690       18.889      368.995      349.309      356.805        0.361        0.054       78.330       11.840        0.023      335.812        6.697      868.145
12/29/2013  15:03:00        2.820       27.678       47.741       26.325       27.496       16.102      693.017      756.037      259.275        0.238        0.085       27.821       15.115        0.295      336.012        7.028      868.178
12/29/2013  15:04:00       55.695       43.656       23.584       44.401       26.997       26.339     1971.425      728.858      693.739        0.448        0.170       70.766       24.884        0.124      335.938        6.905      868.192
12/29/2013  15:05:00       60.617       48.879       14.848       34.171       21.522       21.832     1167.687      463.190      476.658        0.420        0.105       77.869       15.588        0.040      335.776        6.637      868.202
12/29/2013  15:06:00       66.819       45.091       30.725       25.513       21.092       25.639      650.907      444.889      657.371        0.460        0.088       80.610       13.084        0.026      335.834        6.732      868.207
12/29/2013  15:07:00       49.367       27.123       17.939       17.419       15.397       15.835      303.425      237.065      250.756        0.214        0.040       56.327        2.248        0.002      335.823        6.714      868.200
12/29/2013  15:08:00       76.292       42.037       18.841       26.547       22.337       19.833      704.736      498.945      393.354        0.477        0.080       87.107       11.779        0.018      335.816        6.702      868.198
12/29/2013  15:09:00       41.664       26.586       40.361       30.932       26.579       15.318      956.817      706.450      234.643        0.298        0.095       49.424        9.122        0.034      335.930        6.891      868.203
12/29/2013  15:10:00       70.231       26.784       25.610       39.682       23.124       25.168     1574.661      534.742      633.452        0.452        0.137       75.165       17.090        0.052      335.892        6.828      868.214
12/29/2013  15:11:00        3.073       13.076       10.416       11.436       15.685       16.832      130.771      246.034      283.309        0.047        0.033       13.432       10.958        0.666      336.040        7.076      868.220
12/29/2013  15:12:00       18.850       24.211       10.571       27.206       18.879       22.991      740.191      356.407      528.605        0.134        0.081       30.684       18.637        0.369      335.976        6.967      868.232
12/29/2013  15:13:00       23.443       25.399       20.762       18.079       21.796       14.725      326.844      475.055      216.824        0.132        0.051       34.564        7.070        0.042      335.916        6.867      868.244
12/29/2013  15:14:00       11.767       18.967        0.766       10.815       19.597       13.329      116.954      384.031      177.650        0.059        0.034       22.320       14.316        0.411      335.931        6.893      868.250
12/29/2013  15:15:00        4.251       42.740       -1.927       16.665       15.470       14.358      277.716      239.327      206.155        0.129        0.036       42.951        5.764        0.018      335.873        6.797      868.244
12/29/2013  15:16:00       46.216       31.703       16.926       13.737       15.634       13.337      188.716      244.433      177.866        0.202        0.031       56.045        4.674        0.007      335.869        6.790      868.238
12/29/2013  15:17:00       23.776       41.122        6.635       20.738       17.679       16.166      430.057      312.550      261.343        0.165        0.050       47.501       12.754        0.072      335.840        6.742      868.237
12/29/2013  15:18:00       29.638       22.166        3.620       13.229       14.789       15.511      175.018      218.723      240.581        0.101        0.032       37.010       13.187        0.127      335.907        6.854      868.242
12/29/2013  15:19:00       54.058       42.022        7.544       33.805       24.617       23.837     1142.776      606.000      568.189        0.353        0.116       68.470       19.704        0.083      335.876        6.802      868.251
12/29/2013  15:20:00       68.268       58.626       11.490       26.683       23.547       21.623      711.962      554.477      467.551        0.498        0.087       89.986       15.900        0.031      335.801        6.677      868.248
12/29/2013  15:21:00       60.044       37.959        8.262       35.873       25.178       23.390     1286.862      633.928      547.080        0.379        0.123       71.036       14.326        0.041      335.855        6.766      868.243
12/29/2013  15:22:00       75.558       44.951       21.264       21.273       26.054       22.608      452.534      678.833      511.138        0.491        0.082       87.918       10.763        0.015      335.850        6.758      868.240
12/29/2013  15:23:00       35.500       28.331       16.815       28.149       24.667       16.671      792.376      608.483      277.934        0.201        0.084       45.419       12.808        0.080      335.910        6.859      868.233
12/29/2013  15:24:00       56.283       36.104       10.438       23.601       14.156       16.175      557.030      200.402      261.624        0.280        0.051       66.868        8.747        0.017      335.848        6.757      868.228
12/29/2013  15:25:00       16.840       35.850       25.329       26.482       22.378       26.365      701.273      500.772      695.104        0.205        0.095       39.609       21.101        0.284      335.917        6.869      868.209
12/29/2013  15:26:00       31.154       64.971       51.937       22.879       21.422       25.396      523.469      458.905      644.954        0.476        0.081       72.054       16.243        0.051      335.960        6.942      868.198
12/29/2013  15:27:00       39.261       72.839       70.447       43.521       34.923       19.916     1894.048     1219.615      396.644        0.766        0.176       82.746       18.051        0.048      335.921        6.876      868.187
12/29/2013  15:28:00       62.177       30.928        5.014       34.033       23.855       20.208     1158.264      569.076      408.349        0.349        0.107       69.445       18.117        0.068      335.861        6.778      868.179
12/29/2013  15:29:00       59.084       34.710       15.851       19.929       11.432       12.881      397.161      130.693      165.918        0.282        0.035       68.526        6.534        0.009      335.827        6.722      868.183
12/29/2013  15:30:00       87.614       55.632       26.377       22.141       19.111       19.968      490.220      365.247      398.716        0.636        0.063      103.784       12.201        0.014      335.842        6.745      868.187
12/29/2013  15:31:00       37.809       41.830       50.987       24.143       26.390       18.156      582.905      696.423      329.655        0.369        0.080       56.385       17.159        0.093      335.912        6.862      868.206
12/29/2013  15:32:00       50.603       15.843       40.271       21.523       21.495       21.280      463.223      462.017      452.826        0.291        0.069       53.025       16.722        0.099      335.914        6.866      868.207
12/29/2013  15:33:00       24.081       15.966       24.904       20.085       34.726       24.907      403.404     1205.909      620.362        0.184        0.111       28.892       26.006        0.810      335.983        6.980      868.198
12/29/2013  15:34:00       39.858       39.869       47.932       32.183       27.626       23.273     1035.769      763.201      541.618        0.391        0.117       56.376       12.660        0.050      336.002        7.011      868.190
12/29/2013  15:35:00       21.169       50.465       42.333       23.535       20.663       16.473      553.908      426.948      271.371        0.302        0.063       54.725        7.671        0.020      336.003        7.012      868.183
12/29/2013  15:36:00       39.387       46.078       44.244       35.708       22.349       22.032     1275.045      499.465      485.422        0.395        0.113       60.618       18.698        0.095      335.945        6.916      868.191
12/29/2013  15:37:00       79.093       52.640       15.868       27.490       12.747       21.197      755.702      162.494      449.324        0.532        0.068       95.009       16.918        0.032      335.887        6.817      868.199
12/29/2013  15:38:00       40.939       39.876       17.703       28.818       26.398       17.119      830.461      696.868      293.076        0.270        0.091       57.150       12.862        0.051      335.864        6.781      868.190
12/29/2013  15:39:00       18.373       49.718       59.647       31.342       28.722       18.056      982.316      824.959      326.009        0.425        0.107       53.004       15.851        0.089      335.916        6.869      868.175
12/29/2013  15:40:00       61.029       78.550       57.762       38.574       31.033       31.805     1487.966      963.024     1011.557        0.835        0.173       99.472       21.479        0.047      335.934        6.897      868.161
12/29/2013  15:41:00       51.977       78.604       73.200       26.519       30.277       20.807      703.232      916.719      432.937        0.815        0.103       94.235       16.078        0.029      335.957        6.935      868.154
12/29/2013  15:42:00       80.525       62.513       32.478       18.060       21.887       23.496      326.171      479.033      552.065        0.640        0.068      101.942       15.672        0.024      335.903        6.846      868.149
12/29/2013  15:43:00       78.047       47.401       24.698       23.279       21.511       26.099      541.914      462.714      681.178        0.532        0.084       91.314       17.572        0.037      335.903        6.846      868.139
12/29/2013  15:44:00       70.859       41.249       24.225       29.895       24.316       20.636      893.683      591.253      425.861        0.461        0.096       81.991       11.006        0.018      335.896        6.835      868.143
12/29/2013  15:45:00       67.135       43.747       35.696       19.510       14.309       15.978      380.640      204.748      255.306        0.427        0.042       80.130        8.815        0.012      335.834        6.731      868.149
12/29/2013  15:46:00       51.313       25.175       11.363       22.363       15.839       16.759      500.095      250.872      280.872        0.221        0.052       57.156       10.624        0.035      335.849        6.756      868.138
12/29/2013  15:47:00       14.693        1.835       13.853       15.542       20.080       16.014      241.540      403.201      256.449        0.066        0.045       14.807       11.491        0.602      335.955        6.932      868.128
12/29/2013  15:48:00       21.195        4.382       28.698       22.297       33.646       12.218      497.154     1132.055      149.275        0.153        0.089       21.643        6.907        0.102      335.983        6.980      868.123
12/29/2013  15:49:00       18.097       21.372        6.778       24.484       25.491       20.933      599.487      649.807      438.204        0.126        0.084       28.005       12.555        0.201      335.986        6.985      868.125
12/29/2013  15:50:00       62.577       51.441       57.708       33.241       31.158       32.552     1104.987      970.809     1059.627        0.651        0.157       81.006       20.441        0.064      335.925        6.884      868.139
12/29/2013  15:51:00       55.847       47.014       28.114       31.290       26.511       30.889      979.092      702.846      954.133        0.438        0.132       73.001       19.738        0.073      335.956        6.935      868.167
12/29/2013  15:52:00       70.342       49.275       26.969       41.222       30.896       28.427     1699.231      954.562      808.079        0.578        0.173       85.884       25.168        0.086      335.936        6.900      868.186
12/29/2013  15:53:00       75.699       58.450       21.738       23.620       18.289       20.167      557.899      334.485      406.717        0.546        0.065       95.639       12.261        0.016      335.888        6.822      868.193
12/29/2013  15:54:00       74.810       43.956       28.227       30.192       20.996       20.781      911.537      440.830      431.851        0.505        0.089       86.767       14.489        0.028      335.890        6.825      868.207
12/29/2013  15:55:00       87.850       47.532       18.543       25.823       18.619       26.973      666.845      346.656      727.567        0.603        0.087       99.885       16.889        0.029      335.882        6.812      868.211
12/29/2013  15:56:00       89.040       45.415        9.502       28.202       19.027       18.333      795.362      362.027      336.115        0.579        0.075       99.953       14.269        0.020      335.827        6.720      868.211
12/29/2013  15:57:00       87.873       49.676        7.544       21.118       19.849       16.691      445.990      393.978      278.588        0.568        0.056      100.942       10.521        0.011      335.825        6.716      868.213
12/29/2013  15:58:00       90.253       49.652       10.773       24.506       16.396       17.098      600.544      268.815      292.353        0.594        0.058      103.009        8.134        0.006      335.829        6.722      868.218
12/29/2013  15:59:00       71.690       56.255       32.878       27.334       23.063       25.314      747.158      531.902      640.811        0.565        0.096       91.127       14.829        0.026      335.865        6.781      868.213
12/29/2013  16:00:00       70.186       42.506       28.314       29.423       25.977       27.219      865.730      674.785      740.873        0.491        0.114       82.054       18.752        0.052      335.856        6.769      868.222
12/29/2013  16:01:00       41.787       49.193       51.418       22.804       31.741       16.270      520.036     1007.494      264.729        0.430        0.090       64.546       13.060        0.041      335.888        6.821      868.220
12/29/2013  16:02:00       44.264       48.525       41.455       28.187       19.411       18.330      794.531      376.789      335.994        0.377        0.075       65.681       16.095        0.060      335.830        6.726      868.220
12/29/2013  16:03:00       75.623       45.828       25.412       31.644       21.131       24.767     1001.347      446.525      613.409        0.526        0.103       88.426       19.330        0.048      335.852        6.762      868.235
12/29/2013  16:04:00      100.535       50.107       12.686       17.749       18.773       15.172      315.025      352.419      230.195        0.684        0.045      112.330        5.909        0.003      335.799        6.674      868.232
12/29/2013  16:05:00       89.278       52.196       13.659       16.180       16.933       19.245      261.787      286.710      370.380        0.590        0.046      103.417        5.796        0.003      335.773        6.630      868.221
12/29/2013  16:06:00       83.249       47.791       16.720       18.357       16.635       13.235      336.966      276.713      175.175        0.514        0.039       95.991       10.602        0.012      335.735        6.566      868.224
12/29/2013  16:07:00       81.844       42.815       17.973       18.082       15.535       14.041      326.949      241.338      197.158        0.481        0.038       92.366       11.130        0.015      335.764        6.618      868.216
12/29/2013  16:08:00       69.922       46.495       16.655       21.711       17.598       17.082      471.360      309.686      291.778        0.420        0.054       83.969       13.526        0.026      335.743        6.581      868.212
12/29/2013  16:09:00       69.758       36.842        8.580       14.554       19.763       13.905      211.830      390.585      193.342        0.355        0.040       78.889        7.088        0.008      335.752        6.596      868.219
12/29/2013  16:10:00       56.111       39.893        9.983       20.132       13.021       14.580      405.314      169.543      212.586        0.281        0.039       68.847        9.759        0.020      335.707        6.522      868.230
12/29/2013  16:11:00       44.249       35.138        7.541       27.287       15.951       15.856      744.599      254.446      251.410        0.225        0.063       56.504       16.883        0.089      335.723        6.548      868.241
12/29/2013  16:12:00       38.931       34.457       -1.941       15.890       13.001       12.380      252.489      169.035      153.264        0.164        0.029       51.990        9.095        0.031      335.742        6.579      868.243
12/29/2013  16:13:00       33.856       34.083        0.645       19.050       14.001        8.445      362.902      196.022       71.320        0.147        0.032       48.040        3.810        0.006      335.675        6.467      868.248
12/29/2013  16:14:00       27.078       18.386        5.874       14.673       12.856        9.622      215.298      165.276       92.591        0.079        0.024       32.730        5.044        0.024      335.678        6.471      868.235
12/29/2013  16:15:00       39.221       23.682        4.029        9.713        9.706        7.886       94.346       94.201       62.190        0.118        0.013       45.816        4.711        0.011      335.701        6.513      868.223
12/29/2013  16:16:00       35.032       23.146        3.835        6.735        6.623        5.562       45.366       43.859       30.939        0.095        0.006       41.988        3.034        0.005      335.749        6.594      868.196
12/29/2013  16:17:00       31.059       20.206        7.545       11.274       10.312        8.289      127.093      106.340       68.707        0.087        0.015       37.053        6.087        0.027      335.721        6.543      868.180
12/29/2013  16:18:00       27.947       21.618        7.654       13.405        8.955       10.163      179.691       80.195      103.292        0.084        0.018       35.332        6.533        0.034      335.674        6.467      868.153
12/29/2013  16:19:00       39.443       30.788        6.737       19.812       13.416       13.990      392.513      179.987      195.712        0.166        0.038       50.037        8.431        0.028      335.650        6.426      868.149
12/29/2013  16:20:00       61.059       41.160        3.836       14.852       14.425       12.760      220.571      208.077      162.812        0.301        0.030       73.636       10.080        0.019      335.658        6.439      868.137
12/29/2013  16:21:00       66.174       38.202        9.984       19.533       13.383       10.355      381.545      179.099      107.218        0.330        0.033       76.410        9.757        0.016      335.646        6.418      868.139
12/29/2013  16:22:00       53.362       36.105        7.188       13.557       11.560       10.043      183.789      133.624      100.855        0.231        0.021       64.429        6.460        0.010      335.616        6.370      868.146
12/29/2013  16:23:00       50.853       38.713        8.419       15.834       14.041        8.501      250.723      197.162       72.270        0.234        0.026       63.911        4.002        0.004      335.558        6.272      868.166
12/29/2013  16:24:00       53.305       35.364        6.984       15.449       13.660       13.897      238.671      186.607      193.113        0.238        0.031       63.969        3.789        0.004      335.533        6.230      868.169
12/29/2013  16:25:00       55.563       37.265        0.377       14.232       12.315        9.365      202.557      151.670       87.707        0.246        0.022       66.902        3.708        0.003      335.561        6.276      868.173
12/29/2013  16:26:00       67.268       40.858        6.457       15.171       12.140        9.138      230.165      147.383       83.508        0.335        0.023       78.704        5.846        0.006      335.563        6.281      868.176
12/29/2013  16:27:00       64.394       42.318        4.699       19.820       13.511       11.285      392.824      182.549      127.351        0.333        0.035       77.054       10.612        0.019      335.559        6.273      868.181
12/29/2013  16:28:00       75.676       39.508        3.149       15.479       10.160       12.768      239.607      103.235      163.012        0.390        0.025       85.368        6.950        0.007      335.599        6.341      868.169
12/29/2013  16:29:00       72.068       42.340        2.800       17.593       22.920       16.568      309.528      525.335      274.514        0.405        0.055       83.586        5.157        0.004      335.558        6.271      868.165
12/29/2013  16:30:00       84.109       47.564       14.366       16.061       13.018       13.376      257.968      169.481      178.927        0.507        0.030       96.626        7.145        0.005      335.608        6.356      868.153
12/29/2013  16:31:00       87.679       49.354       22.162       19.416       15.366       16.353      376.993      236.126      267.423        0.575        0.044      100.616       12.151        0.015      335.662        6.447      868.151
12/29/2013  16:32:00       73.578       55.707       31.130       16.070       12.638        8.982      258.242      159.731       80.678        0.499        0.025       92.288        5.764        0.004      335.651        6.425      868.143
12/29/2013  16:33:00       68.342       47.503       26.497       19.646       13.760       14.687      385.981      189.342      215.723        0.421        0.040       83.230       11.296        0.018      335.620        6.375      868.154
12/29/2013  16:34:00       75.649       46.386       21.633       14.977       10.246       10.195      224.314      104.978      103.928        0.439        0.022       88.738        5.583        0.004      335.615        6.368      868.156
12/29/2013  16:35:00       76.454       48.667       20.440       19.962       11.815       15.352      398.501      139.588      235.683        0.470        0.039       90.629       11.622        0.016      335.629        6.390      868.170
12/29/2013  16:36:00       86.562       46.797       14.186       19.761       17.069       16.352      390.482      291.338      267.384        0.542        0.047       98.402       11.507        0.014      335.618        6.372      868.183
12/29/2013  16:37:00       82.372       38.898       12.560       21.497       17.598       13.751      462.138      309.675      189.083        0.471        0.048       91.094        9.357        0.011      335.618        6.372      868.186
12/29/2013  16:38:00       82.494       41.594        8.492       18.978       13.515       13.875      360.158      182.648      192.519        0.467        0.037       92.387        8.330        0.008      335.590        6.325      868.181
12/29/2013  16:39:00       73.099       43.800       10.994       19.130       12.144       12.350      365.971      147.479      152.518        0.402        0.033       85.217        7.634        0.008      335.587        6.319      868.168
12/29/2013  16:40:00       64.859       38.717        9.762       16.077       11.288       11.181      258.481      127.419      125.005        0.316        0.026       75.536        7.775        0.011      335.584        6.316      868.163
12/29/2013  16:41:00       53.203       33.843        5.810       17.946        9.033        9.264      322.070       81.586       85.824        0.225        0.024       63.054        9.614        0.023      335.539        6.241      868.155
12/29/2013  16:42:00       58.621       36.408       11.985        9.888        7.594        8.462       97.763       57.669       71.600        0.257        0.011       69.007        2.787        0.002      335.558        6.272      868.148
12/29/2013  16:43:00       37.989       21.628       12.805       17.167       12.066       10.161      294.710      145.590      103.241        0.131        0.027       43.714        7.270        0.028      335.501        6.176      868.156
12/29/2013  16:44:00       37.347       16.412        4.373       21.209       14.748        9.697      449.817      217.508       94.033        0.122        0.038       40.794        7.422        0.033      335.461        6.110      868.168
12/29/2013  16:45:00       51.782       24.882        0.401       12.412       10.134       10.277      154.053      102.707      105.622        0.183        0.018       57.450        7.191        0.016      335.530        6.224      868.177
12/29/2013  16:46:00       43.900       18.382        5.466       15.529        9.107        9.711      241.165       82.929       94.300        0.136        0.021       47.593        4.852        0.010      335.498        6.172      868.193
12/29/2013  16:47:00       49.936       29.376       10.933       11.264       11.445        8.223      126.883      130.999       67.623        0.190        0.016       57.935        4.259        0.005      335.525        6.214      868.201
12/29/2013  16:48:00       33.151       25.782        3.235       10.610       10.613        7.221      112.572      112.628       52.141        0.103        0.014       41.997        5.698        0.018      335.484        6.150      868.210
12/29/2013  16:49:00       33.577       19.944        0.252       13.437       14.716        9.946      180.549      216.561       98.924        0.101        0.025       39.053        8.029        0.042      335.438        6.071      868.224
12/29/2013  16:50:00       13.612        9.851        3.624       18.345       12.467       10.615      336.555      155.429      112.684        0.045        0.030       16.803        8.693        0.268      335.410        6.023      868.215
12/29/2013  16:51:00       19.358       12.394        1.327       11.431       11.638       10.095      130.662      135.431      101.910        0.045        0.018       22.986        7.819        0.116      335.400        6.008      868.200
12/29/2013  16:52:00       21.647        4.791        2.937        6.631        9.702        7.894       43.973       94.126       62.316        0.035        0.010       22.170        4.350        0.038      335.406        6.020      868.202
12/29/2013  16:53:00        5.103        0.438        0.302       11.486        5.559        8.153      131.932       30.904       66.470        0.013        0.011        5.121        5.032        0.965      335.317        5.870      868.192
12/29/2013  16:54:00       24.038        9.918        4.533        9.353       11.588        6.384       87.475      134.273       40.760        0.048        0.013       26.004        4.752        0.033      335.203        5.680      868.179
12/29/2013  16:55:00       18.110       -1.662        6.075       12.350        9.641        6.915      152.535       92.952       47.824        0.033        0.015       18.186        3.403        0.035      335.115        5.535      868.176
12/29/2013  16:56:00       -6.669       -4.318        0.112        9.742        9.958        5.346       94.903       99.161       28.575        0.014        0.011        7.945        4.414        0.309      335.051        5.429      868.162
12/29/2013  16:57:00      -26.503      -23.716      -10.056       14.835       10.500        7.648      220.091      110.246       58.488        0.088        0.019       35.565        7.738        0.047      334.767        4.958      868.163
12/29/2013  16:58:00      -45.456      -17.762      -13.256        8.966       11.133        6.980       80.381      123.943       48.723        0.141        0.013       48.803        1.779        0.001      334.655        4.772      868.167
12/29/2013  16:59:00      -45.796      -14.792       -8.169       12.910       10.701        7.489      166.668      114.505       56.084        0.136        0.017       48.126        3.446        0.005      334.737        4.908      868.177
12/29/2013  17:00:00      -66.983        5.297      -14.435        8.590        8.832       10.533       73.792       77.996      110.952        0.249        0.013       67.192        6.223        0.009      334.836        5.071      868.198
12/29/2013  17:01:00      -69.096        8.522      -12.500       11.567        9.195        8.187      133.785       84.555       67.030        0.264        0.014       69.620        4.335        0.004      334.600        4.680      868.215
12/29/2013  17:02:00      -73.057       -3.623      -17.263       11.946       10.759        7.532      142.699      115.758       56.724        0.298        0.016       73.147        5.493        0.006      334.471        4.464      868.246
12/29/2013  17:03:00      -68.980      -18.476      -15.234       11.783       12.241        7.753      138.830      149.835       60.102        0.284        0.017       71.411        4.438        0.004      334.349        4.264      868.283
12/29/2013  17:04:00      -75.823      -12.905      -13.838       14.488       10.393       10.948      209.892      108.010      119.848        0.327        0.022       76.913        9.589        0.016      334.291        4.168      868.315
12/29/2013  17:05:00      -65.617      -20.585       -3.802       22.964       20.222       13.901      527.331      408.919      193.248        0.294        0.056       68.771        9.556        0.019      334.258        4.112      868.339
12/29/2013  17:06:00      -47.794      -10.691      -10.461       18.571       14.479       13.756      344.866      209.632      189.230        0.163        0.037       48.975        7.727        0.025      334.207        4.028      868.366
12/29/2013  17:07:00      -43.552      -14.833      -19.382       15.307       16.594       10.616      234.292      275.367      112.706        0.156        0.031       46.008        9.553        0.043      334.436        4.407      868.371
12/29/2013  17:08:00      -55.575      -18.301      -17.945       23.359       17.773       11.074      545.635      315.864      122.637        0.236        0.049       58.511        5.734        0.010      334.410        4.365      868.366
12/29/2013  17:09:00      -52.917      -24.516      -13.975       26.835       17.903       13.192      720.115      320.534      174.027        0.241        0.061       58.320       10.247        0.031      334.393        4.336      868.359
12/29/2013  17:10:00      -51.072       -3.447      -10.579       12.835       16.139       10.656      164.725      260.467      113.558        0.164        0.027       51.188        7.493        0.021      334.404        4.354      868.347
12/29/2013  17:11:00      -25.173        5.576       -4.227       28.827       20.064       20.383      831.022      402.551      415.484        0.117        0.082       25.783       14.499        0.316      334.573        4.636      868.339
12/29/2013  17:12:00       14.342       27.863      -10.760       19.862       12.873        9.932      394.487      165.724       98.650        0.088        0.033       31.338       10.021        0.102      334.813        5.034      868.343
12/29/2013  17:13:00       43.848       24.761       10.693       22.423       14.807       11.424      502.784      219.255      130.514        0.175        0.043       50.356       10.546        0.044      334.772        4.966      868.350
12/29/2013  17:14:00       27.559       42.786        4.098       23.867       19.474       18.234      569.615      379.239      332.490        0.194        0.064       50.893       13.783        0.073      334.767        4.957      868.355
12/29/2013  17:15:00       64.193       47.757       -0.285       39.146       26.997       22.753     1532.406      728.859      517.686        0.459        0.139       80.009       18.410        0.053      334.813        5.033      868.370
12/29/2013  17:16:00       33.297       36.761        5.538       32.867       22.080       19.973     1080.232      487.544      398.929        0.223        0.098       49.599       14.775        0.089      334.767        4.957      868.375
12/29/2013  17:17:00       32.742       35.100        5.218       27.687       19.237       15.251      766.578      370.047      232.587        0.185        0.068       48.000        9.839        0.042      334.737        4.907      868.366
12/29/2013  17:18:00       39.754       27.147       -4.209       15.870       13.147       14.079      251.869      172.850      198.216        0.148        0.031       48.139       10.101        0.044      334.747        4.924      868.352
12/29/2013  17:19:00       52.570       28.423       10.247       10.130       13.156        8.414      102.625      173.092       70.801        0.201        0.017       59.762        4.802        0.006      334.756        4.937      868.338
12/29/2013  17:20:00       29.044       30.481       -0.361       10.947       10.938        8.508      119.839      119.637       72.389        0.104        0.016       42.103        5.840        0.019      334.737        4.910      868.330
12/29/2013  17:21:00       17.184       49.162       -6.891       17.696       21.290       14.352      313.157      453.260      205.981        0.187        0.049       52.079       13.113        0.063      334.760        4.945      868.322
12/29/2013  17:22:00       23.055       16.465        1.397       12.088       11.815       10.086      146.126      139.589      101.730        0.060        0.019       28.331        7.824        0.076      334.742        4.915      868.310
12/29/2013  17:23:00        9.901       45.115       -8.749       15.929       21.492       10.054      253.748      461.914      101.073        0.151        0.041       46.189       10.872        0.055      334.744        4.919      868.310
12/29/2013  17:24:00       17.250       60.517       -8.390       16.477       24.638       12.467      271.479      607.044      155.431        0.253        0.052       62.927       14.543        0.053      334.728        4.892      868.313
12/29/2013  17:25:00        2.354       42.517       -3.145       16.947       14.222        6.657      287.215      202.258       44.313        0.118        0.027       42.582        7.621        0.032      334.751        4.930      868.318
12/29/2013  17:26:00       12.236       37.902       -7.930        9.218       10.412        6.323       84.969      108.414       39.984        0.094        0.012       39.828        4.849        0.015      334.717        4.874      868.336
12/29/2013  17:27:00       -6.730       15.311        0.274        9.021        9.287        6.367       81.371       86.241       40.536        0.024        0.010       16.725        6.057        0.131      334.546        4.590      868.348
12/29/2013  17:28:00      -20.484       -5.952       -5.779       15.696        9.115        8.683      246.369       83.085       75.397        0.045        0.020       21.331        6.993        0.107      334.248        4.096      868.370
12/29/2013  17:29:00      -22.328      -11.101      -10.084       26.044       18.287        6.457      678.271      334.410       41.691        0.089        0.053       24.935        6.647        0.071      334.312        4.202      868.380
12/29/2013  17:30:00      -67.847       -8.900      -10.349       10.060       11.622        7.331      101.214      135.075       53.750        0.254        0.015       68.428        5.241        0.006      334.037        3.747      868.398
12/29/2013  17:31:00      -65.788       -3.235       -9.811        6.446        6.005        5.928       41.557       36.059       35.146        0.227        0.006       65.868        2.390        0.001      333.995        3.676      868.411
12/29/2013  17:32:00      -73.157      -11.677      -10.388       17.621        7.790        7.467      310.484       60.689       55.759        0.301        0.021       74.084        6.162        0.007      334.043        3.755      868.415
12/29/2013  17:33:00      -85.254      -14.784       -9.243        9.811       11.111        9.046       96.256      123.462       81.825        0.394        0.015       86.526        5.655        0.004      333.914        3.542      868.416
12/29/2013  17:34:00      -84.584       -7.830      -14.775        7.874        6.401        5.601       62.001       40.979       31.373        0.378        0.007       84.945        3.998        0.002      333.913        3.539      868.410
12/29/2013  17:35:00      -80.982      -11.267      -13.090        7.805        7.237        6.502       60.919       52.368       42.272        0.351        0.008       81.762        2.750        0.001      333.855        3.444      868.405
12/29/2013  17:36:00      -94.477      -27.511      -11.339        6.692        5.565        5.180       44.777       30.972       26.836        0.496        0.005       98.401        2.651        0.001      333.877        3.481      868.398
12/29/2013  17:37:00      -94.793       -7.298      -11.562        9.177       11.278        7.085       84.224      127.182       50.196        0.472        0.013       95.074        3.982        0.002      333.867        3.463      868.387
12/29/2013  17:38:00      -95.487      -14.806      -11.739       18.088        9.351        7.783      327.159       87.436       60.571        0.497        0.024       96.628        9.055        0.009      333.892        3.506      868.376
12/29/2013  17:39:00      -94.387      -15.032       -8.867       13.201       10.079       11.922      174.278      101.583      142.139        0.482        0.021       95.577        7.633        0.006      333.865        3.461      868.373
12/29/2013  17:40:00      -92.864      -14.377      -14.615       12.235       10.075        7.128      149.697      101.500       50.807        0.467        0.015       93.970        4.413        0.002      333.873        3.474      868.373
12/29/2013  17:41:00      -97.778       -8.276       -9.485       13.572       11.933        7.662      184.211      142.408       58.709        0.505        0.019       98.127        3.597        0.001      333.867        3.466      868.376
12/29/2013  17:42:00     -107.988       -7.824      -17.595       14.393       14.013       11.827      207.156      196.377      139.868        0.629        0.027      108.271        7.654        0.005      333.790        3.336      868.387
12/29/2013  17:43:00     -121.732      -17.552      -14.498       20.452       13.836       14.971      418.303      191.448      224.142        0.809        0.042      122.991       10.914        0.008      333.743        3.257      868.402
12/29/2013  17:44:00      -98.716        2.037       -5.626       38.401       21.309       19.437     1474.655      454.061      377.798        0.604        0.115       98.737       20.406        0.043      333.678        3.149      868.421
12/29/2013  17:45:00      -96.580      -29.686       -5.298       26.946       20.023       17.476      726.083      400.919      305.405        0.583        0.072      101.039       16.634        0.027      333.697        3.183      868.433
12/29/2013  17:46:00      -78.376      -24.072       -1.547       24.080       16.109       14.997      579.865      259.496      224.908        0.389        0.053       81.989       15.278        0.035      333.699        3.186      868.448
12/29/2013  17:47:00      -78.627      -38.509        2.040       29.571       19.334       13.950      874.468      373.791      194.592        0.456        0.072       87.551       15.965        0.033      333.764        3.293      868.443
12/29/2013  17:48:00      -76.061      -32.729       -1.494       15.387       15.539       10.355      236.750      241.465      107.236        0.372        0.029       82.804        8.240        0.010      333.719        3.218      868.449
12/29/2013  17:49:00     -102.779      -28.303       -8.810       13.338       10.875        7.919      177.890      118.258       62.705        0.590        0.018      106.605        6.767        0.004      333.748        3.266      868.452
12/29/2013  17:50:00      -92.475      -22.220       -3.532       21.468       16.773       14.020      460.888      281.346      196.571        0.500        0.047       95.107       12.553        0.017      333.664        3.127      868.475
12/29/2013  17:51:00     -110.045      -21.102       -6.854       26.025       17.998       16.839      677.322      323.942      283.563        0.694        0.064      112.050       14.218        0.016      333.624        3.059      868.492
12/29/2013  17:52:00     -123.392      -25.729      -13.638       29.503       15.318       11.900      870.442      234.628      141.603        0.866        0.062      126.045       10.235        0.007      333.511        2.872      868.524
12/29/2013  17:53:00     -122.167      -34.886      -11.394       16.453       19.660       13.269      270.692      386.530      176.064        0.855        0.042      127.050        8.445        0.004      333.435        2.747      868.540
12/29/2013  17:54:00     -122.380      -21.741      -19.623       17.699       17.154       14.055      313.265      294.264      197.539        0.832        0.040      124.297        8.721        0.005      333.425        2.731      868.558
12/29/2013  17:55:00     -118.938      -13.405      -13.830       17.704       15.782       11.127      313.446      249.073      123.800        0.760        0.034      119.691        7.071        0.003      333.409        2.705      868.561
12/29/2013  17:56:00     -103.574      -23.141      -14.911       23.033       18.741       13.939      530.532      351.212      194.288        0.628        0.054      106.127       13.251        0.016      333.376        2.650      868.566
12/29/2013  17:57:00     -105.805      -22.355       -5.020       35.619       26.607       19.767     1268.691      707.955      390.742        0.704        0.118      108.140       23.723        0.048      333.301        2.527      868.568
12/29/2013  17:58:00      -91.709      -10.715      -12.341       31.065       30.982       19.572      965.015      959.877      383.044        0.549        0.115       92.332       17.621        0.036      333.317        2.553      868.589
12/29/2013  17:59:00     -113.405       -2.146      -14.863       18.432       19.321       10.796      339.739      373.306      116.543        0.696        0.041      113.425        8.298        0.005      333.343        2.597      868.597
12/29/2013  18:00:00     -110.058        2.618      -14.244       20.641       13.943       12.273      426.035      194.393      150.621        0.655        0.039      110.089        8.230        0.006      333.551        2.941      868.606
12/29/2013  18:01:00      -74.392       -6.408       -6.485       31.954       19.453       10.623     1021.070      378.410      112.839        0.356        0.076       74.667        9.571        0.016      333.521        2.890      868.605
12/29/2013  18:02:00      -48.744      -37.770       -4.843       21.780       14.907       14.438      474.374      222.233      208.469        0.237        0.045       61.665       12.986        0.044      333.351        2.608      868.598
12/29/2013  18:03:00     -103.508      -43.609       -6.972       19.263       16.120        9.175      371.074      259.853       84.188        0.669        0.036      112.319        7.479        0.004      333.342        2.593      868.606
12/29/2013  18:04:00     -102.339      -49.464       -4.708       14.939       11.479       10.441      223.165      131.779      109.024        0.670        0.023      113.666        7.565        0.004      333.258        2.454      868.611
12/29/2013  18:05:00      -97.126      -34.975       -5.228       15.684       21.189       13.642      245.983      448.994      186.099        0.578        0.044      103.232        8.624        0.007      333.296        2.518      868.620
12/29/2013  18:06:00     -103.918      -18.362      -10.837       30.111       21.676        9.576      906.685      469.856       91.705        0.636        0.073      105.528       10.150        0.009      333.243        2.430      868.627
12/29/2013  18:07:00     -121.000      -12.112      -13.884       16.920       16.669       10.934      286.271      277.857      119.550        0.783        0.034      121.605        5.142        0.002      333.293        2.512      868.648
12/29/2013  18:08:00      -89.799      -32.296       -5.596       17.257       19.621       10.836      297.789      384.989      117.417        0.497        0.040       95.430        5.797        0.004      333.196        2.350      868.654
12/29/2013  18:09:00     -108.981      -16.558      -12.635       16.401       15.575        9.360      268.991      242.591       87.611        0.645        0.030      110.232        7.552        0.005      333.211        2.375      868.669
12/29/2013  18:10:00      -88.593      -20.996       -9.182       23.755       20.112       18.313      564.313      404.497      335.350        0.484        0.065       91.047       14.222        0.024      333.244        2.431      868.672
12/29/2013  18:11:00      -81.558      -37.535       -5.600       19.363       22.598       14.864      374.937      510.656      220.953        0.460        0.055       89.781       11.433        0.016      333.152        2.279      868.671
12/29/2013  18:12:00      -71.567      -34.278       -7.479       24.879       19.816       19.008      618.967      392.663      361.311        0.386        0.069       79.352       12.543        0.025      333.158        2.290      868.671
12/29/2013  18:13:00      -94.368      -34.869      -13.602       21.077       15.124       12.085      444.255      228.730      146.051        0.556        0.041      100.604        9.550        0.009      333.141        2.261      868.665
12/29/2013  18:14:00      -76.535      -35.586       -7.325       23.981       20.210       14.505      575.085      408.448      210.402        0.419        0.060       84.404       11.349        0.018      333.107        2.207      868.666
12/29/2013  18:15:00      -86.086      -45.199      -10.237       29.757       22.905       17.421      885.491      524.662      303.506        0.564        0.086       97.230       14.740        0.023      333.093        2.182      868.666
12/29/2013  18:16:00     -112.084      -55.587      -12.884       26.605       26.313       17.754      707.810      692.386      315.189        0.877        0.086      125.111       14.836        0.014      333.009        2.042      868.670
12/29/2013  18:17:00      -91.046      -31.035        0.955       36.063       30.324       21.434     1300.511      919.553      459.434        0.597        0.134       96.190       20.091        0.044      332.937        1.926      868.678
12/29/2013  18:18:00     -108.525      -22.330       -7.024       21.940       29.320       17.960      481.384      859.652      322.575        0.699        0.083      110.799       10.424        0.009      332.940        1.929      868.673
12/29/2013  18:19:00     -126.782       -6.353       -8.394       24.272       17.973       15.539      589.126      323.034      241.461        0.867        0.058      126.941       11.420        0.008      333.014        2.051      868.675
12/29/2013  18:20:00     -112.066      -13.279      -15.568       13.447       16.872        8.240      180.816      284.650       67.898        0.676        0.027      112.850        5.247        0.002      333.096        2.185      868.660
12/29/2013  18:21:00      -93.419      -13.858      -13.110       29.108       13.969       11.739      847.304      195.147      137.793        0.514        0.059       94.441       13.410        0.020      333.314        2.548      868.664
12/29/2013  18:22:00     -100.806      -23.769      -10.961       17.431       16.581       15.562      303.843      274.937      242.174        0.583        0.041      103.570       11.065        0.011      333.333        2.578      868.664
12/29/2013  18:23:00      -91.753      -18.880      -13.309       13.091       18.158        8.594      171.385      329.713       73.860        0.476        0.029       93.675        6.482        0.005      333.217        2.388      868.669
12/29/2013  18:24:00      -89.994      -14.954      -14.431       13.458       13.860       11.402      181.122      192.095      130.007        0.452        0.025       91.228        6.727        0.005      333.052        2.115      868.667
12/29/2013  18:25:00     -110.901      -11.371       -9.706       22.061       14.798       16.412      486.684      218.968      269.341        0.675        0.049      111.483       10.411        0.009      332.949        1.944      868.656
12/29/2013  18:26:00      -76.240      -17.909       -9.803       21.867       12.870        7.444      478.182      165.626       55.408        0.346        0.035       78.315        5.457        0.005      332.888        1.846      868.645
12/29/2013  18:27:00      -83.643       -8.839      -18.863       11.363       14.169       11.157      129.111      200.751      124.479        0.394        0.023       84.109        5.984        0.005      332.976        1.989      868.630
12/29/2013  18:28:00      -78.694        3.995      -11.106       17.378       11.673       11.287      302.007      136.252      127.396        0.345        0.028       78.795        6.202        0.006      333.012        2.047      868.623
12/29/2013  18:29:00      -54.730      -31.545      -10.128       11.701       12.879       10.395      136.917      165.860      108.046        0.225        0.021       63.170        6.337        0.010      332.992        2.017      868.616
12/29/2013  18:30:00      -74.411      -19.574      -11.431       11.024       14.729        7.897      121.521      216.936       62.357        0.323        0.020       76.942        3.730        0.002      332.954        1.953      868.624
12/29/2013  18:31:00      -76.360      -21.710      -11.288       19.593       14.885       13.584      383.892      221.551      184.523        0.361        0.039       79.386       14.933        0.035      332.847        1.776      868.636
12/29/2013  18:32:00      -87.153      -17.495       -6.374       15.704       13.592        9.559      246.616      184.734       91.375        0.423        0.026       88.892        5.157        0.003      332.764        1.639      868.647
12/29/2013  18:33:00     -103.489      -17.740      -17.155       15.634       16.808       12.425      244.437      282.511      154.382        0.600        0.034      104.998        6.941        0.004      332.702        1.536      868.659
12/29/2013  18:34:00     -111.098      -14.821      -18.559       18.838       14.184       12.518      354.873      201.197      156.701        0.681        0.036      112.083        9.578        0.007      332.715        1.557      868.654
12/29/2013  18:35:00     -112.546      -18.780      -17.489       18.982       13.173       12.636      360.313      173.534      159.667        0.701        0.035      114.102        7.983        0.005      332.724        1.574      868.667
12/29/2013  18:36:00     -116.073      -17.232      -13.348       24.199       17.143       15.732      585.606      293.897      247.508        0.754        0.056      117.345       13.640        0.014      332.670        1.483      868.671
12/29/2013  18:37:00     -123.908      -18.218      -13.748       37.842       19.647       15.227     1432.000      385.989      231.858        0.896        0.102      125.240       14.260        0.013      332.640        1.434      868.688
12/29/2013  18:38:00     -127.853      -32.893      -12.355       22.249       19.960       14.542      495.014      398.406      211.481        0.934        0.055      132.016       11.948        0.008      332.656        1.459      868.695
12/29/2013  18:39:00     -131.528      -44.253      -17.301       27.504       25.540       19.455      756.456      652.274      378.486        1.067        0.089      138.773       18.334        0.017      332.606        1.376      868.703
12/29/2013  18:40:00     -115.209      -64.071      -10.135       37.417       28.412       19.864     1400.045      807.262      394.586        1.004        0.130      131.827       18.712        0.020      332.634        1.423      868.720
12/29/2013  18:41:00     -117.332      -42.039      -12.013       50.001       33.898       17.754     2500.098     1149.103      315.202        0.982        0.198      124.636       19.339        0.024      332.568        1.314      868.728
12/29/2013  18:42:00     -131.989      -22.721       -7.561       33.288       30.407       23.820     1108.062      924.584      567.388        1.030        0.130      133.930       18.960        0.020      332.535        1.259      868.752
12/29/2013  18:43:00      -99.954      -40.026       -0.929       39.808       42.728       22.131     1584.651     1825.652      489.769        0.775        0.195      107.670       13.811        0.016      332.517        1.230      868.762
12/29/2013  18:44:00      -92.403      -32.200        1.220       43.030       41.834       23.798     1851.547     1750.060      566.330        0.687        0.208       97.853       17.207        0.031      332.539        1.266      868.756
12/29/2013  18:45:00     -102.125      -32.102       -2.533       55.939       48.745       25.178     3129.148     2376.064      633.949        0.880        0.307      107.052       25.652        0.057      332.543        1.274      868.756
12/29/2013  18:46:00      -95.321      -33.484       -4.780       36.783       41.752       24.198     1353.025     1743.188      585.542        0.696        0.184      101.032       17.859        0.031      332.528        1.249      868.741
12/29/2013  18:47:00     -114.633      -10.391       -2.527       48.536       41.083       27.211     2355.779     1687.829      740.450        0.902        0.239      115.103       24.456        0.045      332.440        1.105      868.731
12/29/2013  18:48:00      -78.772      -35.184       -9.523       37.123       34.974       17.680     1378.098     1223.170      312.580        0.522        0.146       86.272       14.484        0.028      332.422        1.075      868.716
12/29/2013  18:49:00      -22.440      -22.297        1.362       30.262       22.185       17.568      915.797      492.159      308.623        0.136        0.086       31.634       12.260        0.150      332.438        1.101      868.700
12/29/2013  18:50:00      -85.313       -9.303       -7.264       25.246       23.436       18.867      637.343      549.268      355.971        0.448        0.077       85.819        9.530        0.012      332.446        1.112      868.700
12/29/2013  18:51:00      -98.025      -15.795      -17.137       20.574       16.187       13.894      423.275      262.033      193.036        0.552        0.044       99.290       12.001        0.015      332.408        1.051      868.699
12/29/2013  18:52:00      -77.760      -24.619      -13.646       22.713       22.808       17.116      515.867      520.227      292.959        0.408        0.066       81.564       12.483        0.023      332.487        1.180      868.718
12/29/2013  18:53:00      -81.139      -14.169      -20.192       10.583       12.405       14.206      111.991      153.887      201.802        0.383        0.023       82.367        4.918        0.004      332.483        1.175      868.735
12/29/2013  18:54:00      -91.010      -18.843      -16.406       15.777       14.172       11.639      248.908      200.855      135.459        0.475        0.029       92.940        7.658        0.007      332.474        1.160      868.770
12/29/2013  18:55:00     -103.456      -14.730      -21.594       19.720       14.176       10.780      388.896      200.946      116.198        0.605        0.035      104.499        3.655        0.001      332.457        1.132      868.805
12/29/2013  18:56:00     -115.667      -17.170      -17.427       17.081       13.706       13.186      291.769      187.853      173.877        0.732        0.033      116.934        8.717        0.006      332.366        0.982      868.829
12/29/2013  18:57:00     -108.398      -20.373      -15.987       24.809       23.917       13.138      615.496      572.001      172.600        0.689        0.068      110.296        6.155        0.003      332.385        1.013      868.848
12/29/2013  18:58:00      -97.809      -29.850      -15.046       15.980       20.183       14.888      255.348      407.372      221.642        0.578        0.044      102.262       10.557        0.011      332.455        1.128      868.853
12/29/2013  18:59:00      -97.103      -17.097      -14.378       28.976       29.872       17.583      839.636      892.315      309.178        0.598        0.102       98.597       13.570        0.019      332.464        1.143      868.834
12/29/2013  19:00:00     -102.737       -9.147      -15.253       15.439       16.691       11.752      238.371      278.573      138.110        0.576        0.033      103.143        8.994        0.008      332.444        1.110      868.833
12/29/2013  19:01:00      -91.275      -17.049      -16.038       12.833       18.699        9.847      164.678      349.647       96.956        0.475        0.031       92.854        7.717        0.007      332.518        1.233      868.821
12/29/2013  19:02:00      -86.149      -12.994      -16.629        8.831        8.627        7.514       77.982       74.431       56.453        0.404        0.010       87.124        4.563        0.003      332.504        1.210      868.828
12/29/2013  19:03:00      -87.268       -5.098      -18.733        9.449        7.709        8.563       89.292       59.430       73.333        0.411        0.011       87.417        5.567        0.004      332.456        1.131      868.842
12/29/2013  19:04:00      -78.465      -19.148      -14.312       13.884       25.575       13.360      192.753      654.103      178.478        0.388        0.051       80.768        6.334        0.006      332.443        1.108      868.852
12/29/2013  19:05:00      -81.475      -20.063      -19.521       10.916       10.738        8.321      119.152      115.314       69.244        0.386        0.015       83.909        5.216        0.004      332.351        0.957      868.874
12/29/2013  19:06:00      -70.062      -16.192      -11.626       14.911       14.507        8.536      222.337      210.442       72.865        0.291        0.025       71.908        6.226        0.007      332.419        1.069      868.883
12/29/2013  19:07:00      -54.644       -6.777      -15.265       23.203       12.976       10.374      538.389      168.380      107.613        0.204        0.041       55.063        9.100        0.027      332.533        1.256      868.897
12/29/2013  19:08:00      -54.484        8.667      -13.515       15.331        9.472       11.009      235.039       89.711      121.202        0.184        0.022       55.169        5.835        0.011      332.530        1.253      868.916
12/29/2013  19:09:00      -43.673       10.802       -9.256       16.060       28.879       13.476      257.932      833.989      181.595        0.169        0.064       44.989       12.592        0.078      332.599        1.365      868.921
12/29/2013  19:10:00      -39.007       34.783       -7.579       31.424       37.034       14.487      987.463     1371.508      209.874        0.268        0.128       52.263        8.874        0.029      332.992        2.018      868.930
12/29/2013  19:11:00      -52.946       -5.195      -10.482       21.236       16.563       12.256      450.978      274.317      150.202        0.191        0.044       53.200       10.747        0.041      332.541        1.269      868.934
12/29/2013  19:12:00      -83.161       -3.494      -11.682       20.671       15.713       13.566      427.278      246.908      184.032        0.396        0.043       83.234        7.687        0.009      332.345        0.946      868.942
12/29/2013  19:13:00     -108.837        0.511      -18.583       17.914       13.425       13.673      320.926      180.229      186.944        0.644        0.034      108.838        8.425        0.006      332.256        0.801      868.942
12/29/2013  19:14:00      -90.515        1.732       -9.604       21.346       20.491       12.495      455.666      419.881      156.132        0.466        0.052       90.532        9.256        0.010      332.264        0.814      868.948
12/29/2013  19:15:00      -86.513      -13.672      -10.928       20.291       16.987       10.109      411.740      288.566      102.183        0.430        0.040       87.587       10.793        0.015      332.259        0.805      868.931
12/29/2013  19:16:00      -64.706       -9.417      -11.191       10.645       11.270        8.061      113.311      127.014       64.976        0.235        0.015       65.388        6.775        0.011      332.284        0.846      868.923
12/29/2013  19:17:00      -58.894       -0.075      -11.369       11.672       12.945        9.820      136.234      167.565       96.430        0.200        0.020       58.894        6.157        0.011      332.381        1.007      868.926
12/29/2013  19:18:00      -45.564        5.227      -15.259       28.660       15.772       12.510      821.419      248.767      156.495        0.178        0.061       45.863       15.902        0.120      332.826        1.742      868.935
12/29/2013  19:19:00      -37.029       -2.649       -4.310       23.548       17.639       15.972      554.513      311.139      255.090        0.126        0.056       37.123        8.896        0.057      333.088        2.173      868.951
12/29/2013  19:20:00      -43.394      -16.087      -15.101        9.483       10.292        9.316       89.929      105.921       86.783        0.133        0.014       46.280        7.582        0.027      332.599        1.367      868.983
12/29/2013  19:21:00      -37.897       -3.527       -6.587       22.872       10.985       12.727      523.128      120.659      161.984        0.115        0.040       38.061       11.165        0.086      332.691        1.519      869.001
12/29/2013  19:22:00      -35.985      -16.177        0.975       26.697       19.866       12.674      712.729      394.659      160.630        0.141        0.063       39.454       12.674        0.103      332.675        1.491      869.008
12/29/2013  19:23:00      -67.088        0.584      -11.955       13.392       10.426       11.477      179.343      108.705      131.730        0.253        0.021       67.091        7.623        0.013      332.338        0.936      869.005
12/29/2013  19:24:00      -62.330       10.217      -28.152       19.632       17.721       17.079      385.412      314.022      291.697        0.289        0.050       63.162        9.658        0.023      332.481        1.171      869.000
12/29/2013  19:25:00      -57.387       -1.197       -6.999       30.536       14.558       12.460      932.477      211.947      155.257        0.232        0.065       57.399        6.301        0.012      332.474        1.158      868.985
12/29/2013  19:26:00      -40.893       -4.725      -11.858       24.010       18.561       17.296      576.469      344.518      299.154        0.153        0.061       41.165       10.480        0.065      332.574        1.324      868.982
12/29/2013  19:27:00      -75.597      -11.339       -6.630       19.477       19.788       17.740      379.364      391.579      314.696        0.349        0.054       76.443       12.376        0.026      332.571        1.322      868.985
12/29/2013  19:28:00      -72.855       -0.785       -6.970       14.305        9.054       16.937      204.646       81.976      286.869        0.297        0.029       72.859        4.618        0.004      332.380        1.005      868.991
12/29/2013  19:29:00      -78.976      -19.956      -14.310       14.642       20.488       15.322      214.383      419.769      234.772        0.385        0.043       81.458        8.258        0.010      332.385        1.012      868.992
12/29/2013  19:30:00      -54.143        0.133       -8.516       20.405       22.009       15.055      416.349      484.418      226.647        0.207        0.056       54.144        5.506        0.010      332.295        0.864      868.999
12/29/2013  19:31:00      -58.043       -3.168      -10.773       16.829       14.617       15.242      283.214      213.670      232.328        0.211        0.036       58.130       10.561        0.033      332.349        0.954      869.015
12/29/2013  19:32:00      -57.163       12.973      -13.634       22.249       15.344       12.873      495.008      235.447      165.706        0.226        0.045       58.617       10.975        0.035      332.577        1.331      869.016
12/29/2013  19:33:00      -54.700        2.740      -15.253       13.776        7.199        8.197      189.777       51.822       67.194        0.177        0.015       54.768        5.173        0.009      332.607        1.380      869.017
12/29/2013  19:34:00      -52.285      -14.650      -11.690       10.902        9.833        8.033      118.864       96.696       64.530        0.168        0.014       54.298        7.717        0.020      332.463        1.142      869.021
12/29/2013  19:35:00      -48.428      -18.364       -7.193       11.779        9.575        8.425      138.744       91.685       70.985        0.152        0.015       51.793        5.337        0.011      332.292        0.860      869.032
12/29/2013  19:36:00      -51.738      -15.249      -13.651        9.381       15.245        8.481       88.009      232.417       71.936        0.174        0.020       53.938        6.460        0.014      332.294        0.863      869.030
12/29/2013  19:37:00      -63.854      -11.345      -14.059       13.415       12.853       10.172      179.959      165.192      103.478        0.243        0.022       64.854        4.962        0.006      332.436        1.097      869.032
12/29/2013  19:38:00      -58.893      -18.605       -7.242       12.923       13.964        9.984      166.998      195.002       99.686        0.216        0.023       61.762        7.251        0.014      332.257        0.803      869.039
12/29/2013  19:39:00      -52.747      -26.278      -13.414       10.996       14.910        8.863      120.920      222.322       78.553        0.204        0.021       58.930        6.421        0.012      332.214        0.730      869.042
12/29/2013  19:40:00      -50.362      -24.566      -14.027        8.803       13.750       12.326       77.495      189.057      151.937        0.188        0.021       56.033        8.901        0.025      332.198        0.706      869.035
12/29/2013  19:41:00      -65.513      -30.138      -12.907       16.247       12.878        8.319      263.973      165.854       69.201        0.293        0.025       72.113        6.777        0.009      332.147        0.621      869.027
12/29/2013  19:42:00      -56.149      -29.293      -11.034       17.346       17.071       10.220      300.889      291.424      104.452        0.241        0.035       63.330        8.847        0.020      332.165        0.650      869.022
12/29/2013  19:43:00      -66.664      -32.781      -13.215       14.188       16.242       11.516      201.301      263.807      132.609        0.315        0.030       74.288        7.273        0.010      332.131        0.594      869.011
12/29/2013  19:44:00      -76.563      -25.598      -17.705       15.214       22.261       14.271      231.478      495.530      203.674        0.388        0.047       80.729        7.954        0.010      332.081        0.511      868.992
12/29/2013  19:45:00      -70.144      -20.783      -17.112       14.013       19.549       10.680      196.358      382.163      114.063        0.317        0.035       73.158        8.004        0.012      332.138        0.604      868.973
12/29/2013  19:46:00      -77.891      -15.238      -18.615       10.387       11.739        7.196      107.882      137.799       51.777        0.347        0.015       79.367        3.939        0.002      332.125        0.584      868.957
12/29/2013  19:47:00      -71.147      -19.557      -11.462       24.196       19.787       13.540      585.432      391.535      183.318        0.337        0.058       73.786       14.219        0.037      332.119        0.575      868.950
12/29/2013  19:48:00      -45.337      -20.227      -12.846       15.196       14.133       10.849      230.925      199.744      117.695        0.159        0.027       49.645        8.305        0.028      332.280        0.840      868.947
12/29/2013  19:49:00      -64.129       -6.153      -10.647       13.548       12.117       10.716      183.536      146.827      114.830        0.235        0.022       64.424        6.458        0.010      332.213        0.731      868.938
12/29/2013  19:50:00      -23.580       -0.448       -1.986       37.191       18.562       19.959     1383.145      344.549      398.374        0.134        0.106       23.584       18.636        0.624      332.470        1.154      868.933
12/29/2013  19:51:00      -16.387       24.935       -9.343       29.561       24.736       15.257      873.836      611.889      232.769        0.135        0.086       29.838       14.410        0.233      332.727        1.577      868.924
12/29/2013  19:52:00       -6.215       68.636       -4.482       21.747       27.358        9.453      472.924      748.483       89.363        0.304        0.066       68.917        6.333        0.008      332.932        1.917      868.919
12/29/2013  19:53:00        1.067       65.573       -2.076       18.670       43.816       10.412      348.577     1919.812      108.403        0.334        0.119       65.582       18.219        0.077      333.033        2.084      868.915
12/29/2013  19:54:00       -5.273       96.698       -5.784       20.028       34.287       13.590      401.138     1175.599      184.681        0.559        0.088       96.842       14.522        0.022      333.031        2.078      868.913
12/29/2013  19:55:00       -6.302      112.215      -10.795       20.630       21.080       15.051      425.610      444.351      226.534        0.692        0.055      112.392       12.550        0.012      333.081        2.162      868.910
12/29/2013  19:56:00       14.911      119.995      -16.929       21.208       20.141       10.521      449.759      405.661      110.692        0.794        0.048      120.918       10.591        0.008      333.103        2.201      868.913
12/29/2013  19:57:00        9.527      117.730      -17.298       29.064       24.803       10.171      844.695      615.172      103.446        0.791        0.078      118.115       11.033        0.009      333.121        2.229      868.928
12/29/2013  19:58:00       -0.165      129.932      -16.857       26.444       25.745       14.031      699.302      662.818      196.868        0.936        0.078      129.932       11.646        0.008      333.151        2.277      868.932
12/29/2013  19:59:00       -5.183      117.656      -15.722       22.086       17.350       11.424      487.801      301.019      130.512        0.752        0.046      117.770       11.289        0.009      333.106        2.204      868.945
12/29/2013  20:00:00       -7.673      127.267      -12.574       15.512       23.953       11.360      240.635      573.735      129.047        0.868        0.047      127.498       10.132        0.006      333.132        2.246      868.960
12/29/2013  20:01:00       -2.122      137.070      -18.227       12.895       20.361       10.553      166.288      414.583      111.375        0.991        0.035      137.086        8.381        0.004      333.066        2.138      868.959
12/29/2013  20:02:00        9.192      134.045      -16.199       19.064       22.186       12.777      363.437      492.224      163.243        0.967        0.051      134.360       11.226        0.007      333.003        2.032      868.968
12/29/2013  20:03:00        6.385      116.609      -13.261       23.340       20.851       15.156      544.744      434.771      229.693        0.751        0.060      116.783       11.602        0.010      332.933        1.919      868.969
12/29/2013  20:04:00       25.973      130.952      -19.839       27.607       21.710       15.056      762.145      471.318      226.693        0.984        0.073      133.503       11.066        0.007      332.899        1.862      868.978
12/29/2013  20:05:00       -4.369      134.213      -19.698       26.785       25.429       12.276      717.443      646.614      150.691        0.997        0.076      134.284        7.484        0.003      332.926        1.907      868.983
12/29/2013  20:06:00      -12.817      141.655      -17.350       23.216       23.535       11.304      538.992      553.904      127.790        1.088        0.061      142.233        9.421        0.004      332.931        1.916      868.986
12/29/2013  20:07:00       -7.569      139.148      -20.309       26.107       19.244       13.859      681.562      370.338      192.077        1.054        0.062      139.354       10.690        0.006      332.864        1.805      869.000
12/29/2013  20:08:00       -9.798      124.775      -13.521       30.363       24.178       16.234      921.898      584.594      263.532        0.881        0.089      125.160       11.467        0.008      332.885        1.840      869.010
12/29/2013  20:09:00      -16.266      155.290      -15.691       20.747       22.987       13.627      430.438      528.393      185.708        1.288        0.057      156.140       11.518        0.005      332.958        1.960      869.012
12/29/2013  20:10:00       -5.418      162.874      -20.995       21.142       26.776       12.722      446.976      716.931      161.860        1.416        0.066      162.965        9.521        0.003      332.961        1.965      869.015
12/29/2013  20:11:00        1.850      148.200      -21.952       18.653       18.824       13.064      347.930      354.357      170.657        1.166        0.044      148.211        8.710        0.003      332.874        1.823      869.018
12/29/2013  20:12:00        7.100      145.788      -21.010       18.251       21.199       12.735      333.105      449.378      162.191        1.135        0.047      145.961       12.130        0.007      332.844        1.772      869.026
12/29/2013  20:13:00       -1.782      161.595      -25.809       17.388       24.121       12.341      302.330      581.846      152.289        1.391        0.052      161.605        9.287        0.003      332.861        1.801      869.031
12/29/2013  20:14:00       -0.427      155.596      -22.036       27.451       20.952       11.445      753.570      438.972      130.984        1.301        0.066      155.596        8.126        0.003      332.851        1.784      869.041
12/29/2013  20:15:00       24.575      173.685      -26.834       27.048       29.624       12.918      731.596      877.604      166.867        1.663        0.089      175.415       12.041        0.005      332.803        1.703      869.058
12/29/2013  20:16:00       30.222      123.496      -16.164       24.860       38.210       18.223      618.012     1459.994      332.061        0.942        0.121      127.140       15.932        0.016      332.770        1.648      869.075
12/29/2013  20:17:00       20.117      104.606       -3.497       35.741       46.221       31.549     1277.441     2136.412      995.317        0.788        0.220      106.523       33.088        0.096      332.762        1.636      869.085
12/29/2013  20:18:00       32.540       75.527       -5.129       27.687       42.033       25.425      766.558     1766.742      646.434        0.498        0.159       82.238       23.956        0.085      332.794        1.690      869.092
12/29/2013  20:19:00       32.931       57.243        3.310       37.786       31.792       27.380     1427.771     1010.708      749.665        0.378        0.159       66.040       18.905        0.082      332.802        1.703      869.091
12/29/2013  20:20:00       46.912       43.452        9.309       32.087       32.184       28.356     1029.588     1035.802      804.064        0.352        0.143       63.944       17.834        0.078      332.863        1.803      869.087
12/29/2013  20:21:00       18.984       63.305       -4.884       20.709       23.531       16.894      428.869      553.719      285.415        0.283        0.063       66.090       13.903        0.044      332.807        1.711      869.083
12/29/2013  20:22:00       22.210       90.398      -13.746       12.351       17.209       10.390      152.557      296.139      107.944        0.471        0.028       93.086       10.140        0.012      332.916        1.891      869.083
12/29/2013  20:23:00       11.465       98.213      -14.925       12.801       11.203        6.678      163.857      125.516       44.597        0.517        0.017       98.879        4.539        0.002      332.924        1.904      869.095
12/29/2013  20:24:00       11.535      108.000      -17.505       16.585       24.420        9.457      275.064      596.340       89.444        0.653        0.048      108.615        9.330        0.007      332.974        1.985      869.104
12/29/2013  20:25:00        0.841       96.534      -14.347        7.586       17.232        8.299       57.549      296.941       68.870        0.497        0.021       96.538        7.578        0.006      332.938        1.926      869.116
12/29/2013  20:26:00      -11.985       77.347       -8.409       15.812       23.918       12.179      250.009      572.080      148.336        0.358        0.049       78.270        9.077        0.013      333.100        2.194      869.130
12/29/2013  20:27:00      -39.936      -11.424       -5.187       25.740       18.396       11.565      662.560      338.428      133.739        0.144        0.057       41.537        5.755        0.019      332.375        0.997      869.139
12/29/2013  20:28:00      -58.555        8.436      -16.885       17.043       12.179        8.487      290.480      148.316       72.036        0.215        0.026       59.160        3.327        0.003      332.191        0.693      869.156
12/29/2013  20:29:00      -45.113       -8.570      -11.254       12.612       10.941        8.066      159.060      119.714       65.053        0.129        0.017       45.919        6.026        0.017      332.257        0.801      869.177
12/29/2013  20:30:00      -37.419       -6.318      -13.143       16.495        9.881        6.648      272.072       97.643       44.198        0.101        0.021       37.949        4.833        0.016      332.138        0.607      869.205
12/29/2013  20:31:00      -24.494       -7.194      -11.950       13.184       19.011        7.697      173.808      361.426       59.240        0.069        0.030       25.529        7.591        0.088      332.154        0.632      869.224
12/29/2013  20:32:00      -40.583      -11.233      -10.891        8.274        8.488        8.555       68.454       72.043       73.189        0.105        0.011       42.109        5.880        0.019      332.242        0.778      869.236
12/29/2013  20:33:00      -44.788      -10.790      -11.207       17.050       10.984       13.116      290.707      120.653      172.038        0.142        0.029       46.070       11.913        0.067      332.234        0.764      869.243
12/29/2013  20:34:00      -61.263       -7.673      -12.955       12.778       12.425        9.382      163.290      154.380       88.024        0.219        0.020       61.742        8.058        0.017      332.071        0.496      869.255
12/29/2013  20:35:00      -59.720      -13.999      -20.940        8.933       16.152       11.223       79.793      260.875      125.949        0.233        0.023       61.339       10.528        0.029      332.120        0.576      869.263
12/29/2013  20:36:00      -63.817       -3.532       -2.632       13.357       15.493       15.259      178.417      240.035      232.836        0.237        0.033       63.915        7.272        0.013      332.030        0.429      869.269
12/29/2013  20:37:00      -51.202       -9.644      -14.712       14.606       13.474        8.006      213.334      181.551       64.103        0.169        0.023       52.103        5.602        0.012      332.157        0.639      869.262
12/29/2013  20:38:00      -31.227      -19.536       -9.011       16.779       12.619       12.119      281.526      159.237      146.864        0.101        0.029       36.835        7.262        0.039      332.021        0.414      869.251
12/29/2013  20:39:00      -49.120      -18.414       -5.476       16.304       15.181       14.008      265.816      230.454      196.216        0.174        0.035       52.458       10.186        0.038      331.997        0.375      869.244
12/29/2013  20:40:00      -64.547       -5.500       -8.539       17.554       11.672        8.213      308.146      136.233       67.445        0.239        0.026       64.781        4.514        0.005      331.944        0.286      869.243
12/29/2013  20:41:00      -90.411       -6.761      -15.972       18.665       17.590       13.093      348.398      309.407      171.438        0.465        0.041       90.663        7.888        0.008      331.914        0.236      869.237
12/29/2013  20:42:00      -88.714      -10.711      -17.544       13.947       18.734        9.362      194.513      350.975       87.648        0.446        0.032       89.359        7.791        0.008      331.912        0.232      869.241
12/29/2013  20:43:00      -85.708      -17.913      -16.743       14.080       17.143       12.695      198.251      293.882      161.173        0.430        0.033       87.560       10.011        0.013      331.915        0.238      869.248
12/29/2013  20:44:00      -79.438      -16.970      -15.121       15.084       16.969        9.718      227.527      287.931       94.448        0.372        0.030       81.230        9.204        0.013      331.878        0.176      869.248
12/29/2013  20:45:00      -98.543       -6.102      -17.434       11.538       10.411       12.263      133.127      108.391      150.369        0.522        0.020       98.732        5.578        0.003      331.951        0.299      869.241
12/29/2013  20:46:00      -84.915      -14.415      -15.704       16.783       19.706       15.283      281.664      388.316      233.575        0.428        0.045       86.130       13.438        0.024      332.007        0.390      869.229
12/29/2013  20:47:00      -82.607      -16.446      -12.502       24.090       16.814       13.904      580.334      282.726      193.329        0.415        0.053       84.229        9.255        0.012      331.932        0.266      869.230
12/29/2013  20:48:00      -94.991      -16.412      -12.805       22.407       16.100       12.433      502.086      259.209      154.584        0.519        0.046       96.399        9.060        0.009      331.920        0.246      869.237
12/29/2013  20:49:00      -95.968      -19.402      -19.157       20.708       19.129       14.972      428.841      365.925      224.161        0.549        0.051       97.909       11.411        0.014      331.919        0.246      869.236
12/29/2013  20:50:00      -82.802      -28.690      -15.232       31.947       21.997       19.004     1020.582      483.861      361.143        0.489        0.093       87.631       14.206        0.026      331.910        0.229      869.229
12/29/2013  20:51:00      -93.751      -13.456      -20.510       14.281       15.322       10.149      203.938      234.765      102.999        0.497        0.027       94.711        6.263        0.004      331.862        0.151      869.215
12/29/2013  20:52:00      -83.467      -14.493      -18.872       19.001       20.846       10.965      361.040      434.544      120.227        0.422        0.046       84.716       10.844        0.016      331.925        0.256      869.212
12/29/2013  20:53:00      -69.895      -12.239      -10.429       15.733       15.055       12.764      247.532      226.664      162.929        0.289        0.032       70.958        4.904        0.005      331.916        0.240      869.214
12/29/2013  20:54:00      -78.944       -7.715      -10.121       21.551       12.903       11.231      464.454      166.496      126.141        0.358        0.038       79.320        8.727        0.012      331.920        0.246      869.223
12/29/2013  20:55:00      -74.655        0.136      -16.264       12.115        8.295        8.613      146.784       68.803       74.188        0.306        0.014       74.655        6.416        0.007      331.927        0.258      869.231
12/29/2013  20:56:00      -65.180       -1.846      -14.648        9.871       10.665        8.381       97.434      113.740       70.249        0.237        0.014       65.206        3.145        0.002      331.963        0.317      869.250
12/29/2013  20:57:00      -82.311       -4.958      -14.356       13.956       12.066       11.194      194.766      145.592      125.298        0.374        0.023       82.460        8.246        0.010      331.890        0.198      869.279
12/29/2013  20:58:00      -93.954       -2.482      -11.718       22.743       16.062       11.734      517.238      257.972      137.690        0.494        0.046       93.987        8.051        0.007      331.906        0.222      869.312
12/29/2013  20:59:00      -99.430       -9.282      -17.587       13.194       10.999        9.669      174.090      120.977       93.484        0.534        0.019       99.862        5.897        0.003      331.826        0.092      869.328
12/29/2013  21:00:00     -106.179       -8.368      -17.421       19.034       17.634       10.119      362.306      310.960      102.386        0.621        0.039      106.508        7.546        0.005      331.760       -0.017      869.337
12/29/2013  21:01:00      -95.010      -16.298      -15.742       14.679       13.817       10.898      215.462      190.903      118.768        0.503        0.026       96.398        9.004        0.009      331.720       -0.083      869.337
12/29/2013  21:02:00      -78.019      -28.386      -10.739       18.071       21.953       12.118      326.546      481.937      146.842        0.398        0.048       83.022       12.259        0.022      331.723       -0.078      869.333
12/29/2013  21:03:00     -102.898       -9.093      -14.919       22.440       14.804       13.672      503.531      219.162      186.934        0.590        0.045      103.299       12.708        0.015      331.758       -0.022      869.320
12/29/2013  21:04:00      -80.755      -18.080      -16.545       16.828        8.823       10.259      283.185       77.846      105.250        0.379        0.023       82.754        9.637        0.014      331.812        0.068      869.313
12/29/2013  21:05:00      -91.323      -15.928      -14.354        8.575       10.985        7.812       73.534      120.669       61.027        0.453        0.013       92.702        3.451        0.001      331.727       -0.070      869.310
12/29/2013  21:06:00      -97.665      -35.298      -15.419       11.000        9.588       10.862      121.010       91.936      117.987        0.568        0.017      103.848        4.461        0.002      331.763       -0.012      869.313
12/29/2013  21:07:00      -85.366      -42.026      -10.055       13.772       16.511       11.744      189.671      272.621      137.925        0.488        0.030       95.151        7.324        0.006      331.764       -0.011      869.319
12/29/2013  21:08:00      -92.614      -31.227       -9.090       13.387       18.223       10.866      179.205      332.076      118.066        0.513        0.031       97.737        8.927        0.008      331.748       -0.039      869.319
12/29/2013  21:09:00      -92.517      -42.868       -9.666       22.572       23.139       13.219      509.479      535.430      174.731        0.585        0.061      101.966       11.206        0.012      331.762       -0.015      869.316
12/29/2013  21:10:00      -80.018      -24.111       -9.716       13.693       18.802       14.430      187.504      353.504      208.217        0.391        0.037       83.571       11.034        0.017      331.697       -0.119      869.328
12/29/2013  21:11:00      -97.580      -42.962      -10.144       13.569       14.945       14.223      184.115      223.346      202.302        0.604        0.030      106.619        8.136        0.006      331.710       -0.099      869.335
12/29/2013  21:12:00     -102.684      -43.801       -8.195       17.976       17.435       12.835      323.144      303.995      164.731        0.666        0.040      111.635        7.173        0.004      331.714       -0.092      869.346
12/29/2013  21:13:00      -97.941      -19.388      -11.115       11.168       12.157        9.650      124.725      147.796       93.128        0.523        0.018       99.841        3.842        0.001      331.693       -0.126      869.356
12/29/2013  21:14:00      -92.596      -10.536      -17.020        9.232        8.547        9.299       85.223       73.058       86.476        0.461        0.012       93.194        3.124        0.001      331.664       -0.173      869.370
12/29/2013  21:15:00      -90.131      -26.720      -15.947        9.597       13.500       10.123       92.109      182.263      102.476        0.473        0.019       94.008        4.498        0.002      331.650       -0.196      869.363
12/29/2013  21:16:00      -67.807      -44.955       -3.235       19.500       13.052       14.914      380.241      170.367      222.427        0.370        0.039       81.356       10.618        0.017      331.663       -0.175      869.353
12/29/2013  21:17:00      -68.326      -35.577       -7.879       23.435       20.137       16.043      549.206      405.500      257.380        0.360        0.061       77.034       11.254        0.021      331.656       -0.186      869.339
12/29/2013  21:18:00      -84.686      -21.641       -6.453       30.343       21.546       13.690      920.708      464.232      187.413        0.463        0.079       87.408       10.824        0.015      331.622       -0.244      869.332
12/29/2013  21:19:00      -67.402       -6.209       -3.632       20.960       21.680       15.368      439.307      470.043      236.169        0.287        0.057       67.688       10.669        0.025      331.559       -0.348      869.333
12/29/2013  21:20:00      -67.543       -4.218       -9.070       14.520       18.866       12.556      210.820      355.929      157.662        0.269        0.036       67.674        7.521        0.012      331.605       -0.272      869.334
12/29/2013  21:21:00      -63.179       -6.055       -6.621       13.601       13.526        9.173      184.991      182.942       84.150        0.226        0.023       63.469        6.728        0.011      331.556       -0.355      869.335
12/29/2013  21:22:00      -46.207      -18.216       -7.819       12.888       17.774       12.841      166.092      315.906      164.884        0.159        0.032       49.668        7.735        0.024      331.595       -0.290      869.332
12/29/2013  21:23:00      -52.427       -3.444      -12.277       10.109        7.568        5.863      102.194       57.269       34.376        0.155        0.010       52.540        2.997        0.003      331.661       -0.179      869.323
12/29/2013  21:24:00      -47.690       -0.368      -13.972        9.263        6.187        6.545       85.809       38.282       42.839        0.132        0.008       47.691        2.044        0.002      331.684       -0.142      869.322
12/29/2013  21:25:00      -39.619       -4.261       -4.475        8.042        8.783        5.709       64.667       77.135       32.593        0.089        0.009       39.847        3.253        0.007      331.751       -0.031      869.322
12/29/2013  21:26:00      -44.528       -5.436       -5.919       13.208       16.045        7.761      174.450      257.441       60.231        0.127        0.025       44.859        6.392        0.020      331.739       -0.051      869.338
12/29/2013  21:27:00      -60.309      -18.153       -7.202       15.106       15.173       10.794      228.180      230.211      116.516        0.230        0.029       62.982        7.536        0.014      331.617       -0.254      869.354
12/29/2013  21:28:00      -66.937      -20.239      -15.711       12.164       10.320        7.735      147.952      106.511       59.833        0.273        0.016       69.930        5.871        0.007      331.557       -0.351      869.361
12/29/2013  21:29:00      -66.853      -12.124      -12.897       17.621       12.525       11.294      310.503      156.880      127.550        0.269        0.030       67.944       10.439        0.024      331.533       -0.392      869.367
12/29/2013  21:30:00     -100.309      -17.915      -18.963       10.961       17.082       12.685      120.133      291.779      160.917        0.566        0.029      101.896        5.120        0.003      331.473       -0.491      869.367
12/29/2013  21:31:00      -88.911      -24.021      -16.902       18.161       20.120       14.179      329.830      404.806      201.035        0.485        0.047       92.099       10.694        0.013      331.469       -0.496      869.355
12/29/2013  21:32:00      -80.121      -31.056       -9.808       20.079       21.099       14.302      403.158      445.155      204.533        0.427        0.053       85.929        8.606        0.010      331.461       -0.509      869.353
12/29/2013  21:33:00      -85.629      -10.945       -7.215       32.368       29.661       18.856     1047.681      879.773      355.561        0.489        0.114       86.326       13.081        0.023      331.462       -0.507      869.347
12/29/2013  21:34:00     -123.018       -5.615      -13.759       27.793       27.933       17.751      772.469      780.238      315.111        0.861        0.093      123.146       13.273        0.012      331.383       -0.638      869.353
12/29/2013  21:35:00     -131.848       -2.025      -15.475       39.701       26.227       25.179     1576.205      687.852      633.992        1.026        0.145      131.863       21.431        0.026      331.419       -0.578      869.359
12/29/2013  21:36:00      -74.772       -7.666      -12.003       39.999       27.582       22.177     1599.899      760.760      491.817        0.432        0.143       75.164       21.460        0.082      331.402       -0.606      869.356
12/29/2013  21:37:00      -51.344       -5.051       -9.274       28.146       23.460       15.105      792.176      550.354      228.168        0.216        0.079       51.592       14.587        0.080      331.380       -0.642      869.357
12/29/2013  21:38:00      -24.910      -14.654       -7.947       19.076       23.265       16.366      363.875      541.259      267.833        0.104        0.059       28.900       10.986        0.145      331.375       -0.649      869.361
12/29/2013  21:39:00      -80.933      -22.095      -10.936       24.663       19.257       15.279      608.255      370.814      233.453        0.419        0.061       83.895        7.436        0.008      331.344       -0.701      869.363
12/29/2013  21:40:00      -78.831      -29.792      -20.326       18.283       22.105       14.662      334.277      488.632      214.986        0.428        0.052       84.273       10.509        0.016      331.455       -0.521      869.361
12/29/2013  21:41:00      -70.279      -32.211      -10.098       19.632       17.027       18.556      385.405      289.905      344.308        0.355        0.051       77.310        9.287        0.014      331.403       -0.605      869.368
12/29/2013  21:42:00      -69.307      -23.946      -17.794       16.675       23.040       16.779      278.054      530.839      281.522        0.339        0.055       73.327       15.098        0.042      331.423       -0.572      869.381
12/29/2013  21:43:00      -78.667      -12.646      -18.027       20.302       16.863       12.866      412.177      284.364      165.529        0.377        0.043       79.677       11.071        0.019      331.382       -0.640      869.378
12/29/2013  21:44:00      -67.678      -36.126      -13.172       20.299       18.709       12.463      412.031      350.021      155.326        0.349        0.046       76.716        9.679        0.016      331.431       -0.558      869.373
12/29/2013  21:45:00      -55.590      -25.193      -11.552       15.143       13.346        9.202      229.325      178.103       84.668        0.218        0.025       61.033        7.993        0.017      331.449       -0.531      869.373
12/29/2013  21:46:00      -53.609      -23.622       -9.024       13.835        9.572        8.173      191.420       91.628       66.801        0.193        0.017       58.583        5.809        0.010      331.460       -0.511      869.366
12/29/2013  21:47:00      -75.769      -27.628      -11.221       12.206       12.653        8.561      148.975      160.091       73.289        0.351        0.019       80.649        6.345        0.006      331.432       -0.558      869.380
12/29/2013  21:48:00      -63.578      -44.426      -16.652       14.490       14.206       12.428      209.947      201.808      154.444        0.343        0.028       77.562        9.107        0.014      331.514       -0.422      869.379
12/29/2013  21:49:00      -67.520      -31.464      -16.711       14.012       14.323       12.805      196.343      205.136      163.981        0.320        0.028       74.491        8.542        0.013      331.519       -0.414      869.375
12/29/2013  21:50:00      -84.498      -37.391       -8.636       17.675       14.206       12.761      312.410      201.809      162.842        0.464        0.034       92.402       12.638        0.019      331.457       -0.517      869.378
12/29/2013  21:51:00      -70.915      -48.602      -16.833       23.268       19.852       13.537      541.380      394.111      183.258        0.440        0.056       85.972        6.960        0.007      331.447       -0.533      869.380
12/29/2013  21:52:00      -38.716      -38.098      -11.376       25.248       20.730       16.557      637.444      429.722      274.148        0.221        0.067       54.317       15.597        0.082      331.500       -0.445      869.382
12/29/2013  21:53:00      -55.884      -36.880      -21.484       24.915       23.138       16.742      620.736      535.345      280.283        0.319        0.072       66.956       10.810        0.026      331.498       -0.447      869.391
12/29/2013  21:54:00      -59.691      -29.156      -14.931       19.390       17.522       12.555      375.990      307.007      157.628        0.274        0.042       66.431        7.459        0.013      331.501       -0.444      869.398
12/29/2013  21:55:00      -42.078      -31.415       -3.923       24.333       20.017       20.104      592.113      400.670      404.188        0.208        0.070       52.512       13.569        0.067      331.438       -0.547      869.386
12/29/2013  21:56:00      -71.985      -39.536      -16.648       27.748       21.246       14.191      769.937      451.383      201.387        0.422        0.071       82.127       13.236        0.026      331.415       -0.585      869.374
12/29/2013  21:57:00      -83.126      -33.072      -21.753       13.696       14.917       11.857      187.594      222.510      140.588        0.451        0.028       89.464        6.859        0.006      331.403       -0.605      869.362
12/29/2013  21:58:00      -97.355      -20.048      -16.517       12.968       12.633        9.292      168.159      159.605       86.333        0.528        0.021       99.398        5.879        0.003      331.316       -0.747      869.350
12/29/2013  21:59:00      -99.437      -15.747      -21.461       11.454       13.595        9.808      131.196      184.814       96.190        0.550        0.021      100.677        7.072        0.005      331.381       -0.642      869.353
12/29/2013  22:00:00      -94.332      -14.055      -22.296       20.482       23.450       10.059      419.497      549.916      101.174        0.533        0.054       95.373        5.325        0.003      331.452       -0.524      869.363
12/29/2013  22:01:00     -105.886      -21.845      -12.941       18.512       17.229       14.011      342.697      296.830      196.300        0.635        0.042      108.116       10.270        0.009      331.342       -0.704      869.383
12/29/2013  22:02:00     -104.824      -20.563      -15.059       10.065       12.991        9.802      101.304      168.773       96.088        0.600        0.018      106.822        5.937        0.003      331.405       -0.602      869.404
12/29/2013  22:03:00      -90.695      -45.882      -16.883       15.565       25.892       14.935      242.280      670.375      223.056        0.588        0.057      101.640       11.869        0.014      331.445       -0.536      869.419
12/29/2013  22:04:00      -94.010      -18.338      -18.535       16.902       16.687       14.576      285.682      278.440      212.446        0.515        0.039       95.782       11.186        0.014      331.369       -0.661      869.436
12/29/2013  22:05:00      -89.397      -32.142      -15.330       14.895       15.442       12.989      221.856      238.463      168.709        0.494        0.031       95.000       10.515        0.012      331.353       -0.688      869.448
12/29/2013  22:06:00      -98.488      -14.219      -16.970       12.825       13.006       12.233      164.485      169.151      149.654        0.534        0.024       99.509        7.292        0.005      331.296       -0.780      869.450
12/29/2013  22:07:00      -93.678       -9.658      -21.616       10.889       14.678       11.348      118.569      215.453      128.788        0.490        0.023       94.175        9.081        0.009      331.321       -0.738      869.449
12/29/2013  22:08:00      -75.788      -34.232      -20.747       19.215       25.522       15.655      369.233      651.390      245.093        0.431        0.063       83.161       10.631        0.016      331.352       -0.688      869.451
12/29/2013  22:09:00      -79.970      -19.960      -12.442       15.841       12.142        9.551      250.926      147.417       91.216        0.372        0.024       82.423        5.087        0.004      331.290       -0.789      869.454
12/29/2013  22:10:00      -89.821      -17.179      -16.749       11.650       15.600       12.091      135.724      243.366      146.202        0.458        0.026       91.449        8.224        0.008      331.291       -0.786      869.459
12/29/2013  22:11:00      -90.540      -16.293      -12.471        9.956       16.908       11.452       99.125      285.890      131.157        0.457        0.026       91.995       11.116        0.015      331.327       -0.729      869.474
12/29/2013  22:12:00      -91.981      -15.560      -16.110       11.526       10.079        9.802      132.856      101.579       96.080        0.465        0.017       93.287        3.143        0.001      331.288       -0.792      869.487
12/29/2013  22:13:00      -89.515      -12.082      -18.603       12.693       13.663       10.907      161.108      186.681      118.961        0.449        0.023       90.327        6.907        0.006      331.315       -0.749      869.486
12/29/2013  22:14:00      -88.520      -29.669      -17.819       20.343       21.435       18.518      413.854      459.469      342.905        0.512        0.061       93.360       14.088        0.023      331.263       -0.835      869.481
12/29/2013  22:15:00     -109.874      -23.358      -18.711       13.954       17.477       13.445      194.715      305.457      180.755        0.682        0.034      112.329        9.094        0.007      331.252       -0.851      869.470
12/29/2013  22:16:00      -98.612      -24.387      -14.015       22.810       21.151       17.712      520.312      447.379      313.708        0.590        0.064      101.583        9.936        0.010      331.281       -0.804      869.456
12/29/2013  22:17:00      -95.856      -38.332      -14.192       37.686       32.042       14.492     1420.232     1026.676      210.030        0.676        0.133      103.236       12.273        0.014      331.255       -0.847      869.458
12/29/2013  22:18:00     -108.886      -30.523      -12.840       22.325       22.493       11.655      498.403      505.914      135.842        0.705        0.057      113.083        6.681        0.003      331.194       -0.949      869.458
12/29/2013  22:19:00     -109.110      -10.379      -21.098       21.728       18.712       14.071      472.125      350.136      197.982        0.674        0.051      109.602        8.460        0.006      331.242       -0.868      869.452
12/29/2013  22:20:00     -101.907      -29.593      -18.151       23.807       20.703       12.698      566.793      428.615      161.242        0.637        0.058      106.117       10.453        0.010      331.210       -0.922      869.460
12/29/2013  22:21:00     -101.214      -33.250      -18.400       22.707       25.386       15.781      515.619      644.444      249.042        0.655        0.070      106.536       11.470        0.012      331.189       -0.957      869.462
12/29/2013  22:22:00      -65.416      -31.029      -10.796       28.914       19.871       22.171      836.000      394.872      491.558        0.354        0.086       72.402       20.208        0.078      331.385       -0.633      869.470
12/29/2013  22:23:00      -42.123      -31.135        1.943       28.482       29.576       23.851      811.202      874.716      568.886        0.250        0.113       52.381       21.976        0.176      331.321       -0.738      869.480
12/29/2013  22:24:00      -93.074      -13.940      -11.306       24.663       23.236       12.074      608.242      539.931      145.790        0.514        0.065       94.112        8.411        0.008      331.175       -0.980      869.481
12/29/2013  22:25:00      -85.583      -14.924      -16.009       13.056       13.616       14.805      170.461      185.393      219.196        0.419        0.029       86.874        6.318        0.005      331.250       -0.854      869.482
12/29/2013  22:26:00      -76.280      -19.984      -19.702       15.613       19.775       13.248      243.775      391.049      175.513        0.371        0.041       78.854        7.734        0.010      331.331       -0.722      869.489
12/29/2013  22:27:00      -86.500      -24.127      -17.602       12.269       22.695       13.219      150.528      515.040      174.740        0.461        0.042       89.801        4.116        0.002      331.308       -0.759      869.509
12/29/2013  22:28:00      -76.271      -20.265      -18.609       14.505       10.143       11.774      210.408      102.881      138.618        0.351        0.023       78.917        5.285        0.004      331.250       -0.855      869.518
12/29/2013  22:29:00      -76.386      -33.469      -11.542       16.040       12.090       12.297      257.293      146.179      151.222        0.382        0.028       83.396        6.949        0.007      331.211       -0.919      869.511
12/29/2013  22:30:00      -80.879      -27.366      -15.426       18.219       19.489       14.494      331.943      379.802      210.079        0.422        0.046       85.383        4.944        0.003      331.254       -0.848      869.508
12/29/2013  22:31:00      -65.699      -20.984      -22.042       15.516       16.735       14.674      240.742      280.045      215.332        0.299        0.037       68.969        8.585        0.015      331.198       -0.942      869.510
12/29/2013  22:32:00      -78.616      -35.792      -14.737       11.164       14.205        8.844      124.642      201.791       78.222        0.404        0.020       86.380        6.636        0.006      331.178       -0.974      869.507
12/29/2013  22:33:00      -58.426      -37.652      -16.526       15.495       16.060       12.487      240.104      257.939      155.918        0.288        0.033       69.507        4.035        0.003      331.214       -0.915      869.511
12/29/2013  22:34:00      -68.456      -41.952       -6.863       22.685       20.640       13.101      514.593      426.017      171.638        0.380        0.056       80.288        9.906        0.015      331.228       -0.891      869.518
12/29/2013  22:35:00     -106.119      -36.896       -9.725       12.409       13.794       10.099      153.978      190.279      101.997        0.658        0.022      112.350        5.856        0.003      331.164       -0.996      869.520
12/29/2013  22:36:00      -99.148      -42.930      -14.212       14.967       20.883       11.364      224.018      436.083      129.150        0.633        0.039      108.043        5.153        0.002      331.142       -1.033      869.522
12/29/2013  22:37:00     -147.186      -40.410      -17.553       11.009        9.971        7.640      121.204       99.414       58.364        1.194        0.014      152.632        5.269        0.001      331.196       -0.944      869.521
12/29/2013  22:38:00     -117.295      -34.736      -12.752       25.707       12.885       14.226      660.839      166.029      202.376        0.808        0.051      122.331       13.709        0.013      331.172       -0.985      869.526
12/29/2013  22:39:00     -125.037      -28.785      -13.427       14.959       13.132       10.837      223.769      172.462      117.443        0.858        0.026      128.307        6.480        0.003      331.169       -0.990      869.522
12/29/2013  22:40:00     -126.198      -27.822      -11.919       10.686       11.280       10.196      114.180      127.239      103.950        0.859        0.017      129.229        6.559        0.003      331.173       -0.982      869.535
12/29/2013  22:41:00     -119.389      -45.141      -14.569       18.380       19.000       12.595      337.819      360.995      158.639        0.868        0.043      127.638        7.211        0.003      331.126       -1.059      869.540
12/29/2013  22:42:00     -109.833      -54.801       -4.275       24.793       16.280       15.918      614.677      265.054      253.380        0.811        0.057      122.746       13.294        0.012      331.127       -1.059      869.558
12/29/2013  22:43:00      -99.446      -58.835      -10.807       21.817       14.599       18.669      475.992      213.128      348.514        0.725        0.052      115.547       14.787        0.016      331.089       -1.120      869.563
12/29/2013  22:44:00      -97.015      -59.836      -11.643       23.626       24.132       19.486      558.197      582.350      379.716        0.732        0.076      113.984       14.748        0.017      331.055       -1.177      869.560
12/29/2013  22:45:00     -114.612      -55.299       -6.369       16.330       16.570       11.793      266.658      274.553      139.087        0.846        0.034      127.255        7.227        0.003      331.076       -1.142      869.553
12/29/2013  22:46:00     -108.589      -44.543      -11.691       18.036       15.659       10.378      325.287      245.217      107.700        0.730        0.034      117.370        7.025        0.004      331.084       -1.128      869.535
12/29/2013  22:47:00     -107.275      -48.137      -14.545       11.783       13.366        8.680      138.838      178.653       75.338        0.721        0.020      117.580        6.574        0.003      331.043       -1.198      869.529
12/29/2013  22:48:00     -124.834      -45.141      -12.656       21.647       13.281       12.919      468.582      176.373      166.912        0.930        0.041      132.745       11.856        0.008      331.073       -1.147      869.533
12/29/2013  22:49:00     -117.048      -40.922      -19.004       15.857       19.191        9.570      251.447      368.276       91.580        0.822        0.036      123.996        6.514        0.003      331.060       -1.169      869.542
12/29/2013  22:50:00     -102.019      -46.156      -17.273       15.893       15.345       10.424      252.573      235.481      108.655        0.672        0.030      111.974        4.762        0.002      331.037       -1.208      869.551
12/29/2013  22:51:00      -71.307      -51.570      -14.690       23.662       18.986       13.504      559.871      360.468      182.352        0.453        0.055       88.001       11.149        0.016      331.080       -1.135      869.553
12/29/2013  22:52:00      -68.703      -31.941      -17.446       20.177       16.895       13.779      407.120      285.433      189.862        0.346        0.044       75.765        9.759        0.017      331.078       -1.140      869.552
12/29/2013  22:53:00      -85.469      -33.332       -8.844       22.006       22.438       23.746      484.265      503.479      563.870        0.502        0.078       91.739       15.759        0.030      331.060       -1.169      869.546
12/29/2013  22:54:00     -101.198      -34.143      -18.538       26.685       20.339       12.877      712.081      413.681      165.811        0.652        0.065      106.802       13.354        0.016      331.044       -1.195      869.540
12/29/2013  22:55:00     -111.747      -16.307      -12.681       20.494       19.521       18.720      420.018      381.083      350.435        0.703        0.058      112.930       14.133        0.016      331.000       -1.268      869.531
12/29/2013  22:56:00      -83.109      -39.595      -17.374       18.407       16.600        9.937      338.815      275.557       98.741        0.474        0.036       92.059        8.196        0.008      331.055       -1.178      869.525
12/29/2013  22:57:00      -83.759      -33.099      -10.585       17.021       18.722       14.794      289.701      350.511      218.854        0.454        0.043       90.062        9.895        0.012      331.030       -1.219      869.520
12/29/2013  22:58:00      -94.572      -11.756       -8.086       27.820       18.545       14.323      773.967      343.930      205.139        0.523        0.066       95.299       13.267        0.019      330.989       -1.285      869.509
12/29/2013  22:59:00      -95.083       -3.875       -9.244       26.586       21.933       14.974      706.797      481.062      224.208        0.528        0.071       95.162        9.947        0.011      331.013       -1.246      869.493
12/29/2013  23:00:00      -90.057       -6.497       -7.591       23.640       15.442       17.036      558.847      238.469      290.221        0.465        0.054       90.291       13.845        0.024      331.019       -1.236      869.482
12/29/2013  23:01:00      -84.223      -25.649      -12.784       20.788       21.256       13.471      432.127      451.801      181.469        0.449        0.053       88.041       12.494        0.020      331.086       -1.126      869.475
12/29/2013  23:02:00      -82.316      -28.717      -12.352       25.323       18.897       14.943      641.271      357.089      223.287        0.449        0.061       87.182       10.260        0.014      331.062       -1.165      869.466
12/29/2013  23:03:00      -73.371      -27.891      -13.841       20.467       28.517       25.123      418.908      813.210      631.184        0.411        0.093       78.494       14.623        0.035      331.033       -1.212      869.467
12/29/2013  23:04:00      -85.512      -33.239      -13.934       44.841       23.422       15.603     2010.675      548.568      243.451        0.571        0.140       91.745       11.762        0.016      331.026       -1.224      869.464
12/29/2013  23:05:00     -101.576      -36.492      -16.886       20.348       35.153       15.982      414.055     1235.729      255.434        0.692        0.095      107.933        6.841        0.004      331.013       -1.248      869.451
12/29/2013  23:06:00      -93.432      -18.192      -23.927       21.554       23.565       15.326      464.579      555.324      234.894        0.544        0.063       95.186        9.524        0.010      331.026       -1.226      869.431
12/29/2013  23:07:00      -39.843      -32.507        0.048       35.834       22.008       23.114     1284.063      484.338      534.267        0.247        0.115       51.421       18.915        0.135      331.062       -1.165      869.407
12/29/2013  23:08:00      -43.753      -31.881       -6.847       30.994       25.664       23.330      960.640      658.652      544.311        0.257        0.108       54.136       14.435        0.071      331.036       -1.208      869.382
12/29/2013  23:09:00      -42.011      -46.115        2.250       25.717       30.808       14.336      661.373      949.118      205.535        0.286        0.091       62.382       15.159        0.059      331.045       -1.194      869.359
12/29/2013  23:10:00      -57.346      -24.624      -11.645       28.638       16.802       15.634      820.120      282.324      244.431        0.269        0.067       62.409        8.880        0.020      331.059       -1.169      869.348
12/29/2013  23:11:00      -82.398      -29.126       -8.605       13.054       16.890       12.639      170.402      285.288      159.736        0.416        0.031       87.395        7.858        0.008      331.072       -1.147      869.350
12/29/2013  23:12:00      -93.318      -18.096      -22.637       15.822       17.604       10.850      250.325      309.897      117.712        0.511        0.034       95.056        8.809        0.009      331.045       -1.194      869.357
12/29/2013  23:13:00      -96.782      -35.225      -16.738       20.203       20.190       14.308      408.176      407.640      204.709        0.595        0.051      102.993       12.014        0.014      331.019       -1.235      869.375
12/29/2013  23:14:00      -80.233      -45.100      -17.322       26.357       19.657       16.756      694.716      386.387      280.778        0.507        0.068       92.040        9.691        0.011      331.030       -1.219      869.387
12/29/2013  23:15:00      -78.000      -13.519      -12.571       25.733       18.651       15.735      662.189      347.847      247.594        0.384        0.063       79.163       10.726        0.018      330.980       -1.298      869.399
12/29/2013  23:16:00      -53.162      -23.039      -10.450       23.071       16.430       11.925      532.260      269.952      142.197        0.221        0.047       57.940        8.872        0.023      330.999       -1.269      869.410
12/29/2013  23:17:00      -75.029      -13.410      -11.241       15.154       14.172       11.033      229.649      200.833      121.723        0.324        0.028       76.218        6.612        0.008      331.038       -1.206      869.426
12/29/2013  23:18:00      -77.662      -21.932       -9.399       16.140       17.284       15.072      260.508      298.745      227.154        0.369        0.039       80.699        7.201        0.008      331.024       -1.228      869.446
12/29/2013  23:19:00      -72.976      -16.406      -11.117       18.537       15.351       12.264      343.618      235.667      150.406        0.322        0.036       74.797        7.904        0.011      330.998       -1.271      869.467
12/29/2013  23:20:00      -70.834      -25.916      -12.556       17.350       15.215       13.596      301.026      231.482      184.854        0.328        0.036       75.426        9.093        0.015      330.990       -1.284      869.482
12/29/2013  23:21:00      -69.262      -11.320       -7.273       12.201       12.031       10.639      148.864      144.752      113.191        0.269        0.020       70.181        6.373        0.008      330.981       -1.298      869.478
12/29/2013  23:22:00      -72.012      -20.936      -12.221       11.187       14.587        9.532      125.145      212.780       90.850        0.310        0.021       74.994        7.125        0.009      330.911       -1.412      869.479
12/29/2013  23:23:00      -83.097      -21.857      -12.523       15.001       20.368        9.667      225.035      414.855       93.448        0.414        0.037       85.924        7.103        0.007      330.920       -1.398      869.478
12/29/2013  23:24:00      -87.912      -16.481      -15.466       17.343       16.036        9.917      300.768      257.148       98.342        0.445        0.033       89.443        6.697        0.006      330.915       -1.405      869.468
12/29/2013  23:25:00      -94.418      -17.402      -11.851       17.411       17.595       15.602      303.135      309.574      243.408        0.511        0.043       96.008       13.543        0.020      330.906       -1.421      869.454
12/29/2013  23:26:00      -79.452      -23.330      -15.117       13.834       10.185        9.351      191.370      103.742       87.439        0.373        0.019       82.806        4.465        0.003      330.955       -1.340      869.439
12/29/2013  23:27:00      -85.309      -23.453      -15.937       15.270       16.562       10.622      233.164      274.313      112.818        0.435        0.031       88.474        4.477        0.003      330.932       -1.378      869.441
12/29/2013  23:28:00      -82.860      -23.119       -9.839        9.820       15.841        9.726       96.440      250.929       94.589        0.397        0.022       86.025        5.205        0.004      330.894       -1.441      869.446
12/29/2013  23:29:00      -84.599      -14.404      -10.006       16.411       11.973       14.827      269.335      143.364      219.844        0.405        0.032       85.817       10.937        0.016      330.925       -1.390      869.457
12/29/2013  23:30:00     -109.947      -22.924      -16.746       19.284       18.140       15.034      371.872      329.043      226.023        0.691        0.046      112.312       12.866        0.013      330.908       -1.418      869.474
12/29/2013  23:31:00     -132.427      -15.724      -19.570       21.371       17.363       11.982      456.728      301.480      143.567        0.953        0.045      133.357       10.858        0.007      330.805       -1.588      869.484
12/29/2013  23:32:00     -125.906      -20.180      -19.207       19.018       12.833       12.243      361.677      164.697      149.901        0.865        0.034      127.513        8.156        0.004      330.816       -1.568      869.481
12/29/2013  23:33:00      -88.500      -24.034      -18.215       20.977       17.802       14.715      440.043      316.927      216.532        0.486        0.049       91.705       13.540        0.022      330.824       -1.556      869.479
12/29/2013  23:34:00      -81.522      -31.515      -15.485       18.021       16.206       12.106      324.756      262.623      146.554        0.431        0.037       87.402        7.909        0.008      330.876       -1.471      869.469
12/29/2013  23:35:00      -63.606      -33.509       -8.466       20.811       17.825       11.569      433.088      317.719      133.844        0.306        0.044       71.893        9.340        0.017      330.892       -1.443      869.467
12/29/2013  23:36:00      -47.502      -33.787        4.284       23.481       22.775       17.807      551.345      518.691      317.074        0.240        0.069       58.292       14.684        0.063      330.853       -1.508      869.455
12/29/2013  23:37:00     -108.585      -20.896      -12.804       30.316       18.428       14.719      919.049      339.582      216.663        0.693        0.074      110.577       15.941        0.021      330.808       -1.582      869.451
12/29/2013  23:38:00     -125.565       -4.178      -10.361       25.476       20.845       17.401      649.046      434.503      302.791        0.864        0.069      125.634       15.278        0.015      330.748       -1.683      869.448
12/29/2013  23:39:00     -111.193       -9.194       -9.558       27.875       18.646       12.848      777.012      347.666      165.066        0.691        0.064      111.573       12.118        0.012      330.766       -1.652      869.447
12/29/2013  23:40:00     -104.549      -10.007      -15.137       19.503       18.341       11.402      380.360      336.378      130.003        0.605        0.042      105.027       10.298        0.010      330.780       -1.630      869.447
12/29/2013  23:41:00     -110.517      -12.538      -18.696       19.109       15.013       12.207      365.152      225.380      149.013        0.673        0.037      111.226        6.678        0.004      330.811       -1.578      869.444
12/29/2013  23:42:00      -81.145      -23.629      -10.445       16.803       22.364       14.710      282.335      500.169      216.371        0.413        0.050       84.515        6.734        0.006      330.846       -1.519      869.440
12/29/2013  23:43:00      -53.552      -35.554      -17.246       13.077       16.635       15.176      171.010      276.716      230.298        0.255        0.034       64.279        6.408        0.010      330.912       -1.412      869.435
12/29/2013  23:44:00      -56.645      -30.684       -9.371       16.441       13.904        9.446      270.303      193.313       89.236        0.240        0.028       64.422        3.478        0.003      330.929       -1.383      869.421
12/29/2013  23:45:00      -65.892      -28.999       -7.718       23.829       12.449       11.473      567.803      154.979      131.639        0.305        0.043       71.991       12.708        0.031      330.940       -1.365      869.407
12/29/2013  23:46:00      -94.513      -25.072      -10.396       10.683        8.861        9.536      114.131       78.524       90.938        0.498        0.014       97.782        5.708        0.003      330.941       -1.362      869.393
12/29/2013  23:47:00      -85.636      -33.042       -9.548       12.083       13.011        8.221      146.002      169.298       67.584        0.445        0.019       91.790        5.510        0.004      330.908       -1.418      869.389
12/29/2013  23:48:00      -86.679      -23.288      -12.148       17.080       16.719       11.608      291.727      279.520      134.739        0.445        0.035       89.753        9.658        0.012      330.951       -1.348      869.395
12/29/2013  23:49:00      -99.734      -21.480      -10.311       14.085       14.449       10.039      198.377      208.787      100.780        0.551        0.025      102.021        6.049        0.004      331.008       -1.255      869.407
12/29/2013  23:50:00      -93.567      -46.879       -4.337       14.384       15.916        9.838      206.894      253.334       96.777        0.576        0.028      104.653        3.815        0.001      331.042       -1.198      869.414
12/29/2013  23:51:00      -94.575      -44.094      -10.766       13.559       13.271        9.323      183.855      176.118       86.910        0.573        0.022      104.349        9.100        0.008      330.996       -1.274      869.424
12/29/2013  23:52:00      -97.260      -48.672       -9.165        9.803        8.816        8.636       96.097       77.726       74.586        0.608        0.012      108.759        4.943        0.002      330.931       -1.380      869.428
12/29/2013  23:53:00     -105.764      -34.670      -13.651        6.348        8.820        6.046       40.300       77.796       36.559        0.636        0.008      111.301        3.224        0.001      330.922       -1.394      869.432
12/29/2013  23:54:00     -108.634      -34.965      -15.548        8.960       11.205        8.596       80.278      125.553       73.889        0.677        0.014      114.122        4.647        0.002      330.883       -1.457      869.440
12/29/2013  23:55:00     -105.635      -44.616      -10.875       10.776       13.892        6.798      116.122      192.992       46.217        0.681        0.018      114.671        4.089        0.001      330.896       -1.437      869.455
12/29/2013  23:56:00     -111.745      -44.259      -11.055       13.705       13.564       10.700      187.837      183.979      114.481        0.753        0.024      120.190        4.749        0.002      330.866       -1.485      869.471
12/29/2013  23:57:00     -104.074      -48.974       -7.891       13.016       12.018        7.367      169.412      144.443       54.269        0.683        0.018      115.021        2.352        0.000      330.832       -1.542      869.478
12/29/2013  23:58:00     -102.531      -50.731       -7.622       15.084       14.441       11.644      227.538      208.535      135.572        0.686        0.029      114.395        9.413        0.007      330.779       -1.631      869.479
12/29/2013  23:59:00     -100.316      -48.177      -13.388        9.708       16.032       10.551       94.255      257.035      111.327        0.651        0.023      111.284        5.504        0.002      330.802       -1.593      869.483
